[[{"header":{"parameterUnit":"m.s-1","parameterCategory":1,"la1":30.6,"la2":29.2853,"lo1":-89.7004,"lo2":-87.6739,"dy":0.0162,"dx":0.0183,"nx":112,"ny":82,"refTime":"2024-07-24T06:00:00:Z","depth":0,"parameterNumber":2,"parameterNumberName":"U-component_of_WINDS"},"data":[0.0,0.0,0.0,0.0,0.0,0.0,0.0,0.0,0.0,0.0,0.0,0.0,0.0,0.0,0.0,0.0,0.0,0.0,0.0,0.0,0.0,0.0,0.0,0.0,0.0,0.0,0.0,0.0,0.0,0.0,0.0,0.0,0.0,0.0,0.0,0.0,0.0,0.0,0.0,0.0,0.0,0.0,0.0,0.0,0.0,0.0,0.0,0.0,0.0,0.0,0.0,0.0,0.0,0.0,0.0,0.0,0.0,0.0,0.0,0.0,0.0,0.0,0.0,0.0,0.0,0.0,0.0,0.0,0.0,0.0,0.0,0.0,0.0,0.0,0.0,0.0,0.0,0.0,0.0,0.0,0.0,0.0,0.0,0.0,0.0,0.0,0.0,0.0,0.0,0.0,-1.8578,-1.948,-2.0431,-2.086,-2.0527,-2.0527,-2.0114,-1.9077,0.0,0.0,0.0,0.0,0.0,0.0,0.0,0.0,0.0,0.0,0.0,0.0,0.0,0.0,0.0,0.0,0.0,0.0,0.0,0.0,0.0,0.0,0.0,0.0,0.0,0.0,0.0,0.0,0.0,0.0,0.0,0.0,0.0,0.0,0.0,0.0,0.0,0.0,0.0,0.0,0.0,0.0,0.0,0.0,0.0,0.0,0.0,0.0,0.0,0.0,0.0,0.0,0.0,0.0,0.0,0.0,0.0,0.0,0.0,0.0,0.0,0.0,0.0,0.0,0.0,0.0,0.0,0.0,0.0,0.0,0.0,0.0,0.0,0.0,0.0,0.0,0.0,0.0,0.0,0.0,0.0,0.0,0.0,0.0,0.0,0.0,0.0,0.0,0.0,0.0,0.0,0.0,0.0,0.0,0.0,0.0,0.0,0.0,0.0,0.0,0.0,0.0,0.0,0.0,-1.8936,-2.0639,-2.0682,-2.0578,-2.051,-2.0662,-2.0273,-1.9161,0.0,0.0,0.0,0.0,0.0,0.0,0.0,0.0,0.0,0.0,0.0,0.0,0.0,0.0,0.0,0.0,0.0,0.0,0.0,0.0,0.0,0.0,0.0,0.0,0.0,0.0,0.0,0.0,0.0,0.0,0.0,0.0,0.0,0.0,0.0,0.0,0.0,0.0,0.0,0.0,0.0,0.0,0.0,0.0,0.0,0.0,0.0,0.0,0.0,0.0,0.0,0.0,0.0,0.0,0.0,0.0,0.0,0.0,0.0,0.0,0.0,0.0,0.0,0.0,0.0,0.0,0.0,0.0,0.0,0.0,0.0,0.0,0.0,0.0,0.0,0.0,0.0,0.0,0.0,0.0,0.0,0.0,0.0,0.0,0.0,0.0,0.0,0.0,0.0,0.0,0.0,0.0,0.0,0.0,0.0,0.0,0.0,0.0,0.0,0.0,0.0,0.0,0.0,-1.8778,-1.9421,-2.0798,-2.0678,-2.0544,-2.0645,-2.0745,-2.0399,-1.9443,-1.9413,0.0,0.0,0.0,0.0,0.0,0.0,0.0,0.0,0.0,0.0,0.0,0.0,0.0,0.0,0.0,0.0,0.0,0.0,0.0,0.0,0.0,0.0,0.0,0.0,0.0,0.0,0.0,0.0,0.0,0.0,0.0,0.0,0.0,0.0,0.0,0.0,0.0,0.0,0.0,0.0,0.0,0.0,0.0,0.0,0.0,0.0,0.0,0.0,0.0,0.0,0.0,0.0,0.0,0.0,0.0,0.0,0.0,0.0,0.0,0.0,0.0,0.0,0.0,0.0,0.0,0.0,0.0,0.0,0.0,0.0,0.0,0.0,0.0,0.0,0.0,0.0,0.0,0.0,0.0,0.0,0.0,0.0,0.0,0.0,0.0,0.0,0.0,0.0,0.0,0.0,0.0,0.0,0.0,0.0,0.0,0.0,0.0,0.0,0.0,0.0,0.0,0.0,-1.9304,-1.9805,-2.0698,-2.0662,-2.0628,-2.0794,-2.0798,-2.0439,-1.9647,-1.9569,0.0,0.0,0.0,0.0,0.0,0.0,0.0,0.0,0.0,0.0,0.0,0.0,0.0,0.0,0.0,0.0,0.0,0.0,0.0,0.0,0.0,0.0,0.0,0.0,0.0,0.0,0.0,0.0,0.0,0.0,0.0,0.0,0.0,0.0,0.0,0.0,0.0,0.0,0.0,0.0,0.0,0.0,0.0,0.0,0.0,0.0,0.0,0.0,0.0,0.0,0.0,0.0,0.0,0.0,0.0,0.0,0.0,0.0,0.0,0.0,0.0,0.0,0.0,0.0,0.0,0.0,0.0,0.0,0.0,0.0,0.0,0.0,0.0,0.0,0.0,0.0,0.0,0.0,0.0,0.0,0.0,0.0,0.0,0.0,0.0,0.0,0.0,0.0,0.0,0.0,0.0,0.0,0.0,0.0,0.0,0.0,0.0,0.0,0.0,0.0,0.0,0.0,-1.9127,-1.9967,-2.0712,-2.0794,-2.0778,-2.0794,-2.0739,-2.04,-1.9641,-1.9301,0.0,0.0,0.0,0.0,0.0,0.0,0.0,0.0,0.0,0.0,0.0,0.0,0.0,0.0,0.0,0.0,0.0,0.0,0.0,0.0,0.0,0.0,0.0,0.0,0.0,0.0,0.0,0.0,0.0,0.0,0.0,0.0,0.0,0.0,0.0,0.0,0.0,0.0,0.0,0.0,0.0,0.0,0.0,0.0,0.0,0.0,0.0,0.0,0.0,0.0,0.0,0.0,0.0,0.0,0.0,0.0,0.0,0.0,0.0,0.0,0.0,0.0,0.0,0.0,0.0,0.0,0.0,0.0,0.0,0.0,0.0,0.0,0.0,0.0,0.0,0.0,0.0,0.0,0.0,0.0,0.0,0.0,0.0,0.0,0.0,0.0,0.0,0.0,0.0,0.0,0.0,0.0,0.0,0.0,0.0,0.0,0.0,0.0,0.0,0.0,0.0,0.0,-1.8941,-1.9743,0.0,-2.0611,-2.0561,-2.0778,-2.0972,-2.0652,-1.9674,0.0,0.0,0.0,0.0,0.0,0.0,0.0,0.0,0.0,0.0,0.0,0.0,0.0,0.0,0.0,0.0,0.0,0.0,0.0,0.0,0.0,0.0,0.0,0.0,0.0,0.0,0.0,0.0,0.0,0.0,0.0,0.0,0.0,0.0,0.0,0.0,0.0,0.0,0.0,0.0,0.0,0.0,0.0,0.0,0.0,0.0,0.0,0.0,0.0,0.0,0.0,0.0,0.0,0.0,0.0,0.0,0.0,0.0,0.0,0.0,0.0,0.0,0.0,0.0,0.0,0.0,0.0,0.0,0.0,0.0,0.0,0.0,0.0,0.0,0.0,0.0,0.0,0.0,0.0,0.0,0.0,0.0,0.0,0.0,0.0,0.0,0.0,0.0,0.0,0.0,0.0,0.0,0.0,0.0,0.0,0.0,0.0,0.0,0.0,0.0,0.0,0.0,-1.8192,-1.8975,-1.9814,0.0,-2.0728,-2.0695,-2.086,-2.0841,-2.0453,-1.9614,0.0,0.0,0.0,0.0,0.0,0.0,0.0,0.0,0.0,0.0,0.0,0.0,0.0,0.0,0.0,0.0,0.0,0.0,0.0,0.0,0.0,0.0,0.0,0.0,0.0,0.0,0.0,0.0,0.0,0.0,0.0,0.0,0.0,0.0,0.0,0.0,0.0,0.0,0.0,0.0,0.0,0.0,0.0,0.0,0.0,0.0,0.0,0.0,0.0,0.0,0.0,0.0,0.0,0.0,0.0,0.0,0.0,0.0,0.0,0.0,0.0,0.0,0.0,0.0,0.0,0.0,0.0,0.0,0.0,0.0,0.0,0.0,0.0,0.0,0.0,0.0,0.0,0.0,0.0,0.0,0.0,0.0,0.0,0.0,0.0,0.0,0.0,0.0,0.0,0.0,0.0,0.0,0.0,0.0,0.0,0.0,0.0,0.0,0.0,0.0,0.0,0.0,-1.8207,-1.9307,-2.0287,-2.1022,-2.1214,-2.1214,-2.1007,-2.0256,-1.9704,0.0,0.0,0.0,0.0,0.0,0.0,0.0,0.0,0.0,0.0,0.0,0.0,0.0,0.0,0.0,0.0,0.0,0.0,0.0,0.0,0.0,0.0,0.0,0.0,0.0,0.0,0.0,0.0,0.0,0.0,0.0,0.0,0.0,0.0,0.0,0.0,0.0,0.0,0.0,0.0,0.0,0.0,0.0,0.0,0.0,0.0,0.0,0.0,0.0,0.0,0.0,0.0,0.0,0.0,0.0,0.0,0.0,0.0,0.0,0.0,0.0,0.0,0.0,0.0,0.0,0.0,0.0,0.0,0.0,0.0,0.0,0.0,0.0,0.0,0.0,0.0,0.0,0.0,0.0,0.0,0.0,0.0,0.0,0.0,0.0,0.0,0.0,0.0,0.0,0.0,0.0,0.0,0.0,0.0,0.0,0.0,0.0,0.0,0.0,0.0,0.0,0.0,0.0,-1.8207,-1.9307,-2.0287,-2.1022,-2.1006,-2.0719,-2.0115,-2.0082,-1.9661,-1.8644,0.0,0.0,0.0,0.0,0.0,0.0,0.0,0.0,0.0,0.0,0.0,0.0,0.0,0.0,0.0,0.0,0.0,0.0,0.0,0.0,0.0,0.0,0.0,0.0,0.0,0.0,0.0,0.0,0.0,0.0,0.0,0.0,0.0,0.0,0.0,0.0,0.0,0.0,0.0,0.0,0.0,0.0,0.0,0.0,0.0,0.0,0.0,0.0,0.0,0.0,0.0,0.0,0.0,0.0,0.0,0.0,0.0,0.0,0.0,0.0,0.0,0.0,0.0,0.0,0.0,0.0,0.0,0.0,0.0,0.0,0.0,0.0,0.0,0.0,0.0,0.0,0.0,0.0,0.0,0.0,0.0,0.0,0.0,0.0,0.0,0.0,0.0,0.0,0.0,0.0,0.0,0.0,0.0,0.0,0.0,0.0,0.0,0.0,0.0,0.0,0.0,0.0,-1.8223,-1.9341,-2.0359,-2.1103,-2.1071,-2.0655,-1.9815,-1.9787,-1.9273,-1.8044,0.0,0.0,0.0,0.0,0.0,0.0,0.0,0.0,0.0,0.0,0.0,0.0,0.0,0.0,0.0,0.0,0.0,0.0,0.0,0.0,0.0,0.0,0.0,0.0,0.0,0.0,0.0,0.0,0.0,0.0,0.0,0.0,0.0,0.0,0.0,0.0,0.0,0.0,0.0,0.0,0.0,0.0,0.0,0.0,0.0,0.0,0.0,0.0,0.0,0.0,0.0,0.0,0.0,0.0,0.0,0.0,0.0,0.0,0.0,0.0,0.0,0.0,0.0,0.0,0.0,0.0,0.0,0.0,0.0,0.0,0.0,0.0,0.0,0.0,0.0,0.0,0.0,0.0,0.0,0.0,0.0,0.0,0.0,0.0,0.0,0.0,0.0,0.0,0.0,0.0,0.0,0.0,0.0,0.0,0.0,0.0,0.0,0.0,0.0,0.0,0.0,0.0,-1.8223,-1.941,-2.0481,-2.1214,-2.1294,-2.0877,-1.9893,-1.9418,-1.871,-1.7683,0.0,0.0,0.0,0.0,0.0,0.0,0.0,0.0,0.0,0.0,0.0,0.0,0.0,0.0,0.0,0.0,0.0,0.0,0.0,0.0,0.0,0.0,0.0,0.0,0.0,0.0,0.0,0.0,0.0,0.0,0.0,0.0,0.0,0.0,0.0,0.0,0.0,0.0,0.0,0.0,0.0,0.0,0.0,0.0,0.0,0.0,0.0,0.0,0.0,0.0,0.0,0.0,0.0,0.0,0.0,0.0,0.0,0.0,0.0,0.0,-2.0612,0.0,0.0,0.0,0.0,0.0,0.0,0.0,0.0,0.0,0.0,0.0,0.0,0.0,0.0,0.0,0.0,0.0,0.0,0.0,0.0,0.0,0.0,0.0,0.0,0.0,0.0,0.0,0.0,0.0,0.0,0.0,0.0,0.0,0.0,0.0,0.0,0.0,0.0,0.0,0.0,0.0,-1.8223,-1.941,-2.0481,-2.1214,-2.1215,-2.0814,-2.0017,-1.9239,-1.851,-1.7809,-1.7432,0.0,0.0,0.0,0.0,0.0,0.0,0.0,0.0,0.0,0.0,0.0,0.0,0.0,0.0,0.0,0.0,0.0,0.0,0.0,0.0,0.0,0.0,0.0,0.0,0.0,0.0,0.0,0.0,0.0,0.0,0.0,0.0,0.0,0.0,0.0,0.0,0.0,0.0,0.0,0.0,0.0,0.0,0.0,0.0,0.0,0.0,0.0,0.0,0.0,0.0,0.0,0.0,0.0,0.0,0.0,0.0,0.0,0.0,0.0,0.0,-2.0733,0.0,0.0,0.0,0.0,0.0,0.0,0.0,0.0,0.0,0.0,0.0,0.0,0.0,0.0,0.0,0.0,0.0,0.0,0.0,0.0,0.0,0.0,0.0,0.0,0.0,0.0,0.0,0.0,0.0,0.0,0.0,0.0,0.0,0.0,0.0,0.0,0.0,0.0,0.0,0.0,-1.7987,-1.9311,-2.0429,-2.1006,-2.1071,-2.0783,-1.997,-1.9088,-1.8291,-1.7556,-1.712,0.0,0.0,0.0,0.0,0.0,0.0,0.0,0.0,0.0,0.0,0.0,0.0,0.0,0.0,0.0,0.0,0.0,0.0,0.0,0.0,0.0,0.0,0.0,0.0,0.0,0.0,0.0,0.0,0.0,0.0,0.0,0.0,0.0,0.0,0.0,0.0,0.0,0.0,0.0,0.0,0.0,0.0,0.0,0.0,0.0,0.0,0.0,0.0,0.0,0.0,0.0,0.0,0.0,-2.321,-2.3638,-2.4414,-2.3619,-2.3159,-2.2948,-2.1902,-2.1226,-2.0973,0.0,0.0,0.0,0.0,0.0,0.0,0.0,0.0,0.0,0.0,0.0,0.0,0.0,0.0,0.0,0.0,0.0,0.0,0.0,0.0,0.0,0.0,0.0,0.0,0.0,-1.6829,-1.6779,0.0,0.0,0.0,0.0,0.0,0.0,0.0,0.0,0.0,0.0,0.0,0.0,-1.7926,-1.9235,-2.0292,-2.0761,-2.0893,-2.0671,-2.002,-1.9045,-1.8129,-1.7423,-1.6889,-1.638,0.0,0.0,0.0,0.0,0.0,0.0,0.0,0.0,0.0,0.0,0.0,0.0,0.0,0.0,0.0,0.0,0.0,0.0,0.0,0.0,0.0,0.0,0.0,0.0,0.0,0.0,0.0,0.0,0.0,0.0,0.0,0.0,-1.6018,-1.712,0.0,0.0,0.0,0.0,0.0,0.0,0.0,0.0,0.0,0.0,0.0,0.0,0.0,-2.3321,-2.3401,-2.4048,-2.434,-2.4296,-2.4926,-2.5299,-2.5401,-2.4637,-2.4296,-2.4244,-2.4101,0.0,-2.2469,-2.3274,0.0,0.0,0.0,0.0,0.0,0.0,0.0,0.0,0.0,0.0,0.0,0.0,0.0,0.0,0.0,0.0,0.0,0.0,0.0,0.0,0.0,0.0,-1.7925,-1.7889,-1.7513,-1.7137,0.0,-1.6745,-1.6448,-1.6365,0.0,0.0,0.0,0.0,0.0,0.0,0.0,0.0,-1.8612,-1.9266,-2.003,-2.0728,-2.0513,-2.0414,-2.0651,-1.917,-1.8176,-1.8084,-1.7141,-1.6615,-1.6645,-1.6869,0.0,0.0,0.0,0.0,0.0,0.0,0.0,0.0,0.0,0.0,0.0,0.0,0.0,0.0,0.0,0.0,0.0,0.0,0.0,0.0,0.0,0.0,0.0,0.0,0.0,0.0,0.0,0.0,0.0,-1.5983,-1.695,-1.7492,-1.7824,-1.8068,0.0,0.0,0.0,0.0,0.0,0.0,0.0,0.0,0.0,-2.3084,-2.3653,-2.4222,-2.4841,-2.515,-2.5245,-2.5173,-2.5496,-2.5656,-2.5581,-2.5276,-2.4887,-2.4515,-2.4936,-2.4569,-2.3781,-2.4655,-2.4463,-2.3618,0.0,0.0,0.0,0.0,-2.3415,-2.3307,-2.2769,-2.2358,0.0,0.0,0.0,0.0,0.0,0.0,0.0,0.0,0.0,0.0,0.0,0.0,0.0,-1.81,-1.7643,-1.7199,-1.7199,-1.7036,-1.6786,0.0,-1.6661,-1.7076,-1.7566,0.0,0.0,0.0,0.0,-1.8247,-1.8399,-1.9179,-1.9869,-2.0306,-2.0273,-2.0326,-2.0611,-1.9525,-1.8808,-1.8808,-1.7723,-1.7141,-1.7307,-1.6961,-1.6911,0.0,0.0,0.0,0.0,0.0,0.0,0.0,0.0,0.0,0.0,0.0,0.0,0.0,0.0,0.0,0.0,0.0,0.0,0.0,0.0,0.0,0.0,0.0,0.0,0.0,0.0,0.0,0.0,-1.6743,-1.757,-1.8002,-1.8607,-1.8979,0.0,0.0,0.0,0.0,0.0,0.0,-2.2532,-2.2805,-2.3302,-2.4121,-2.4271,-2.4791,-2.5733,-2.5733,-2.5717,-2.5701,-2.5719,-2.5715,-2.5597,-2.5619,-2.5311,-2.4806,-2.5354,-2.5292,-2.4825,-2.5384,-2.5294,-2.4837,-2.5441,-2.5556,-2.5432,-2.5287,-2.5163,-2.4977,-2.4447,-2.3906,-2.3188,-2.1769,0.0,-2.0792,-1.9367,0.0,0.0,0.0,0.0,-1.9804,-1.9737,-1.903,-1.827,-1.8127,-1.7643,-1.7199,-1.7199,-1.7316,-1.7282,0.0,-1.7007,-1.7451,-1.7988,0.0,0.0,0.0,0.0,-1.8045,-1.8247,-1.9013,-1.9636,-1.9848,-1.9925,-2.005,-2.0241,-1.9605,-1.9172,-1.9172,-1.8223,-1.7763,-1.7937,-1.7472,-1.7255,-1.7342,0.0,0.0,0.0,0.0,0.0,0.0,0.0,0.0,0.0,0.0,0.0,0.0,0.0,0.0,0.0,0.0,0.0,0.0,0.0,0.0,0.0,0.0,0.0,0.0,0.0,0.0,0.0,0.0,0.0,-1.9168,-1.9888,0.0,0.0,0.0,0.0,-2.1788,-2.2267,-2.2667,-2.2869,-2.3429,-2.3819,-2.4012,-2.4507,-2.4958,-2.5333,-2.5266,-2.5384,-2.5701,-2.5844,-2.5787,-2.5597,-2.5661,-2.5645,-2.5549,-2.5581,-2.5581,-2.5484,-2.4841,-2.4551,-2.4454,-2.3871,-2.3645,-2.3657,-2.3901,-2.4381,-2.4756,-2.3723,-2.3565,-2.3652,-2.2923,-2.2268,-2.1607,-2.0901,-2.0359,0.0,0.0,-2.0492,-2.0033,-1.9843,-1.9339,-1.8728,-1.8218,-1.7643,-1.7199,-1.7199,-1.7643,-1.8048,0.0,-1.8315,-1.8927,-1.9963,0.0,-1.9796,-1.9727,-1.9468,-1.9099,-1.8562,-1.8865,-1.9232,-1.9493,-1.9417,-1.942,-1.963,-1.9131,-1.8837,-1.8837,-1.8593,-1.8512,-1.863,-1.8805,-1.8625,-1.8054,-1.7784,0.0,0.0,0.0,0.0,0.0,0.0,0.0,0.0,0.0,0.0,0.0,0.0,0.0,0.0,0.0,0.0,0.0,0.0,0.0,0.0,0.0,0.0,0.0,0.0,0.0,0.0,0.0,0.0,-1.9366,-1.9863,0.0,-2.0649,-2.0994,-2.1497,-2.2228,-2.2461,-2.2808,-2.3327,-2.3552,-2.384,-2.4177,-2.4385,-2.4614,-2.4902,-2.4887,-2.4867,-2.4851,-2.4906,-2.4863,-2.4751,-2.4795,-2.4791,-2.4771,-2.5033,-2.4954,-2.4639,-2.4728,-2.4935,-2.5195,-2.4936,-2.4765,-2.4649,-2.4623,-2.4511,-2.4318,-2.3798,-2.3558,-2.3406,-2.2893,-2.217,-2.1508,-2.167,-2.1328,-2.0957,-2.1172,-2.0954,-2.0574,-2.0107,-1.9668,-1.9182,-1.846,-1.7843,-1.7352,-1.724,-1.7369,-1.763,-1.8022,-1.8487,-1.9104,-1.995,-1.9215,-1.8783,-1.9556,-1.8714,-1.8113,-1.8464,-1.863,-1.8879,-1.9325,-1.9376,-1.9395,-1.9472,-1.934,-1.9224,-1.9185,-1.8838,-1.8773,-1.9076,-1.8854,-1.8464,-1.7862,-1.7962,-1.7475,0.0,0.0,0.0,0.0,0.0,0.0,0.0,0.0,0.0,0.0,0.0,0.0,0.0,0.0,0.0,0.0,0.0,0.0,0.0,0.0,0.0,0.0,0.0,0.0,0.0,0.0,-1.8993,-1.9512,-1.9977,-2.0438,-2.0833,-2.1219,-2.1844,-2.2789,-2.2861,-2.3076,-2.358,-2.3595,-2.3739,-2.4057,-2.4057,-2.423,-2.4563,-2.4527,-2.4486,-2.4466,-2.4466,-2.44,-2.4302,-2.4328,-2.4205,-2.3989,-2.424,-2.4016,-2.3478,-2.3838,-2.415,-2.4439,-2.4913,-2.4989,-2.4795,-2.4594,-2.4271,-2.3873,-2.3551,-2.3268,-2.3038,-2.264,-2.2119,-2.1673,-2.2081,-2.1902,-2.1544,-2.1544,-2.1081,-2.0497,-2.0067,-1.9453,-1.8822,-1.8227,-1.7739,-1.7352,-1.724,-1.7237,-1.742,-1.7821,-1.8263,-1.8761,-1.9405,-1.8497,-1.7948,-1.8724,-1.7907,-1.7413,-1.7988,-1.8187,-1.8383,-1.8726,-1.8917,-1.9007,-1.8917,-1.9199,-1.9343,-1.9246,-1.9096,-1.9142,-1.9463,-1.9123,-1.8589,-1.7869,-1.7746,-1.7319,-1.6547,0.0,0.0,0.0,0.0,0.0,0.0,0.0,0.0,0.0,0.0,0.0,0.0,0.0,0.0,0.0,0.0,0.0,0.0,0.0,0.0,0.0,0.0,0.0,-1.8059,-1.8616,-1.9209,-1.9669,-2.035,-2.1045,-2.1712,-2.2318,-2.292,-2.353,-2.3573,-2.3573,-2.3595,-2.3595,-2.3595,-2.3595,-2.3595,-2.3824,-2.4261,-2.4141,-2.4251,-2.4563,-2.4563,-2.4441,-2.423,-2.4307,-2.3921,-2.3229,-2.3244,-2.282,-2.2148,-2.2167,-2.2091,-2.2082,-2.3483,-2.396,-2.3819,-2.3606,-2.3535,-2.3427,-2.2817,-2.2628,-2.2583,-2.2253,-2.2151,-2.2151,-2.2128,-2.1927,-2.1728,-2.169,-2.0755,-1.9732,-1.9571,-1.8645,-1.7655,-1.7518,-1.731,-1.7178,-1.7178,-1.7316,-1.7457,-1.7457,-1.767,-1.7987,-1.8467,-1.8027,-1.7555,-1.7398,-1.7256,0.0,-1.7199,-1.7537,-1.776,-1.772,-1.8048,-1.8226,-1.7988,-1.8649,-1.9026,-1.8893,-1.9317,-1.963,-1.9788,-1.966,-1.917,-1.8269,-1.7241,-1.688,-1.7209,0.0,0.0,0.0,0.0,0.0,0.0,0.0,0.0,0.0,0.0,0.0,0.0,0.0,0.0,0.0,0.0,0.0,0.0,0.0,0.0,0.0,-1.7315,-1.8265,-1.8677,-1.9295,-1.9788,-1.9883,-2.0304,-2.0794,-2.1318,-2.1612,-2.2133,-2.3024,-2.3091,-2.3246,-2.3573,-2.3595,-2.3595,-2.3595,-2.3595,-2.3631,-2.3726,-2.3689,-2.3603,-2.3516,-2.3516,-2.3198,-2.2625,-2.2653,-2.2283,-2.1647,-2.1879,-2.1649,-2.1132,-2.1481,-2.1315,-2.0963,-2.2129,-2.2548,-2.2489,-2.2305,-2.1975,-2.1574,-2.1169,-2.1031,-2.1009,-2.0922,-2.0892,-2.0834,-2.0495,-2.0189,-1.9925,-1.9588,-1.9214,-1.8815,-1.8356,-1.803,-1.7682,-1.7063,-1.6808,-1.665,-1.6513,-1.6529,-1.6563,-1.6563,-1.6397,-1.6544,-1.7495,-1.7622,-1.7418,-1.6906,-1.6751,0.0,-1.7157,-1.7303,-1.7455,-1.7679,-1.8147,-1.8226,-1.7679,-1.8187,-1.8475,-1.8406,-1.8558,-1.8945,-1.9551,-1.9637,-1.9544,-1.9293,-1.7829,-1.7175,0.0,0.0,0.0,0.0,0.0,0.0,0.0,0.0,0.0,0.0,0.0,0.0,0.0,0.0,0.0,0.0,0.0,0.0,0.0,0.0,0.0,0.0,-1.7371,-1.8313,-1.8992,-1.961,-2.0016,-2.0093,-2.0334,-2.0699,-2.1226,-2.1361,-2.1708,-2.2512,-2.2777,-2.3024,-2.329,-2.3486,-2.3595,-2.3595,-2.3595,-2.3588,-2.3538,-2.3241,-2.3,-2.2848,-2.2476,-2.2068,-2.1661,-2.1604,-2.122,0.0,-2.0837,-2.0517,-1.9938,-2.019,-2.0025,0.0,0.0,0.0,0.0,0.0,-2.0961,-2.0656,-2.0472,-2.04,-2.04,-2.04,-2.0278,-2.0069,-1.9792,-1.9454,-1.9112,-1.8839,-1.8428,-1.807,-1.7915,-1.7503,-1.7039,-1.6765,-1.6543,-1.634,-1.6244,-1.6078,-1.5947,-1.5947,0.0,0.0,-1.6008,-1.6358,-1.6417,-1.6029,-1.6104,-1.6315,-1.6582,-1.6786,-1.6976,-1.7186,-1.7646,-1.7767,-1.7338,-1.7767,0.0,0.0,0.0,-1.814,-1.8522,-1.8522,0.0,0.0,0.0,0.0,0.0,0.0,0.0,0.0,-1.6577,-1.642,0.0,0.0,0.0,0.0,0.0,0.0,0.0,0.0,0.0,0.0,0.0,0.0,0.0,0.0,0.0,0.0,-1.7304,-1.8255,-1.8936,-1.9552,-2.0016,-2.0207,-2.0398,-2.0724,-2.1277,-2.1326,-2.153,-2.2002,-2.2512,-2.2844,-2.2889,0.0,0.0,0.0,0.0,-2.3565,-2.349,-2.2852,-2.2477,-2.2381,-2.1613,-2.1181,-2.1088,-2.0956,-2.0567,-1.9986,-1.9967,-1.9536,-1.8822,-1.8803,-1.8664,-1.863,-1.9809,-2.0246,-2.0189,-2.0189,-2.0189,-2.0189,-2.0125,0.0,0.0,-2.0047,-1.9753,-1.9398,-1.9354,-1.9052,-1.8702,-1.8656,-1.7955,-1.7327,-1.7725,-1.6895,-1.6054,-1.6466,-1.6306,-1.6091,-1.6091,-1.5802,-1.5546,-1.5546,-1.5255,-1.488,-1.4466,-1.4789,-1.5085,-1.504,-1.5423,-1.5722,-1.5722,-1.6086,-1.6337,-1.6337,0.0,0.0,-1.6888,-1.7338,-1.7598,-1.7475,-1.7516,-1.7444,-1.7276,-1.7098,-1.711,-1.7357,-1.711,-1.7234,-1.774,-1.7372,-1.7206,-1.7216,-1.643,-1.6465,0.0,0.0,0.0,0.0,0.0,0.0,0.0,0.0,0.0,0.0,0.0,0.0,0.0,0.0,0.0,-1.6398,-1.695,-1.7506,-1.7929,-1.8871,-1.9759,-2.0372,-2.0587,-2.0699,-2.0823,-2.0848,-2.1033,-2.1506,-2.1978,-2.2443,-2.2889,-2.3355,0.0,-2.3595,-2.3595,-2.3355,-2.2882,-2.2727,-2.2351,-2.1693,0.0,0.0,-2.0386,-2.0302,-1.9914,-1.929,-1.9243,-1.9128,-1.8941,-1.8788,-1.8634,-1.8526,-1.8784,-1.8883,-1.8863,-1.8863,-1.8863,-1.8809,-1.8419,-1.8297,-1.8256,-1.7925,-1.7771,-1.761,-1.7226,-1.7053,0.0,-1.6527,-1.6266,-1.6136,-1.6225,-1.5919,-1.5613,-1.5702,-1.5513,-1.5311,-1.5311,-1.5244,-1.5198,-1.5198,-1.4834,-1.4512,-1.443,-1.4789,-1.4971,-1.4581,-1.4915,-1.5232,-1.5232,-1.53,-1.5379,-1.5379,-1.6139,-1.6471,-1.6073,-1.6816,-1.7303,-1.7261,-1.7557,-1.7713,-1.7685,-1.7645,-1.7651,-1.7697,-1.7651,-1.7518,-1.7323,-1.724,-1.7086,-1.6812,-1.6645,-1.6712,0.0,0.0,0.0,0.0,0.0,0.0,0.0,0.0,0.0,0.0,0.0,-1.5134,-1.5875,0.0,-1.6136,-1.6369,-1.6731,-1.7123,-1.7501,-1.8115,-1.8922,-2.0016,-2.0473,-2.0699,-2.0699,-2.0425,-2.0471,-2.1019,-2.1206,-2.1551,-2.2119,-2.2589,-2.2715,-2.2476,-2.2636,-2.2486,-2.1893,-2.1764,-2.151,-2.1089,-2.0679,-2.0243,-1.9805,-1.9729,-1.9478,-1.9101,-1.9059,-1.9036,-1.8974,-1.8542,-1.8155,-1.7855,-1.7855,-1.7975,-1.8135,-1.7915,-1.7855,-1.7814,-1.7578,-1.7496,-1.7475,-1.7282,-1.7031,-1.682,-1.6565,-1.6349,-1.6088,-1.5881,-1.5792,-1.5792,-1.5792,-1.5647,-1.5491,-1.5491,-1.5311,-1.5108,-1.5108,-1.5108,-1.5108,-1.5108,-1.4789,-1.4512,-1.443,-1.4489,-1.4419,-1.4069,-1.4443,-1.4743,-1.4743,-1.4949,-1.5108,-1.5108,-1.5512,-1.57,-1.5467,-1.6095,-1.6497,-1.6497,-1.6921,-1.7152,-1.7152,-1.7152,-1.7152,-1.7152,-1.7152,-1.6942,-1.6497,-1.6497,-1.6281,-1.5891,-1.5891,-1.6235,0.0,0.0,0.0,0.0,0.0,0.0,0.0,0.0,-1.4789,-1.5477,-1.5317,-1.5335,-1.6219,-1.609,-1.5977,-1.635,-1.6563,-1.6832,-1.7103,-1.7307,-1.7852,-1.9027,-1.9787,-2.0235,-2.0298,-1.9856,-1.9777,-2.0283,-2.0328,-2.0541,-2.1043,-2.1514,-2.1575,-2.1135,-2.1441,-2.1389,-2.091,-2.0676,-2.0571,-2.0513,-1.9882,-1.9538,-1.9446,-1.9339,-1.9246,-1.912,-1.9026,-1.8931,-1.8807,-1.8181,-1.7625,-1.7206,-1.7094,-1.7269,-1.7523,-1.7303,-1.7199,-1.7199,-1.7094,-1.7052,-1.7052,-1.6968,-1.6659,-1.6371,-1.6371,-1.6088,-1.5792,-1.5792,-1.5792,-1.5792,-1.5681,-1.5513,-1.5345,-1.5232,-1.5028,-1.4834,-1.48,-1.48,-1.48,-1.48,-1.4605,-1.4373,-1.4186,-1.3928,-1.3702,-1.3621,-1.3975,-1.4233,-1.4233,-1.457,-1.48,-1.48,-1.4903,-1.4994,-1.5085,-1.5445,-1.5656,-1.5656,-1.602,-1.6228,-1.6228,-1.6228,-1.6228,-1.6228,-1.6228,-1.6054,-1.5656,-1.5656,-1.549,-1.5153,-1.5017,-1.5498,-1.3521,-1.3859,-1.4049,-1.4055,-1.4021,-1.4072,0.0,0.0,-1.4807,-1.5552,-1.5644,-1.5773,-1.6293,-1.6358,-1.635,-1.6402,-1.6441,-1.6398,-1.626,-1.6562,-1.6823,-1.6846,-1.7824,-1.8568,-1.8817,-1.8776,-1.8799,-1.9006,-1.9385,-1.9696,-1.988,-2.0353,-2.0556,-2.0507,-2.0528,-2.0455,-2.02,-2.0186,-2.0057,-1.9813,-1.9677,-1.9593,-1.9574,-1.9376,-1.9302,-1.9246,-1.8765,-1.8495,-1.8338,-1.7767,-1.7462,-1.7229,-1.6765,-1.6607,-1.668,-1.7052,-1.7199,-1.7136,-1.6735,-1.6586,-1.6522,-1.6088,-1.5925,-1.5881,-1.5881,-1.5836,-1.5792,-1.5792,-1.5792,-1.5703,-1.5289,-1.5074,-1.4835,-1.4305,-1.4059,-1.3905,-1.3787,-1.3776,-1.3776,-1.3776,-1.3552,-1.3351,-1.3338,-1.3069,-1.3007,-1.3525,-1.3644,-1.3681,-1.3681,-1.3729,-1.3776,-1.3776,-1.4186,-1.4651,-1.5062,-1.5153,-1.5176,-1.5176,-1.5221,-1.5266,-1.5266,-1.5266,-1.5266,-1.5266,-1.5266,-1.5221,-1.5176,-1.5176,-1.521,-1.5266,-1.4731,-1.4776,-1.3886,-1.4087,-1.4101,-1.4339,-1.4528,-1.4692,-1.4895,-1.5179,-1.5542,-1.6005,-1.6122,-1.6174,-1.6371,-1.6413,-1.6413,0.0,-1.6545,-1.6462,-1.5934,-1.6036,-1.603,-1.567,-1.649,-1.737,-1.8116,-1.8201,-1.8368,-1.8776,-1.8736,-1.8839,-1.9216,-1.9405,-1.939,-1.9065,-1.9283,-1.9204,-1.8775,-1.9032,-1.9118,-1.8997,-1.8974,-1.8917,-1.8841,-1.8679,-1.8525,-1.8403,-1.8187,-1.7874,-1.753,-1.7305,-1.6985,-1.6637,-1.6337,-1.6207,-1.6207,-1.6349,-1.6392,-1.6371,-1.6154,-1.6088,-1.6044,-1.5859,-1.5792,-1.5748,-1.5468,-1.5379,-1.5334,-1.5006,-1.4926,-1.488,-1.4697,-1.4559,-1.4398,-1.4095,-1.3894,-1.3763,-1.3621,-1.3597,-1.3597,-1.3597,-1.3515,-1.3386,-1.3242,-1.3035,-1.2924,-1.3055,-1.3007,-1.2958,-1.2958,-1.3132,-1.3338,-1.3563,-1.38,-1.4012,-1.4222,-1.4501,-1.4697,-1.4697,-1.4949,-1.5108,-1.5108,-1.5108,-1.5108,-1.5108,-1.5108,-1.4971,-1.4697,-1.4697,-1.457,-1.4305,-1.4059,-1.3918,-1.3748,-1.3873,-1.388,-1.4286,-1.4566,-1.4836,-1.505,-1.5527,-1.5972,-1.6171,-1.6205,-1.6259,-1.6374,-1.6288,-1.6259,-1.6374,-1.6458,-1.6262,-1.5594,-1.5447,-1.5239,-1.4856,-1.5484,-1.6301,-1.7219,-1.7583,-1.7891,-1.8264,-1.7956,-1.7956,-1.8414,-1.844,-1.8257,-1.7865,-1.8134,-1.8117,-1.7801,-1.8127,-1.8364,-1.85,-1.85,-1.8442,-1.8344,-1.8179,-1.8001,-1.7848,-1.77,-1.74,-1.7047,-1.69,-1.6616,-1.6231,-1.611,-1.6066,-1.6044,-1.5891,-1.5836,-1.5792,-1.5792,-1.5792,-1.5792,-1.5792,-1.5703,-1.5536,-1.5198,-1.5006,-1.48,-1.4421,-1.4305,-1.4281,-1.4142,-1.4071,-1.3965,-1.3695,-1.3549,-1.3406,-1.3262,-1.3214,-1.319,-1.319,-1.319,-1.3132,-1.2929,-1.2783,-1.2638,-1.2446,-1.2298,-1.2298,-1.248,-1.2706,-1.2977,-1.3262,-1.3372,-1.3433,-1.3433,-1.3894,-1.4186,-1.4186,-1.4501,-1.4697,-1.4697,-1.4697,-1.4697,-1.4697,-1.4697,-1.4535,-1.4186,-1.4059,-1.3823,-1.3433,-1.3334,-1.3132,-1.2841,-1.3019,-1.3294,-1.3563,-1.3781,-1.4018,-1.4274,-1.5065,-1.5718,-1.5711,-1.5725,-1.5856,-1.6327,-1.6029,-1.5875,-1.6316,-1.6029,-1.5573,-1.509,-1.4624,-1.4349,-1.4304,-1.474,-1.5219,-1.5724,-1.6777,-1.7295,-1.6978,-1.6935,-1.7028,-1.723,-1.7251,-1.7238,-1.7225,-1.7246,-1.7406,-1.7787,-1.7808,-1.8048,-1.85,-1.85,-1.85,-1.8481,-1.8218,-1.806,-1.7948,-1.7434,-1.722,-1.7157,-1.6629,-1.6414,-1.6371,-1.6253,-1.6188,-1.6178,-1.6044,-1.5913,-1.5792,-1.5792,-1.5792,-1.5792,-1.5792,-1.5491,-1.5108,-1.5108,-1.4731,-1.4328,-1.4305,-1.4305,-1.4212,-1.3729,-1.3621,-1.3478,-1.2895,-1.2627,-1.2495,-1.2372,-1.2249,-1.215,-1.215,-1.215,-1.215,-1.2126,-1.2017,-1.1902,-1.1744,-1.1628,-1.1778,-1.2431,-1.2505,-1.2529,-1.2529,-1.2817,-1.3016,-1.3016,-1.3386,-1.361,-1.361,-1.3644,-1.3644,-1.3644,-1.3644,-1.3644,-1.3644,-1.3644,-1.3634,-1.3621,-1.3242,-1.304,-1.3016,-1.2681,-1.2529,-1.3243,-1.3392,-1.3443,-1.3362,-1.355,-1.3756,-1.3776,-1.4119,-1.4533,-1.4893,-1.4893,-1.5059,-1.5796,-1.5517,-1.543,-1.6259,-1.5729,-1.5171,-1.5007,-1.4604,-1.4304,-1.4304,-1.5078,0.0,-1.6008,0.0,0.0,-1.7382,-1.7352,-1.7436,-1.7778,-1.78,-1.7617,-1.7212,-1.7344,-1.7455,-1.7598,-1.7598,-1.7679,-1.7828,-1.77,-1.7598,-1.7496,-1.7413,-1.7289,-1.7136,-1.6939,-1.6812,-1.6735,-1.6543,-1.6479,-1.6457,-1.6383,-1.634,-1.6318,-1.6088,-1.5768,-1.5501,-1.5726,-1.5792,-1.5748,-1.5424,-1.5221,-1.4994,-1.4316,-1.3988,-1.3776,-1.3454,-1.3358,-1.3344,-1.3176,-1.3138,-1.3065,-1.2774,-1.2603,-1.2455,-1.2332,-1.22,-1.2002,-1.1653,-1.1578,-1.1444,-1.104,-1.0855,-1.0711,-1.0482,-1.0981,-1.1553,-1.2051,-1.2101,-1.22,-1.248,-1.2593,-1.2657,-1.2657,-1.2779,-1.2876,-1.2876,-1.2876,-1.2876,-1.2876,-1.2876,-1.2876,-1.2876,-1.2876,-1.2876,-1.2876,-1.273,-1.2657,-1.2657,-1.2544,-1.2357,-1.298,-1.306,-1.3035,-1.2963,-1.3081,-1.3212,-1.3196,-1.3529,-1.392,-1.4208,-1.425,-1.444,-1.5118,-1.4821,-1.4792,-1.5776,-1.5262,-1.4817,-1.4986,-1.4604,-1.4366,-1.4531,-1.5294,-1.5985,-1.637,0.0,0.0,-1.7761,-1.7641,-1.7688,-1.8092,-1.7956,-1.767,-1.7316,-1.7434,-1.755,-1.7652,-1.7652,-1.7591,-1.7496,-1.7303,-1.7157,-1.7086,-1.7023,-1.6918,-1.6761,-1.6718,-1.662,-1.65,-1.65,-1.65,-1.65,-1.6457,-1.6436,-1.6392,-1.5988,-1.5623,-1.5355,-1.5491,-1.5424,-1.521,-1.4915,-1.4709,-1.4432,-1.38,-1.3478,-1.3296,-1.2968,-1.2905,-1.2905,-1.2905,-1.2905,-1.2881,-1.2774,-1.2686,-1.248,-1.2116,-1.1968,-1.1694,-1.1108,-1.0981,-1.0871,-1.0474,-1.0295,-1.0141,-0.9969,-1.0464,-1.0905,-1.1057,-1.1259,-1.1469,-1.1719,-1.2076,-1.2283,-1.2283,-1.2431,-1.2505,-1.2505,-1.2505,-1.2505,-1.2505,-1.2505,-1.2505,-1.2505,-1.2505,-1.2505,-1.2505,-1.2132,-1.195,-1.1959,-1.1626,-1.1326,-1.2101,-1.2101,-1.215,-1.2431,-1.2382,-1.2357,-1.2603,-1.325,-1.3781,-1.3665,-1.3737,-1.3949,-1.4317,-1.4005,-1.3968,-1.4944,-1.4644,-1.4437,-1.4897,-1.4584,-1.446,0.0,0.0,0.0,0.0,0.0,0.0,-1.8077,0.0,-1.7708,-1.813,-1.7693,-1.7465,-1.7542,-1.7529,-1.7652,-1.7902,-1.7902,-1.7767,-1.7496,-1.7303,-1.7199,-1.7199,-1.7086,-1.696,-1.6897,-1.6761,-1.662,-1.65,-1.65,-1.65,-1.65,-1.65,-1.65,-1.6436,-1.5812,-1.5512,-1.5344,-1.5119,-1.4731,-1.4305,-1.4281,-1.3954,-1.3597,-1.3573,-1.3248,-1.2905,-1.2905,-1.2905,-1.2905,-1.2905,-1.2905,-1.2881,-1.2856,-1.2759,-1.2446,-1.1735,-1.151,-1.1234,-1.0525,-1.0338,-1.0312,-1.0312,-1.021,-1.0141,-1.0115,-1.0012,-0.9865,-0.964,-1.0061,-1.0377,-1.037,-1.1217,-1.1794,-1.1794,-1.215,-1.2382,-1.2431,-1.2397,-1.2431,-1.2455,-1.2397,-1.2397,-1.2397,-1.2372,-1.2348,-1.2348,-1.1384,-1.0939,-1.0914,-1.0012,-0.9588,-1.2076,-1.2101,-1.2126,-1.2175,-1.2101,-1.2051,-1.22,-1.2359,-1.2592,-1.2959,-1.291,-1.3074,-1.4076,-1.3649,-1.358,-1.4772,-1.4279,0.0,-1.4398,-1.4382,0.0,-1.4927,0.0,-1.6297,-1.7034,-1.7285,0.0,0.0,-1.8166,-1.8178,-1.8894,-1.8367,-1.81,-1.8179,-1.7928,-1.7889,-1.8123,-1.7963,-1.7767,-1.7496,-1.7303,-1.7199,-1.7199,-1.7157,-1.7094,-1.696,-1.6876,-1.6782,-1.6654,-1.6543,-1.65,-1.65,-1.65,-1.65,-1.6436,-1.5812,-1.5355,-1.4971,-1.4444,-1.4305,-1.4235,-1.3884,-1.3705,-1.3525,-1.3176,-1.2992,-1.2905,-1.2905,-1.2905,-1.2905,-1.2905,-1.2905,-1.2808,-1.2406,-1.22,-1.1952,-1.1343,-1.1015,-1.0651,-1.0072,-0.9536,-0.9211,-0.9211,-0.9185,-0.9133,-0.9014,-0.8988,-0.9145,-0.9684,-0.9865,-0.9925,-0.9821,-1.0028,-1.0226,-1.0328,-1.0431,-1.0719,-1.1267,-1.1217,-1.1352,-1.1753,-1.1242,-1.0939,-1.0939,-1.0541,-1.0328,-1.0328,-1.0072,-0.9961,-0.9961,-0.971,-0.9588,-1.1601,-1.181,-1.2002,-1.2002,-1.1877,-1.1753,-1.1828,-1.206,-1.2331,-1.2567,-1.2694,-1.2946,-1.3556,-1.3293,-1.3302,0.0,0.0,0.0,-1.4232,-1.4304,-1.4512,0.0,-1.5725,0.0,-1.7335,-1.7601,-1.7931,0.0,-1.821,-1.8209,-1.8584,-1.8234,-1.7974,-1.7781,-1.786,-1.8043,-1.8341,-1.8043,-1.7808,-1.7672,-1.7344,-1.7199,-1.7199,-1.7199,-1.7136,-1.7002,0.0,-1.6846,-1.6697,-1.662,-1.6436,-1.6194,-1.6194,-1.6076,-1.5812,-1.5277,-1.4869,-1.4513,-1.3931,-1.3766,-1.3766,-1.3488,-1.3344,-1.3248,-1.2968,-1.2905,-1.2905,-1.2905,-1.2725,-1.2554,-1.2554,-1.2348,-1.2067,-1.1794,-1.1635,-1.1435,-1.0821,-1.0566,-1.0233,-0.9562,-0.9113,-0.8804,-0.8804,-0.8804,-0.8778,-0.8692,-0.8685,-0.8864,-0.9386,-0.9613,-0.9744,-0.9807,-1.0046,-1.0201,-1.0289,-1.0282,-1.0417,-1.0701,-1.064,-1.0639,-1.0753,-1.0362,-1.0113,-1.0061,-0.9744,-0.9588,-0.9588,-0.9354,-0.9249,-0.9242,-0.8988,-0.8863,-1.0864,-1.1267,-1.1694,-1.1744,-1.1569,-1.1418,-1.1519,-1.2114,-1.261,-1.25,-1.2867,-1.3203,-1.3067,-1.2995,-1.3084,-1.3559,0.0,-1.369,-1.4165,-1.4279,-1.461,-1.5356,-1.5897,-1.6599,-1.759,-1.7739,-1.7815,-1.7993,-1.8008,-1.7935,-1.7836,-1.7641,-1.7357,-1.6968,-1.7475,-1.7969,-1.8406,-1.7989,-1.7808,-1.7902,-1.7406,-1.7199,-1.7199,-1.7199,-1.7136,-1.7044,0.0,0.0,-1.662,-1.6611,-1.6262,-1.57,-1.57,-1.5467,-1.504,-1.4558,-1.4326,-1.4152,-1.361,-1.3338,-1.3218,-1.3138,-1.3017,-1.2944,-1.2929,-1.2881,-1.2808,-1.2808,-1.2406,-1.1968,-1.1968,-1.1585,-1.1175,-1.1099,-1.1099,-1.0922,-1.0269,-1.0115,-0.9891,-0.9133,-0.891,-0.8831,-0.8804,-0.8804,-0.8804,-0.8804,-0.8804,-0.8878,-0.9071,-0.9342,-0.9646,-0.995,-1.0415,-1.068,-1.0709,-1.0709,-1.0647,-1.0501,-1.0441,-1.0256,-0.9922,-0.9766,-0.964,-0.9484,-0.9406,-0.938,-0.938,-0.8909,-0.8672,-0.8672,-0.8135,-0.7901,-1.0167,-1.032,-1.0576,-1.0897,-1.0956,-1.1082,-1.1694,-1.2324,-1.2803,-1.2885,-1.3141,-1.3358,-1.3318,-1.297,-1.2791,-1.3208,-1.3174,-1.3287,-1.38,-1.4221,-1.4741,0.0,-1.6231,-1.6955,-1.7629,-1.7904,0.0,0.0,0.0,-1.7662,-1.7948,-1.7111,-1.6666,-1.6757,-1.7005,-1.74,-1.7922,-1.7421,-1.7413,-1.7902,-1.7406,-1.7199,-1.7199,-1.7199,-1.7199,-1.7157,-1.7065,0.0,-1.6191,-1.6141,-1.5768,-1.521,-1.521,-1.5176,-1.504,-1.4558,-1.4384,-1.428,-1.3752,-1.3491,-1.3348,-1.3228,-1.318,-1.3132,-1.3065,-1.2725,-1.2314,-1.2249,-1.1819,-1.136,-1.136,-1.1284,-1.1082,-1.0651,-1.0549,-1.0395,-0.9821,-0.9614,-0.9439,-0.9054,-0.8982,-0.8929,-0.8804,-0.8804,-0.8804,-0.8804,-0.8804,-0.8978,-0.9511,-0.9314,-0.9184,-0.9408,-0.9528,-0.9615,-0.9744,-0.9744,-0.9948,-1.0471,-1.0195,-1.0137,-1.0359,-0.9575,-0.908,-0.8935,-0.8448,-0.8189,-0.8189,-0.8109,-0.8055,-0.8055,-0.7955,-0.7901,-0.9614,-1.0053,-1.06,-1.0676,-1.088,-1.1167,-1.1603,-1.2043,-1.2483,-1.2822,-1.3009,-1.3148,-1.3369,-1.3021,-1.2754,-1.2947,-1.3101,-1.3302,-1.3573,-1.3975,-1.4529,-1.5303,-1.6016,-1.6613,-1.7032,-1.7481,-1.753,0.0,0.0,-1.6711,-1.6898,-1.6397,-1.6278,-1.668,-1.6795,-1.7047,-1.7475,-1.716,-1.7173,-1.7529,-1.7303,-1.7199,-1.7199,-1.7199,-1.7094,-1.6934,-1.6884,0.0,-1.5832,-1.5812,-1.5367,-1.4743,-1.4743,-1.4581,-1.4292,-1.4069,-1.3975,-1.3952,-1.3681,-1.342,-1.3194,-1.3112,-1.3136,-1.3122,-1.2764,-1.2437,-1.2132,-1.1735,-1.1234,-1.0778,-1.0778,-1.0566,-1.031,-1.0035,-0.9984,-0.9899,-0.9666,-0.9484,-0.9361,-0.9237,-0.908,-0.887,-0.8494,-0.8388,-0.8235,-0.7969,-0.7976,-0.8197,-0.865,-0.8563,-0.8729,-0.9327,-0.9762,-0.9701,-0.9027,-0.9646,-0.9976,-0.9774,-0.9906,-0.9803,-0.9336,-0.8745,-0.8151,-0.7557,-0.7208,-0.7025,-0.7025,-0.7025,-0.7025,-0.7025,-0.7025,-0.7025,-0.9054,-0.9699,-1.0421,-1.0472,-1.0753,-1.1108,-1.1502,-1.1851,-1.2263,-1.2814,-1.2922,-1.2992,-1.3313,-1.3037,-1.276,-1.2822,-1.3068,-1.3343,-1.3569,-1.3853,-1.4359,-1.5147,-1.5796,0.0,-1.6428,-1.6989,0.0,0.0,0.0,0.0,-1.5739,-1.5726,-1.5957,-1.6445,-1.6466,-1.6659,-1.6997,-1.6837,-1.6837,-1.7052,-1.701,-1.6989,-1.6989,-1.6989,-1.6842,-1.6595,-1.6595,0.0,0.0,-1.5546,-1.5096,-1.4396,-1.4396,-1.4116,-1.3692,-1.3692,-1.3644,-1.3597,-1.3597,-1.3338,-1.2991,-1.2991,-1.3016,-1.2963,-1.2378,-1.2082,-1.1834,-1.1284,-1.0702,-1.0241,-1.0241,-0.9925,-0.9588,-0.9588,-0.9588,-0.9588,-0.9588,-0.9568,-0.9492,-0.9323,-0.9102,-0.8758,-0.8096,-0.786,-0.7614,-0.7171,-0.7218,-0.7403,-0.7706,-0.7835,-0.8167,-0.888,-0.968,-0.9716,-0.8587,-0.9524,-0.9819,-0.9005,-0.9382,-0.9151,-0.8125,-0.779,-0.7229,-0.6413,-0.6268,-0.6209,-0.6209,-0.6209,-0.6209,-0.6209,-0.6209,-0.6209,-0.8501,-0.8633,-0.9014,-0.984,-1.0097,-1.0431,-1.1594,-1.2175,-1.2598,-1.315,-1.3241,-1.3277,-1.3287,-1.2869,-1.2626,-1.2941,-1.2921,-1.3169,-1.4084,-1.4249,-1.4556,-1.5294,0.0,0.0,-1.6306,-1.6858,0.0,0.0,0.0,0.0,-1.5177,-1.5402,-1.5558,-1.5625,-1.5726,-1.5979,-1.6377,-1.6076,-1.6132,-1.6565,-1.6383,-1.6287,-1.6287,-1.6287,-1.6287,-1.6253,-1.6253,0.0,0.0,-1.5333,-1.496,-1.4396,-1.4396,-1.4221,-1.3973,-1.3973,-1.3821,-1.3597,-1.3597,-1.3338,-1.2991,-1.2991,-1.2793,-1.252,-1.2348,-1.1744,-1.1082,-1.0964,-1.0318,-0.9666,-0.9666,-0.964,-0.9588,-0.9588,-0.9588,-0.9588,-0.9588,-0.9821,-0.9803,-0.9016,-0.8836,-0.8551,-0.7689,-0.7445,-0.7288,-0.7117,-0.7218,-0.7344,-0.7518,-0.754,-0.7441,-0.717,-0.8075,-0.8651,-0.8522,-0.8619,-0.864,-0.8554,-0.8201,-0.7908,-0.7664,-0.7058,-0.6613,-0.6408,-0.6268,-0.6209,-0.6209,-0.6209,-0.6209,-0.6209,-0.6209,-0.6209,-0.9047,-0.9276,-0.9625,-0.9935,-1.0507,-1.1175,-1.1769,-1.22,-1.2651,-1.3177,-1.3121,-1.302,-1.325,-1.2728,-1.2392,-1.2758,-1.2987,-1.3322,-1.3961,-1.4262,-1.4536,-1.4823,-1.5719,0.0,0.0,0.0,0.0,0.0,0.0,0.0,-1.5119,-1.5356,-1.5491,-1.5491,-1.5637,-1.577,-1.5935,-1.5859,-1.5903,-1.6066,-1.6166,-1.62,-1.62,-1.62,-1.6078,-1.5846,-1.5846,0.0,0.0,-1.4937,-1.4743,-1.4396,-1.4396,-1.4244,-1.3997,-1.3997,-1.3844,-1.3597,-1.3597,-1.3204,-1.2706,-1.2706,-1.2289,-1.1778,-1.1794,-1.1569,-1.1167,-1.0531,-1.0095,-0.981,-0.964,-0.9588,-0.9588,-0.9588,-0.9413,-0.9237,-0.9237,-0.9143,-0.8978,-0.8626,-0.8484,-0.8151,-0.7284,-0.6986,-0.6689,-0.6096,-0.6169,-0.6292,-0.6349,-0.6464,-0.6486,-0.6327,-0.7441,-0.785,-0.6994,-0.7788,-0.8085,-0.7583,-0.7964,-0.7858,-0.7094,-0.6721,-0.6214,-0.5508,-0.5281,-0.5171,-0.5171,-0.5171,-0.5171,-0.5171,-0.5171,-0.5171,-0.9959,-1.0122,-1.0269,-1.0354,-1.0998,-1.1653,-1.1952,-1.2236,-1.2582,-1.3127,-1.2913,-1.2746,-1.311,-1.2621,-1.2279,-1.2625,-1.3047,-1.3433,-1.3827,-1.4249,-1.4515,-1.4515,0.0,-1.5647,0.0,0.0,0.0,0.0,0.0,0.0,0.0,-1.5244,-1.5424,-1.5424,-1.557,-1.5626,-1.5582,-1.5614,-1.5637,-1.5592,-1.578,-1.5881,-1.5881,-1.5881,-1.5714,-1.5457,0.0,0.0,0.0,-1.4811,-1.472,-1.4605,-1.4605,-1.4454,-1.4208,-1.4138,-1.3939,-1.3692,-1.3491,-1.3021,-1.248,-1.2357,-1.1852,-1.1326,-1.1418,-1.1402,-1.1175,-1.0462,-1.0128,-0.9947,-0.9777,-0.9673,-0.9562,-0.9458,-0.9211,-0.8956,-0.885,-0.8652,-0.8443,-0.8228,-0.8143,-0.7814,-0.6935,-0.6633,-0.6267,-0.5493,-0.5551,-0.5657,-0.5519,-0.5649,-0.573,-0.573,-0.6651,-0.6943,-0.6075,-0.6993,-0.7352,-0.6724,-0.7332,-0.7322,-0.6401,-0.6138,-0.5682,-0.4904,-0.4625,-0.4491,-0.4491,-0.4491,-0.4511,-0.4556,-0.4556,-0.4467,-1.1153,-1.086,-1.055,-1.1133,-1.1301,-1.1477,-1.215,-1.2308,-1.2445,-1.2985,-1.2774,-1.2578,-1.2856,-1.2569,-1.2379,-1.265,-1.3047,-1.3433,-1.3827,-1.4249,-1.4515,0.0,0.0,-1.5157,-1.4556,0.0,0.0,0.0,0.0,0.0,0.0,-1.4983,-1.5312,-1.5312,-1.5435,-1.5424,-1.5312,-1.5312,-1.5233,-1.5108,-1.5108,-1.5108,-1.5108,-1.5108,-1.5108,0.0,0.0,0.0,0.0,-1.5108,-1.5085,-1.5085,-1.5085,-1.4926,-1.4685,-1.4466,-1.4221,-1.3892,-1.3242,-1.2793,-1.2421,-1.2051,-1.1619,-1.1301,-1.1301,-1.1124,-1.0896,-1.0896,-1.0462,-0.9999,-0.9999,-0.9803,-0.9484,-0.9113,-0.9008,-0.8903,-0.8501,-0.8611,-0.8582,-0.7857,-0.7764,-0.7537,-0.6668,-0.6382,-0.6147,-0.5665,-0.5766,-0.5758,-0.5349,-0.5305,-0.5305,-0.5305,-0.551,-0.5788,-0.6174,-0.6207,-0.6207,-0.6203,-0.6016,-0.5837,-0.5616,-0.5158,-0.4904,-0.4897,-0.4625,-0.4491,-0.4491,-0.4491,-0.4566,-0.4687,-0.4687,-0.4378,-1.1558,-1.1602,-1.1671,-1.1555,-1.1819,-1.2175,-1.2382,-1.2638,-1.29,-1.3058,-1.2931,-1.2807,-1.2877,-1.2494,-1.2464,-1.3369,-1.3635,0.0,-1.4616,0.0,0.0,-1.4543,-1.4684,-1.4872,0.0,0.0,0.0,0.0,0.0,0.0,0.0,-1.5038,-1.521,-1.5312,-1.5435,-1.5424,-1.5312,-1.5312,-1.5233,-1.5108,-1.5108,-1.5108,-1.5108,-1.5108,0.0,0.0,0.0,0.0,0.0,-1.5108,-1.5108,-1.5108,-1.5108,-1.4949,-1.4685,-1.4639,-1.4361,-1.3973,-1.3763,-1.3166,-1.248,-1.2348,-1.1852,-1.1301,-1.1301,-1.1251,-1.1099,-1.0726,-1.0308,-0.9973,-0.9777,-0.9472,-0.9159,-0.9035,-0.8553,-0.807,-0.7937,-0.7761,-0.7579,-0.7338,-0.7417,-0.7389,-0.6934,-0.6729,-0.647,-0.6016,-0.5806,-0.5587,-0.5329,-0.5297,-0.5297,-0.5297,-0.5478,-0.5657,-0.577,-0.6037,-0.6126,-0.6008,-0.6148,-0.6059,-0.5628,-0.5356,-0.5135,-0.4901,-0.4625,-0.4294,-0.3876,-0.388,-0.3727,-0.3392,-0.3392,-0.3287,-1.2243,-1.231,-1.2302,-1.1997,-1.2215,-1.2505,-1.2554,-1.2779,-1.296,-1.301,-1.296,-1.2884,-1.2824,-1.2622,-1.2698,-1.3414,-1.3737,0.0,0.0,0.0,0.0,-1.4543,0.0,0.0,0.0,0.0,0.0,0.0,0.0,0.0,0.0,-1.4502,-1.4766,-1.521,-1.5323,-1.5311,-1.5233,-1.521,-1.5187,-1.5108,-1.5108,-1.5108,-1.5108,-1.5108,0.0,0.0,0.0,0.0,0.0,-1.5108,-1.5108,-1.5108,-1.5108,-1.4994,-1.4846,-1.4754,-1.4523,-1.4197,-1.3716,-1.3132,-1.2559,-1.2166,-1.1703,-1.1301,-1.1301,-1.1301,-1.1217,-1.0896,-1.0514,-1.0102,-0.9769,-0.9335,-0.8929,-0.858,-0.8096,-0.767,-0.7509,-0.7268,-0.7112,-0.7203,-0.7321,-0.7362,-0.7243,-0.705,-0.6759,-0.6296,-0.5919,-0.5599,-0.5329,-0.5297,-0.5325,-0.5418,-0.5583,-0.5742,-0.5807,-0.6049,-0.6131,-0.602,-0.6224,-0.6136,-0.5734,-0.5462,-0.5119,-0.4685,-0.4348,-0.3876,-0.3264,-0.3319,-0.3191,-0.286,-0.2647,-0.2525,0.0,-1.287,-1.2529,-1.2529,-1.2529,-1.2554,-1.2686,-1.27,0.0,-1.2881,-1.2881,-1.2866,-1.2773,-1.2931,-1.3089,-1.3044,-1.3571,0.0,0.0,-1.4286,0.0,0.0,-1.4515,0.0,0.0,0.0,0.0,0.0,0.0,0.0,0.0,-1.3583,-1.4035,-1.4971,-1.504,-1.5062,-1.5108,-1.5108,-1.5108,-1.5108,-1.5108,-1.5108,-1.5108,-1.5108,0.0,0.0,0.0,0.0,0.0,-1.5108,-1.5108,-1.5108,-1.5108,-1.5108,-1.5062,-1.4811,-1.4708,-1.4489,-1.3294,-1.2837,-1.2594,-1.161,-1.1301,-1.1301,-1.1301,-1.1301,-1.1301,-1.1276,-1.0896,-1.0385,-0.9899,-0.9361,-0.8738,-0.791,-0.7681,-0.7586,-0.7198,-0.7139,-0.7198,-0.738,-0.7421,-0.7494,-0.7619,-0.7377,-0.6985,-0.65,-0.6139,-0.5775,-0.5345,-0.5297,-0.5365,-0.5592,-0.5778,-0.5988,-0.6195,-0.6219,-0.6227,-0.6227,-0.6164,-0.6056,-0.5882,-0.5388,-0.4857,-0.4258,-0.3738,-0.3207,-0.2653,-0.2737,-0.2793,-0.2849,-0.229,-0.201,-1.2396,0.0,-1.2808,-1.2808,-1.2808,-1.2808,0.0,-1.2856,-1.2856,-1.2881,-1.2832,-1.2821,-1.3115,-1.3132,-1.3408,-1.4346,0.0,-1.4628,-1.4923,0.0,0.0,-1.4515,-1.4515,0.0,0.0,0.0,0.0,0.0,0.0,0.0,0.0,-1.3541,-1.3716,-1.3941,-1.435,-1.4743,-1.5108,-1.5108,-1.5108,-1.5108,-1.5108,-1.5108,-1.5108,-1.5108,0.0,0.0,0.0,0.0,-1.5108,-1.5108,-1.5108,-1.5108,-1.5108,-1.5108,-1.5085,-1.504,-1.464,-1.4118,-1.3826,-1.3074,-1.2166,-1.1519,-1.1301,-1.1301,-1.1301,-1.1301,-1.1251,-1.1049,-1.0769,-1.0334,-0.9673,-0.9021,-0.8395,-0.783,-0.7581,-0.7394,-0.7155,-0.7375,-0.7596,-0.7415,-0.7736,-0.8021,-0.8036,-0.7747,-0.733,-0.6865,-0.6352,-0.5858,-0.5353,-0.5297,-0.5365,-0.5592,-0.5778,-0.5988,-0.6195,-0.6306,-0.6355,-0.6355,-0.5956,-0.5689,-0.5531,-0.4856,-0.4257,-0.3706,-0.2779,-0.2225,-0.2091,-0.1668,-0.1474,-0.1547,-0.1355,-0.1246,-1.2113,-1.2671,-1.3213,-1.3408,-1.3457,-1.3457,-1.3457,-1.3164,-1.2905,-1.2905,-1.2832,-1.2909,-1.3326,-1.3429,-1.3762,-1.4678,-1.4838,0.0,0.0,0.0,-1.4515,-1.4515,0.0,0.0,0.0,0.0,0.0,0.0,0.0,0.0,0.0,-1.2993,-1.3108,-1.3597,-1.3647,-1.4025,-1.4766,-1.4994,-1.5108,-1.5108,-1.5108,-1.5108,-1.5108,-1.5108,-1.5108,0.0,0.0,0.0,-1.5108,-1.5108,-1.5108,-1.5108,-1.5108,-1.5108,-1.5108,-1.5108,-1.4709,-1.4152,-1.3836,-1.288,-1.1778,-1.1418,-1.1301,-1.1301,-1.1301,-1.1301,-1.1276,-1.1124,-1.0794,-1.0308,-0.951,-0.8931,-0.8369,-0.7714,-0.7494,-0.7417,-0.7419,-0.7532,-0.7637,-0.7752,-0.8003,-0.8214,-0.8328,-0.79,-0.7446,-0.7078,-0.6527,-0.5969,-0.5506,-0.5442,-0.551,-0.5722,-0.5618,-0.5647,-0.5889,-0.5763,-0.5782,-0.6017,-0.5514,-0.5213,-0.5139,-0.4589,-0.3893,-0.3011,-0.2001,-0.1503,-0.1484,-0.1146,-0.102,-0.1068,-0.1002,-0.098,-1.2257,-1.3071,-1.3755,-1.3887,-1.4007,-1.4075,-1.3948,-1.3389,-1.2905,-1.2905,-1.2954,-1.3105,-1.3525,-1.384,0.0,0.0,0.0,0.0,-1.4745,-1.4616,-1.4506,-1.4515,0.0,0.0,0.0,0.0,0.0,0.0,0.0,0.0,0.0,-1.2314,-1.2486,-1.3348,-1.2991,-1.328,-1.428,-1.4766,-1.504,-1.5108,-1.5108,-1.5108,-1.5108,-1.5108,-1.5108,0.0,0.0,0.0,-1.4994,-1.5062,-1.5062,-1.4994,-1.5062,-1.5108,-1.5085,-1.5017,-1.4697,-1.4163,-1.342,-1.2418,-1.1502,-1.1343,-1.1301,-1.1301,-1.1301,-1.1301,-1.1276,-1.1192,-1.0827,-1.0249,-0.9358,-0.8889,-0.8452,-0.7642,-0.7503,-0.7573,-0.7763,-0.7675,-0.7691,-0.8111,-0.8209,-0.8301,-0.8479,-0.7989,-0.7513,-0.7245,-0.6688,-0.6147,-0.5693,-0.5653,-0.5696,-0.5817,-0.5403,-0.5241,-0.5456,-0.4984,-0.4885,-0.5319,-0.4918,-0.4652,-0.455,-0.4189,-0.3482,-0.2401,-0.1468,-0.1014,-0.1008,-0.1014,-0.1001,-0.1002,-0.0992,-0.0961,-1.3307,-1.4108,-1.4424,-1.3357,-1.3613,-1.3919,-1.3232,-1.2993,-1.2905,-1.2905,-1.3164,-1.3545,-1.3938,-1.4367,-1.4796,0.0,0.0,-1.5059,0.0,0.0,-1.4636,0.0,0.0,0.0,0.0,0.0,0.0,0.0,0.0,0.0,0.0,-1.215,-1.2175,-1.2338,-1.2638,-1.3088,-1.3716,-1.4233,-1.472,-1.5108,-1.5108,-1.5108,-1.5108,-1.5108,-1.5108,0.0,0.0,-1.488,-1.4535,-1.4949,-1.4857,-1.4535,-1.4949,-1.5108,-1.5062,-1.4651,-1.4163,-1.3539,-1.2378,-1.1819,-1.1628,-1.1377,-1.1301,-1.1301,-1.1301,-1.1301,-1.1192,-1.0684,-1.0391,-1.0009,-0.9035,-0.861,-0.8323,-0.7865,-0.7898,-0.8025,-0.7833,-0.8091,-0.8312,-0.8209,-0.8349,-0.8468,-0.8511,-0.8276,-0.7876,-0.7288,-0.6906,-0.65,-0.5942,-0.5848,-0.5765,-0.55,-0.5388,-0.5233,-0.4935,-0.4422,-0.4159,-0.4225,-0.4159,-0.3925,-0.3458,-0.2845,-0.2435,-0.2225,-0.1461,-0.1098,-0.1069,-0.1098,-0.1095,-0.1094,-0.101,-0.0994,-1.3549,-1.439,-1.4792,-1.3928,-1.4447,-1.501,-1.4385,-1.3887,-1.3555,-1.3555,-1.3685,-1.3948,-1.4404,0.0,-1.4922,-1.5342,0.0,-1.5156,0.0,0.0,0.0,0.0,0.0,0.0,0.0,0.0,0.0,0.0,0.0,0.0,0.0,0.0,-1.2101,-1.2101,-1.2304,-1.2662,-1.316,-1.3705,-1.4339,-1.5108,-1.5108,-1.5108,-1.5108,-1.5108,-1.4971,-1.472,0.0,-1.4443,-1.3975,-1.4199,-1.4339,-1.4419,-1.4628,-1.488,-1.5017,-1.4257,-1.3634,-1.3025,-1.2033,-1.1703,-1.1653,-1.1402,-1.1301,-1.1301,-1.1301,-1.1301,-1.1116,-1.0216,-1.0079,-0.9973,-0.8963,-0.8666,-0.8529,-0.8111,-0.8101,-0.8187,-0.8183,-0.8258,-0.8355,-0.8376,-0.8441,-0.8517,-0.8517,-0.826,-0.7926,-0.7447,-0.6817,-0.6348,-0.61,-0.5561,-0.5248,-0.5385,-0.488,-0.4484,-0.4378,-0.3892,-0.356,-0.356,-0.356,-0.346,-0.3226,-0.2555,-0.2188,-0.2188,-0.148,-0.1109,-0.1109,-0.1109,-0.1068,-0.1053,-0.1055,-0.1039,-1.3903,-1.465,-1.5132,-1.5156,-1.5656,-1.597,-1.5263,-1.4582,-1.4104,-1.4104,-1.4192,-1.4358,0.0,-1.4891,0.0,-1.5361,-1.5313,0.0,0.0,0.0,0.0,0.0,0.0,0.0,0.0,0.0,0.0,0.0,0.0,0.0,0.0,0.0,-1.2101,-1.2101,-1.2101,-1.2329,-1.2788,-1.3218,-1.3941,-1.4949,-1.504,-1.504,-1.4949,-1.4949,-1.4674,-1.421,-1.421,-1.3894,-1.342,-1.3549,-1.3776,-1.4035,-1.4163,-1.4362,-1.4467,-1.3695,-1.3074,-1.2555,-1.1909,-1.1756,-1.1768,-1.1403,-1.1361,-1.1387,-1.1327,-1.1301,-1.1065,-0.9925,-0.9814,-0.9796,-0.8823,-0.8658,-0.8626,-0.8346,-0.8263,-0.8317,-0.8474,-0.8366,-0.8322,-0.8479,-0.8517,-0.8517,-0.8517,-0.8117,-0.7684,-0.7358,-0.6502,-0.5898,-0.5869,-0.515,-0.4765,-0.5028,-0.435,-0.3833,-0.382,-0.3426,-0.3192,-0.3192,-0.3192,-0.3192,-0.3192,-0.2555,-0.2188,-0.2188,-0.148,-0.1109,-0.1109,-0.1109,-0.1065,-0.1012,-0.1065,-0.1085,-1.4965,-1.5284,-1.5568,-1.7066,-1.6874,-1.591,-1.4523,-1.4153,-1.4104,-1.4104,-1.4453,-1.4746,0.0,-1.5107,-1.5381,-1.541,-1.5381,0.0,0.0,0.0,0.0,0.0,0.0,0.0,0.0,0.0,0.0,0.0,0.0,0.0,0.0,0.0,0.0,-1.2101,-1.2101,-1.2329,-1.2788,-1.2837,-1.3399,-1.4466,-1.488,-1.488,-1.4443,-1.4443,-1.4163,-1.3658,-1.3658,-1.3338,-1.2885,-1.3386,-1.3338,-1.2957,-1.3457,-1.3362,-1.2957,-1.2885,-1.2564,-1.2101,-1.1803,-1.1892,-1.2078,-1.1489,-1.1516,-1.1704,-1.1379,-1.1301,-1.1065,-0.9925,-0.9574,-0.9362,-0.8474,-0.8331,-0.8434,-0.8468,-0.849,-0.849,-0.8511,-0.8501,-0.8495,-0.8511,-0.8517,-0.8517,-0.8517,-0.7814,-0.7153,-0.6806,-0.5972,-0.5239,-0.4932,-0.4833,-0.4604,-0.4148,-0.4015,-0.3787,-0.3293,-0.3226,-0.3192,-0.3192,-0.3192,-0.3192,-0.3192,-0.2555,-0.2188,-0.2188,-0.148,-0.1109,-0.1109,-0.1109,-0.1108,-0.1106,-0.1108,-0.1107,-1.4337,-1.5395,-1.6217,-1.6256,-1.6879,-1.7145,-1.5894,-1.5583,-1.5454,-1.5006,-1.5059,-1.5176,0.0,0.0,-1.541,-1.541,-1.541,0.0,0.0,0.0,0.0,0.0,0.0,0.0,0.0,0.0,0.0,0.0,0.0,0.0,0.0,0.0,0.0,-1.2101,-1.2101,-1.22,-1.2353,-1.2652,-1.3006,-1.3399,-1.3931,-1.4059,-1.3905,-1.3905,-1.361,-1.3088,-1.3088,-1.2822,-1.2378,-1.2574,-1.2711,-1.2861,-1.3386,-1.3266,-1.2817,-1.3075,-1.2729,-1.2113,-1.2173,-1.2208,-1.2158,-1.1826,-1.1928,-1.2115,-1.1738,-1.1601,-1.1334,-0.9985,-0.9518,-0.9227,-0.825,-0.8023,-0.8086,-0.8263,-0.8317,-0.836,-0.8479,-0.8517,-0.8517,-0.8517,-0.8517,-0.8517,-0.8517,-0.7884,-0.7223,-0.6773,-0.5708,-0.4945,-0.4815,-0.422,-0.3859,-0.3995,-0.3694,-0.3426,-0.3226,-0.3192,-0.3192,-0.3192,-0.3192,-0.3192,-0.3192,-0.2755,-0.2421,-0.2188,-0.1681,-0.1311,-0.1109,-0.1109,-0.1109,-0.1109,-0.1109,-0.1109,-1.4161,-1.5278,-1.622,-1.615,-1.6917,-1.7529,-1.6881,-1.6522,-1.6161,-1.5594,-1.5449,-1.541,-1.541,0.0,0.0,0.0,0.0,0.0,0.0,0.0,0.0,0.0,0.0,0.0,0.0,0.0,0.0,0.0,0.0,0.0,0.0,0.0,0.0,0.0,-1.2101,-1.2101,-1.2101,-1.2427,-1.2589,-1.2589,-1.2963,-1.3204,-1.3348,-1.3348,-1.3074,-1.2589,-1.2589,-1.2403,-1.2101,-1.2101,-1.228,-1.2613,-1.2987,-1.2914,-1.2618,-1.2899,-1.2682,-1.2305,-1.2442,-1.2466,-1.236,-1.2227,-1.2292,-1.2346,-1.2062,-1.1909,-1.1517,-1.017,-0.959,-0.9141,-0.8056,-0.7761,-0.7852,-0.8137,-0.8207,-0.8247,-0.8463,-0.8517,-0.8517,-0.8517,-0.8317,-0.8182,-0.8182,-0.7391,-0.6601,-0.6174,-0.5117,-0.4353,-0.432,-0.3656,-0.3326,-0.3694,-0.3426,-0.3192,-0.3192,-0.3192,-0.3192,-0.3192,-0.3192,-0.3192,-0.3192,-0.2889,-0.2554,-0.2221,-0.1817,-0.1446,-0.1109,-0.1109,-0.1109,-0.1109,-0.1109,-0.1109,-1.4752,-1.4954,-1.5447,-1.722,-1.7134,-1.6698,-1.709,-1.6528,-1.5885,-1.574,-1.5546,-1.541,-1.541,-1.541,0.0,0.0,0.0,0.0,0.0,0.0,0.0,0.0,0.0,0.0,0.0,0.0,0.0,0.0,0.0,0.0,0.0,0.0,0.0,0.0,-1.2101,-1.2101,-1.2101,-1.2101,-1.2101,-1.2101,-1.2101,-1.2329,-1.2788,-1.2788,-1.254,-1.2101,-1.2101,-1.2101,-1.2101,-1.2101,-1.2101,-1.2101,-1.2101,-1.2101,-1.2101,-1.2101,-1.2358,-1.2689,-1.2559,-1.2636,-1.2776,-1.2638,-1.2536,-1.2398,-1.2389,-1.2105,-1.1567,-1.0489,-0.9802,-0.9099,-0.7836,-0.7599,-0.7794,-0.8124,-0.8207,-0.8247,-0.8463,-0.8517,-0.8517,-0.8517,-0.7954,-0.7489,-0.7489,-0.6174,-0.502,-0.4815,-0.4059,-0.3431,-0.3226,-0.3192,-0.3192,-0.3192,-0.3192,-0.3192,-0.3192,-0.3192,-0.3192,-0.3192,-0.3192,-0.3192,-0.3192,-0.2889,-0.2554,-0.2221,-0.1817,-0.1446,-0.1109,-0.1109,-0.1109,-0.1109,-0.1109,-0.1109,-1.4286,-1.4874,-1.5562,-1.6158,-1.6553,-1.6749,-1.6533,-1.6592,-1.6485,-1.5817,-1.5546,-1.541,-1.541,-1.541,0.0,0.0,0.0,0.0,0.0,0.0,0.0,0.0,0.0,0.0,0.0,0.0,0.0,0.0,0.0,0.0,0.0,0.0,0.0,0.0,-1.2101,-1.2101,-1.2101,-1.2101,-1.2101,-1.2101,-1.2101,-1.2166,-1.2304,-1.2304,-1.224,-1.2101,-1.2101,-1.2101,-1.2101,-1.2101,-1.2101,-1.2101,-1.2101,-1.2101,-1.2128,-1.2413,-1.2413,-1.2312,-1.2571,-1.2716,-1.2803,-1.2748,-1.2948,-1.3083,-1.2552,-1.2036,-1.1406,-1.0124,-0.932,-0.8626,-0.7729,-0.7469,-0.7516,-0.7849,-0.7933,-0.8016,-0.8425,-0.8517,-0.8517,-0.8517,-0.7954,-0.7489,-0.7489,-0.6235,-0.5147,-0.4848,-0.4189,-0.3594,-0.3259,-0.3192,-0.3192,-0.3192,-0.3192,-0.3192,-0.3192,-0.3192,-0.3192,-0.3192,-0.3192,-0.3192,-0.3192,-0.3092,-0.2889,-0.2554,-0.222,-0.185,-0.1446,-0.121,-0.1109,-0.1109,-0.1109,-0.1109,-1.4361,-1.4881,-1.5429,-1.571,-1.6051,-1.6266,-1.6126,-1.6287,-1.6343,0.0,-1.5546,-1.541,-1.541,-1.541,0.0,0.0,0.0,0.0,0.0,0.0,0.0,0.0,0.0,0.0,0.0,0.0,0.0,0.0,0.0,0.0,0.0,0.0,0.0,0.0,-1.2101,-1.2101,-1.2101,-1.2101,-1.2101,-1.2101,-1.2101,-1.2101,-1.2101,-1.2101,-1.2101,-1.2101,-1.2101,-1.2101,-1.2101,-1.2101,-1.2101,-1.2101,-1.2101,-1.2101,-1.2128,-1.2367,-1.2404,-1.2367,-1.2606,-1.267,-1.2608,-1.2759,-1.2819,-1.2763,-1.2483,-1.192,-1.1138,-1.0128,-0.9288,-0.8494,-0.7702,-0.744,-0.7438,-0.7598,-0.7731,-0.7903,-0.8285,-0.8447,-0.842,-0.8149,-0.7554,-0.6961,-0.6662,-0.5609,-0.4683,-0.4453,-0.3923,-0.3458,-0.3226,-0.3192,-0.3192,-0.3192,-0.3192,-0.3192,-0.3192,-0.3192,-0.3192,-0.3192,-0.3192,-0.3192,-0.3192,-0.3192,-0.3058,-0.272,-0.2388,-0.2018,-0.1614,-0.1277,-0.1109,-0.1109,-0.1109,-0.0975,-1.4775,-1.4928,-1.5128,-1.5717,-1.5649,-1.553,-1.5785,-1.5729,-1.5613,-1.5642,0.0,-1.5264,-1.5264,-1.5264,0.0,0.0,0.0,0.0,0.0,0.0,0.0,0.0,0.0,0.0,0.0,0.0,0.0,0.0,0.0,0.0,0.0,0.0,0.0,-1.2101,-1.2101,-1.2101,-1.2101,-1.2101,-1.2126,0.0,-1.2126,-1.2126,-1.2126,-1.2101,-1.2101,-1.2101,-1.2101,-1.2101,-1.2101,-1.2101,-1.2101,-1.2101,-1.2101,-1.2101,-1.2101,-1.2101,-1.233,-1.2634,-1.2634,-1.2472,-1.2334,-1.2617,-1.2331,-1.1926,-1.2197,-1.1628,-1.082,-1.0235,-0.9427,-0.854,-0.7702,-0.7494,-0.7469,-0.7393,-0.7583,-0.7865,-0.8128,-0.8307,-0.8214,-0.7624,-0.6863,-0.61,-0.5408,-0.4589,-0.3961,-0.3825,-0.346,-0.3226,-0.3192,-0.3192,-0.3192,-0.3192,-0.3192,-0.3192,-0.3192,-0.3192,-0.3192,-0.3192,-0.3192,-0.3192,-0.3192,-0.3192,-0.3058,-0.2753,-0.2388,-0.2018,-0.1648,-0.1277,-0.1109,-0.1109,-0.1042,-0.0773,-1.4787,-1.4787,-1.4893,-1.5444,-1.5697,-1.5726,-1.5546,-1.5252,-1.5016,-1.5129,-1.4731,-1.4377,-1.4377,0.0,0.0,0.0,0.0,0.0,0.0,0.0,0.0,0.0,0.0,0.0,0.0,0.0,0.0,0.0,0.0,0.0,0.0,0.0,0.0,-1.2101,-1.2101,-1.2101,-1.2101,-1.22,-1.2249,0.0,-1.2249,-1.2249,-1.2249,-1.215,-1.2101,-1.2101,-1.2101,-1.2101,-1.2101,-1.2101,-1.2101,-1.2101,-1.2101,-1.2101,-1.2101,-1.2101,-1.2156,-1.2204,-1.2104,-1.2134,-1.2228,-1.2175,-1.2206,-1.2144,-1.1491,-1.0875,-1.0193,-0.9332,-0.8619,-0.8002,-0.7601,-0.7494,-0.7451,-0.7204,-0.7488,-0.7865,-0.8128,-0.7953,-0.7657,-0.7521,-0.6429,-0.5474,-0.5342,-0.4725,-0.4131,-0.3859,-0.3596,-0.3362,-0.3226,-0.3192,-0.3192,-0.3192,-0.3192,-0.3192,-0.3192,-0.3192,-0.3192,-0.3192,-0.3192,-0.3192,-0.3192,-0.3192,-0.3159,-0.3092,-0.249,-0.2154,-0.2053,-0.1412,-0.1109,-0.1076,-0.0672,-0.0403,-1.4778,-1.4955,-1.5128,-1.5487,-1.5693,-1.573,-1.5449,-1.4894,-1.4473,-1.4555,-1.4324,-1.4104,0.0,0.0,0.0,0.0,0.0,0.0,0.0,0.0,0.0,0.0,0.0,0.0,0.0,0.0,0.0,0.0,0.0,0.0,0.0,-1.215,-1.22,-1.22,-1.2249,-1.2298,-1.2298,-1.2357,-1.2406,-1.2406,-1.2406,-1.2357,-1.2298,-1.215,-1.2101,-1.2101,-1.2101,-1.2101,-1.2101,-1.2101,-1.2101,-1.2101,-1.2101,-1.2101,-1.2101,-1.2026,-1.2002,-1.1977,-1.1852,-1.1861,-1.1928,-1.1799,-1.1861,-1.1815,-1.0957,-1.034,-0.9773,-0.9002,-0.8362,-0.7848,-0.7574,-0.7606,-0.7615,-0.7312,-0.7537,-0.7833,-0.7982,-0.7749,-0.7391,-0.7027,-0.6067,-0.5213,-0.4888,-0.4461,-0.403,-0.3694,-0.3563,-0.3431,-0.3226,-0.3192,-0.3192,-0.3192,-0.3192,-0.3192,-0.3192,-0.3192,-0.3192,-0.3192,-0.3192,-0.3192,-0.3192,-0.3192,-0.3192,-0.3192,-0.2688,-0.2354,-0.2188,-0.1614,-0.1244,-0.1076,-0.0538,-0.0168,-1.454,-1.4896,-1.5222,-1.561,-1.5701,-1.5672,-1.5478,-1.4746,-1.4104,-1.4104,-1.3997,0.0,0.0,0.0,0.0,0.0,0.0,0.0,0.0,0.0,0.0,0.0,0.0,0.0,0.0,0.0,0.0,0.0,0.0,0.0,-1.2002,-1.2076,-1.22,-1.2323,-1.2431,-1.248,-1.2505,-1.2529,-1.2529,-1.2529,-1.2505,-1.2431,-1.2298,-1.215,-1.2101,-1.2101,-1.2101,-1.2101,-1.2101,-1.2101,-1.2101,-1.2101,-1.2101,-1.2101,-1.2076,-1.1952,-1.1902,-1.1877,-1.1728,-1.1678,-1.1653,-1.1502,-1.1477,-1.1318,-1.0498,-0.9958,-0.9458,-0.883,-0.8289,-0.7848,-0.7601,-0.7703,-0.7835,-0.753,-0.7661,-0.786,-0.786,-0.7568,-0.7125,-0.6531,-0.5708,-0.4951,-0.4398,-0.4164,-0.393,-0.3629,-0.3598,-0.3498,-0.3295,-0.3261,-0.3228,-0.3192,-0.3192,-0.3192,-0.3192,-0.3192,-0.3192,-0.3192,-0.3192,-0.3192,-0.3192,-0.3192,-0.3192,-0.3192,-0.2855,-0.2554,-0.2287,-0.1816,-0.1412,-0.1042,-0.0437,0.0134,-1.3678,-1.3861,-1.4369,-1.5432,-1.5701,-1.5701,0.0,0.0,-1.4104,0.0,-1.3555,0.0,0.0,0.0,0.0,0.0,0.0,0.0,0.0,0.0,0.0,0.0,0.0,0.0,0.0,0.0,0.0,0.0,0.0,0.0,-1.1544,-1.1502,-1.1744,-1.2446,-1.2382,-1.2382,-1.2505,-1.2627,-1.2676,-1.2676,-1.2554,-1.2431,-1.2298,-1.215,-1.2101,-1.2101,-1.2101,-1.2101,-1.2101,-1.2101,-1.2101,-1.2101,-1.2101,-1.2101,-1.2076,-1.1952,-1.1902,-1.1852,-1.1619,-1.1528,-1.1502,-1.1368,-1.1326,-1.1116,-1.0028,-0.9666,-0.938,-0.8315,-0.7955,-0.7869,-0.7702,-0.778,-0.7864,-0.77,-0.7898,-0.8133,-0.8133,-0.7318,-0.6531,-0.6433,-0.5352,-0.4398,-0.43,-0.4267,-0.4197,-0.3961,-0.3928,-0.3828,-0.3498,-0.3464,-0.3395,-0.3226,-0.3192,-0.3192,-0.3192,-0.3192,-0.3192,-0.3192,-0.3192,-0.3192,-0.3192,-0.3192,-0.3192,-0.3192,-0.2855,-0.2686,-0.2619,-0.195,-0.1344,-0.0807,0.0,0.0672,-1.4438,-1.5078,-1.5767,-1.5781,-1.5827,-1.5798,-1.5711,-1.5064,-1.4382,-1.4015,0.0,0.0,0.0,0.0,0.0,0.0,0.0,0.0,0.0,0.0,0.0,0.0,0.0,0.0,0.0,0.0,0.0,0.0,0.0,-1.0728,-1.1469,-1.1494,-1.1819,-1.2578,-1.2627,-1.2652,-1.2725,-1.2783,-1.2808,-1.2808,-1.2676,-1.2578,-1.2529,-1.2382,-1.2249,-1.2101,-1.2101,-1.2101,-1.2101,-1.2101,-1.2101,-1.2101,-1.2101,-1.2101,-1.2076,-1.1952,-1.1852,-1.1753,-1.1578,-1.1502,-1.1477,-1.1352,-1.1343,-1.1192,-0.9976,-0.9588,-0.9354,-0.8215,-0.7901,-0.7904,-0.7917,-0.809,-0.8201,-0.8114,-0.8323,-0.8413,-0.7899,-0.7062,-0.617,-0.5385,-0.4728,-0.43,-0.43,-0.43,-0.4233,-0.4028,-0.3995,-0.3894,-0.3531,-0.3498,-0.3431,-0.3226,-0.3192,-0.3192,-0.3192,-0.3192,-0.3192,-0.3192,-0.3192,-0.3192,-0.3192,-0.3192,-0.3192,-0.3192,-0.3058,-0.2889,-0.2686,-0.1848,-0.121,-0.0773,0.0403,0.1076,-1.4923,-1.5754,-1.6364,-1.6183,-1.5994,-1.5857,0.0,0.0,-1.4617,0.0,0.0,0.0,0.0,0.0,0.0,0.0,0.0,0.0,0.0,0.0,0.0,0.0,0.0,0.0,0.0,0.0,0.0,0.0,0.0,-1.0354,-1.1082,-1.1309,-1.176,-1.2529,-1.2735,-1.2856,-1.2905,-1.2905,-1.2905,-1.2905,-1.2759,-1.27,-1.27,-1.2529,-1.2348,-1.215,-1.215,-1.2126,-1.2101,-1.2101,-1.2101,-1.2101,-1.2101,-1.2101,-1.2076,-1.1952,-1.1828,-1.1678,-1.1553,-1.1477,-1.1444,-1.1438,-1.149,-1.1353,-1.0204,-0.9863,-0.9623,-0.8421,-0.8099,-0.812,-0.8232,-0.8416,-0.8567,-0.8488,-0.8624,-0.8506,-0.7456,-0.6629,-0.5774,-0.4531,-0.43,-0.43,-0.43,-0.43,-0.4233,-0.4097,-0.4064,-0.3964,-0.3629,-0.3563,-0.3496,-0.3226,-0.3192,-0.3192,-0.3192,-0.3192,-0.3192,-0.3192,-0.3192,-0.3192,-0.3192,-0.3192,-0.3192,-0.3192,-0.3192,-0.3092,-0.282,-0.1848,-0.1143,-0.0705,0.0638,0.1344,-1.4272,-1.4414,-1.4584,-1.6313,-1.6245,-1.5869,0.0,0.0,0.0,0.0,0.0,0.0,0.0,0.0,0.0,0.0,0.0,0.0,0.0,0.0,0.0,0.0,0.0,0.0,0.0,0.0,0.0,0.0,0.0,-0.9361,-1.0046,-1.0558,-1.1234,-1.2101,-1.2505,-1.2774,-1.2905,-1.2905,-1.2905,-1.2905,-1.2759,-1.27,-1.27,-1.2431,-1.2298,-1.2283,-1.2283,-1.2224,-1.2101,-1.2101,-1.2101,-1.2101,-1.2101,-1.2101,-1.2076,-1.1952,-1.1828,-1.1678,-1.1553,-1.1427,-1.1361,-1.1669,-1.1789,-1.1636,-1.0806,-1.0536,-1.0279,-0.9011,-0.8668,-0.8674,-0.8657,-0.8765,-0.8813,-0.8646,-0.8687,-0.8371,-0.6793,-0.587,-0.5147,-0.4431,-0.43,-0.43,-0.43,-0.43,-0.43,-0.43,-0.43,-0.4164,-0.3825,-0.3792,-0.3625,-0.3226,-0.3192,-0.3192,-0.3192,-0.3192,-0.3192,-0.3192,-0.3192,-0.3192,-0.3192,-0.3192,-0.3192,-0.3192,-0.3192,-0.3192,-0.3159,-0.2118,-0.1209,-0.0503,0.0604,0.148,-1.4246,-1.4665,-1.5302,-1.5887,-1.5714,-1.5517,-1.6035,-1.5362,-1.4434,0.0,0.0,0.0,0.0,0.0,0.0,0.0,0.0,0.0,0.0,0.0,0.0,0.0,0.0,0.0,0.0,0.0,0.0,0.0,0.0,0.0,-0.9969,-1.0601,-1.1292,-1.2076,-1.2578,-1.2856,-1.2905,-1.2905,-1.2905,-1.2905,-1.2856,-1.2832,-1.2832,-1.2735,-1.2603,-1.2431,-1.2431,-1.2298,-1.2101,-1.2101,-1.2101,-1.2101,-1.2101,-1.2101,-1.2101,-1.2051,-1.1952,-1.1803,-1.1669,-1.1553,-1.1463,-1.1713,-1.1514,-1.1088,-1.0718,-1.0301,-0.9782,-0.8938,-0.871,-0.8746,-0.8915,-0.8998,-0.8989,-0.8877,-0.8404,-0.7684,-0.6629,-0.5481,-0.4595,-0.4334,-0.43,-0.43,-0.43,-0.43,-0.43,-0.43,-0.43,-0.4197,-0.3961,-0.3928,-0.3828,-0.3625,-0.3591,-0.3527,-0.3395,-0.3395,-0.3328,-0.3192,-0.3192,-0.3192,-0.3192,-0.3192,-0.3192,-0.3192,-0.3192,-0.2989,-0.2551,-0.1578,-0.0706,0.0034,0.1109,0.1749,-1.4168,-1.4594,-1.5291,0.0,-1.5426,-1.5246,-1.5982,0.0,-1.4451,0.0,0.0,0.0,0.0,0.0,0.0,0.0,0.0,0.0,0.0,0.0,0.0,0.0,0.0,0.0,0.0,0.0,0.0,0.0,0.0,0.0,-0.9788,-1.0423,-1.1191,-1.2076,-1.2627,-1.2905,-1.2905,-1.2905,-1.2905,-1.2905,-1.2905,-1.2905,-1.2905,-1.2856,-1.2735,-1.2554,-1.248,-1.2308,-1.2101,-1.2101,-1.2101,-1.2101,-1.2101,-1.2101,-1.2101,-1.2101,-1.2026,-1.1902,-1.1803,-1.1653,-1.1556,-1.1938,-1.1581,-1.1005,-1.0915,-1.0436,-0.9787,-0.9162,-0.8981,-0.9017,-0.9191,-0.9202,-0.915,-0.9041,-0.8269,-0.7419,-0.6892,-0.5646,-0.4561,-0.4334,-0.43,-0.43,-0.43,-0.43,-0.43,-0.43,-0.43,-0.4233,-0.4028,-0.3995,-0.3961,-0.3825,-0.3792,-0.3727,-0.3531,-0.3498,-0.3431,-0.3226,-0.3192,-0.3192,-0.3192,-0.3192,-0.3192,-0.3192,-0.3192,-0.2755,-0.1812,-0.1209,-0.0605,-0.0034,0.121,0.1884,0.0,0.0,0.0,0.0,0.0,0.0,-1.6309,0.0,-1.4695,0.0,0.0,0.0,0.0,0.0,0.0,0.0,0.0,0.0,0.0,0.0,0.0,0.0,0.0,0.0,0.0,0.0,0.0,0.0,0.0,-0.9263,-0.9387,-1.0061,-1.0939,-1.2051,-1.2627,-1.2905,-1.2905,-1.2905,-1.2905,-1.2905,-1.2905,-1.2905,-1.2905,-1.2783,-1.27,-1.2686,-1.2431,-1.2224,-1.2101,-1.2101,-1.2101,-1.2101,-1.2101,-1.2101,-1.2101,-1.2101,-1.2026,-1.1902,-1.1902,-1.1728,-1.1625,-1.2366,-1.2039,-1.1399,-1.1471,-1.1031,-1.0333,-0.967,-0.9516,-0.9516,-0.9516,-0.9408,-0.9242,-0.9049,-0.8361,-0.7674,-0.7554,-0.6363,-0.5147,-0.4464,-0.4334,-0.4334,-0.43,-0.43,-0.43,-0.43,-0.43,-0.4233,-0.4028,-0.3995,-0.3961,-0.3825,-0.3825,-0.3727,-0.3531,-0.3498,-0.3431,-0.3226,-0.3192,-0.3192,-0.3192,-0.3192,-0.3192,-0.3192,-0.3192,-0.252,-0.1143,-0.1109,-0.0975,-0.0706,0.0874,0.1817,-1.4337,0.0,0.0,0.0,0.0,0.0,0.0,0.0,0.0,0.0,0.0,0.0,0.0,0.0,0.0,0.0,0.0,0.0,0.0,0.0,0.0,0.0,0.0,0.0,0.0,0.0,0.0,0.0,-0.9387,-0.9465,-0.9413,-1.0413,-1.1309,-1.2076,-1.2627,-1.2905,-1.2905,-1.2905,-1.2905,-1.2905,-1.2905,-1.2905,-1.2905,-1.2856,-1.2774,-1.27,-1.2529,-1.2382,-1.2249,-1.215,-1.2101,-1.2101,-1.2101,-1.2101,-1.2101,-1.2101,-1.2076,-1.2026,-1.1927,-1.1852,-1.1878,-1.242,-1.178,-1.0905,-1.1349,-1.0685,-0.9734,-0.9548,-0.9516,-0.9516,-0.9516,-0.9408,-0.9274,-0.9242,-0.8856,-0.8339,-0.7777,-0.7251,-0.6531,-0.5279,-0.5017,-0.4855,-0.4398,-0.43,-0.43,-0.43,-0.43,-0.4267,-0.4233,-0.4233,-0.4197,-0.4164,-0.4164,-0.4064,-0.3863,-0.3761,-0.3627,-0.3431,-0.3295,-0.3192,-0.3192,-0.3192,-0.3192,-0.3192,-0.3192,-0.2755,-0.1812,-0.1344,-0.0538,0.0605,0.1277,0.1748,-1.5703,-1.5896,-1.634,0.0,0.0,0.0,0.0,-1.5013,0.0,0.0,0.0,0.0,0.0,0.0,0.0,0.0,0.0,0.0,0.0,0.0,0.0,0.0,0.0,0.0,0.0,0.0,0.0,-0.9283,-0.9439,-0.9517,-0.9491,-1.0566,-1.136,-1.1719,-1.2505,-1.2905,-1.2905,-1.2905,-1.2905,-1.2905,-1.2905,-1.2905,-1.2905,-1.2905,-1.2856,-1.2774,-1.2578,-1.2455,-1.2382,-1.2175,-1.2101,-1.2101,-1.2101,-1.2101,-1.2101,-1.2101,-1.2101,-1.2076,-1.2002,-1.1952,-1.1977,-1.2369,-1.1657,-1.071,-1.1225,-1.0504,-0.9516,-0.9516,-0.9516,-0.9516,-0.9516,-0.9446,-0.9376,-0.9306,-0.9081,-0.8765,-0.8269,-0.8047,-0.7489,-0.6034,-0.5507,-0.518,-0.4788,-0.4495,-0.43,-0.43,-0.43,-0.43,-0.43,-0.43,-0.43,-0.43,-0.43,-0.4233,-0.4028,-0.3892,-0.3727,-0.3498,-0.3295,-0.3192,-0.3192,-0.3192,-0.3192,-0.3192,-0.3192,-0.2686,-0.1678,-0.1276,-0.0302,0.1176,0.148,0.1715,-1.7648,-1.7046,-1.6588,-1.7406,-1.6955,0.0,-1.588,-1.5303,-1.4713,0.0,0.0,0.0,0.0,0.0,0.0,0.0,0.0,0.0,0.0,0.0,0.0,0.0,0.0,0.0,-0.9919,-0.9654,-0.9449,-0.9413,-0.9413,-0.9484,-0.9588,-1.0609,-1.12,-1.12,-1.2323,-1.2905,-1.2905,-1.2905,-1.2905,-1.2905,-1.2905,-1.2905,-1.2905,-1.2905,-1.2905,-1.2881,-1.2627,-1.2505,-1.248,-1.2224,-1.2101,-1.2101,-1.2101,-1.2101,-1.2101,-1.2101,-1.2101,-1.2101,-1.2101,-1.2026,-1.1966,-1.2234,-1.1549,-1.0674,-1.1012,-1.0369,-0.9516,-0.9516,-0.9516,-0.9516,-0.9516,-0.9516,-0.9478,-0.9344,-0.9177,-0.899,-0.8861,-0.8673,-0.8149,-0.6892,-0.6034,-0.5507,-0.5342,-0.4821,-0.4398,-0.43,-0.43,-0.43,-0.43,-0.43,-0.43,-0.43,-0.43,-0.4233,-0.4061,-0.3892,-0.3761,-0.3565,-0.3362,-0.3228,-0.3228,-0.3226,-0.3192,-0.3192,-0.3058,-0.2351,-0.1109,-0.1008,-0.0202,0.1277,0.148,0.1681,-1.901,-1.9751,-2.0265,-1.8186,0.0,0.0,-1.6751,-1.5779,-1.5148,0.0,0.0,0.0,0.0,0.0,0.0,0.0,0.0,0.0,0.0,0.0,0.0,0.0,0.0,0.0,-1.0064,-0.9991,-0.9846,-0.9584,-0.9562,-0.9562,-0.9588,-1.0609,-1.12,-1.12,-1.2323,-1.2905,-1.2905,-1.2905,-1.2905,-1.2905,-1.2905,-1.2905,-1.2905,-1.2905,-1.2905,-1.2881,-1.2725,-1.2603,-1.248,-1.2332,-1.22,-1.2101,-1.2101,-1.2101,-1.2101,-1.2101,-1.2101,-1.2101,-1.2101,-1.2076,-1.204,-1.1826,-1.1287,-1.0731,-1.0611,-1.0073,-0.9516,-0.9516,-0.9516,-0.9516,-0.9516,-0.9516,-0.9484,-0.9478,-0.9344,-0.9177,-0.899,-0.8829,-0.8608,-0.8182,-0.7521,-0.6695,-0.5507,-0.5176,-0.4918,-0.4367,-0.43,-0.43,-0.43,-0.43,-0.43,-0.43,-0.43,-0.43,-0.4233,-0.4064,-0.3928,-0.3894,-0.3596,-0.3431,-0.3431,-0.3295,-0.3192,-0.3192,-0.2083,-0.1378,-0.1109,-0.0504,0.0235,0.1143,0.1277,0.148,-2.0951,-2.1167,-2.1181,-2.0118,0.0,0.0,0.0,-1.6388,-1.5658,-1.5892,0.0,0.0,0.0,0.0,0.0,0.0,0.0,0.0,0.0,0.0,0.0,0.0,0.0,0.0,-1.0587,-1.0441,-1.0179,-0.9778,-0.9657,-0.9562,-0.9517,-1.0584,-1.12,-1.12,-1.2323,-1.2905,-1.2905,-1.2905,-1.2905,-1.2905,-1.2905,-1.2905,-1.2905,-1.2905,-1.2905,-1.2881,-1.2759,-1.2627,-1.248,-1.2357,-1.2224,-1.2101,-1.2101,-1.2101,-1.2101,-1.2101,-1.2101,-1.2101,-1.2101,-1.2101,-1.2029,-1.1584,-1.111,-1.0624,-1.0136,-0.968,-0.9336,-0.9474,-0.9516,-0.9516,-0.9516,-0.9516,-0.9516,-0.9516,-0.9408,-0.9274,-0.9177,-0.8958,-0.877,-0.8673,-0.8279,-0.7652,-0.6597,-0.61,-0.5609,-0.4921,-0.4788,-0.4691,-0.4334,-0.43,-0.43,-0.43,-0.43,-0.43,-0.43,-0.4131,-0.3995,-0.3995,-0.3696,-0.3498,-0.3498,-0.3295,-0.3192,-0.3192,-0.2182,-0.1478,-0.1109,-0.037,0.037,0.1109,0.1244,0.1412,0.0,0.0,0.0,0.0,0.0,-1.9559,0.0,0.0,0.0,-1.6394,0.0,0.0,0.0,0.0,0.0,0.0,0.0,0.0,0.0,0.0,0.0,0.0,0.0,0.0,0.0,-1.0806,-1.0449,-1.0055,-0.9812,-0.9709,-0.9683,-1.065,-1.1259,-1.1385,-1.2372,-1.2905,-1.2905,-1.2905,-1.2905,-1.2905,-1.2905,-1.2905,-1.2905,-1.2905,-1.2905,-1.2881,-1.2783,-1.2652,-1.2529,-1.2431,-1.2274,-1.215,-1.2101,-1.2101,-1.2101,-1.2101,-1.2101,-1.2101,-1.2101,-1.2101,-1.2002,-1.1469,-1.0904,-1.0334,-0.9812,-0.9418,-0.918,-0.9372,-0.9474,-0.9516,-0.9516,-0.9516,-0.9516,-0.9516,-0.9414,-0.9338,-0.9306,-0.9055,-0.8835,-0.8802,-0.8641,-0.8284,-0.7624,-0.6994,-0.6301,-0.5441,-0.5309,-0.5047,-0.4398,-0.43,-0.43,-0.43,-0.43,-0.43,-0.43,-0.4164,-0.4061,-0.4061,-0.3763,-0.3598,-0.3563,-0.3328,-0.3192,-0.3192,-0.2551,-0.1846,-0.1109,-0.037,0.037,0.1109,0.121,0.1379,0.0,0.0,0.0,0.0,-2.088,0.0,0.0,0.0,-1.7106,-1.6592,0.0,0.0,0.0,0.0,0.0,0.0,0.0,0.0,0.0,0.0,0.0,0.0,0.0,0.0,0.0,-1.0806,-1.0572,-1.0507,-1.0228,-1.0228,-1.0696,-1.1045,-1.146,-1.1968,-1.2578,-1.2905,-1.2905,-1.2905,-1.2905,-1.2905,-1.2905,-1.2905,-1.2905,-1.2905,-1.2905,-1.2905,-1.2881,-1.2808,-1.2676,-1.2652,-1.2505,-1.2283,-1.215,-1.2101,-1.2101,-1.2101,-1.2101,-1.2101,-1.2101,-1.2101,-1.2002,-1.1469,-1.0651,-0.9873,-0.9789,-0.9587,-0.934,-0.9205,-0.9324,-0.9516,-0.9516,-0.9516,-0.9516,-0.9516,-0.9484,-0.9446,-0.9338,-0.9145,-0.8958,-0.8835,-0.8641,-0.8284,-0.7624,-0.7423,-0.6896,-0.5507,-0.5309,-0.5047,-0.4398,-0.43,-0.43,-0.43,-0.43,-0.43,-0.43,-0.4267,-0.4267,-0.4267,-0.4064,-0.3894,-0.3758,-0.3393,-0.3192,-0.3192,-0.2551,-0.1846,-0.1109,-0.037,0.037,0.1109,0.1109,0.1277,0.0,0.0,0.0,0.0,0.0,0.0,-1.9244,0.0,-1.7815,0.0,0.0,0.0,0.0,0.0,0.0,0.0,0.0,0.0,0.0,0.0,0.0,0.0,0.0,0.0,0.0,0.0,0.0,0.0,0.0,-1.024,-1.0869,-1.1126,-1.1558,-1.2211,-1.2504,-1.2686,-1.2686,-1.2686,-1.271,-1.2783,-1.2783,-1.2783,-1.2783,-1.2856,-1.2856,-1.2783,-1.2856,-1.2783,-1.2578,-1.2578,-1.248,-1.2283,-1.215,-1.2101,-1.2101,-1.2101,-1.2101,-1.2101,-1.2101,-1.2101,-1.2002,-1.1469,-1.0722,-1.0113,-1.0503,-1.005,-0.9489,-0.9956,-0.97,-0.9312,-0.9474,-0.9516,-0.9516,-0.9516,-0.9516,-0.9484,-0.9414,-0.928,-0.9113,-0.8958,-0.877,-0.8544,-0.8149,-0.8084,-0.7754,-0.6728,-0.6199,-0.5672,-0.4987,-0.4528,-0.43,-0.43,-0.43,-0.43,-0.43,-0.43,-0.43,-0.43,-0.4097,-0.3894,-0.3629,-0.3462,-0.3328,-0.3192,-0.2116,-0.1411,-0.1109,0.0067,0.0806,0.1109,0.1109,0.1277,-2.2177,0.0,0.0,0.0,0.0,0.0,0.0,0.0,0.0,0.0,0.0,0.0,0.0,0.0,0.0,0.0,0.0,0.0,0.0,0.0,0.0,0.0,0.0,0.0,0.0,0.0,0.0,0.0,0.0,0.0,-1.1021,-1.1382,-1.1771,-1.2245,-1.2404,-1.2505,-1.2505,-1.2529,-1.2603,-1.27,-1.27,-1.27,-1.27,-1.2759,-1.2735,-1.2652,-1.2759,-1.2676,-1.2505,-1.2505,-1.2431,-1.2298,-1.22,-1.2126,-1.2101,-1.2101,-1.2101,-1.2101,-1.2101,-1.2101,-1.2051,-1.1653,-1.1057,-1.0593,-1.1146,-1.0665,-1.0038,-1.0772,-1.0431,-0.9829,-0.9774,-0.9766,-0.9734,-0.9548,-0.9516,-0.9516,-0.9516,-0.9408,-0.9274,-0.9113,-0.8958,-0.8802,-0.8673,-0.8549,-0.8284,-0.7591,-0.6859,-0.6133,-0.5408,-0.4725,-0.43,-0.43,-0.43,-0.43,-0.43,-0.43,-0.43,-0.43,-0.4097,-0.3894,-0.3663,-0.3565,-0.3431,-0.3295,-0.2218,-0.1479,-0.1109,-0.0034,0.0706,0.1109,0.1109,0.1277,0.0,0.0,0.0,-2.0493,0.0,0.0,0.0,0.0,-1.8726,0.0,0.0,0.0,0.0,0.0,0.0,0.0,0.0,0.0,0.0,0.0,0.0,0.0,0.0,0.0,0.0,0.0,0.0,0.0,0.0,0.0,-1.1375,-1.1936,-1.2219,-1.2114,-1.2362,-1.2505,-1.2505,-1.2627,-1.27,-1.27,-1.27,-1.27,-1.27,-1.2578,-1.2505,-1.2505,-1.2505,-1.2505,-1.2505,-1.2505,-1.2431,-1.2298,-1.2298,-1.22,-1.2101,-1.2101,-1.2101,-1.2101,-1.2101,-1.2101,-1.2101,-1.2076,-1.1694,-1.1319,-1.1529,-1.1393,-1.1166,-1.1351,-1.1548,-1.1509,-1.0692,-1.0485,-1.0301,-0.9638,-0.9516,-0.9516,-0.9516,-0.9408,-0.9306,-0.9306,-0.9145,-0.8985,-0.8985,-0.87,-0.8284,-0.7591,-0.6859,-0.6133,-0.5408,-0.4725,-0.43,-0.43,-0.43,-0.43,-0.43,-0.43,-0.43,-0.43,-0.4097,-0.3995,-0.3995,-0.3665,-0.3498,-0.3498,-0.3261,-0.2453,-0.1109,-0.1042,-0.0302,0.1109,0.1109,0.1277,0.0,0.0,-2.0659,-2.0509,0.0,0.0,0.0,0.0,0.0,0.0,0.0,0.0,0.0,0.0,0.0,0.0,0.0,0.0,0.0,0.0,0.0,0.0,0.0,0.0,0.0,0.0,0.0,0.0,-1.1829,0.0,0.0,-1.2679,-1.2708,-1.3022,-1.2679,-1.2455,-1.2382,-1.2505,-1.2603,-1.27,-1.27,-1.2652,-1.2578,-1.27,-1.2627,-1.2382,-1.2554,-1.2529,-1.2382,-1.2382,-1.2348,-1.2298,-1.22,-1.22,-1.2224,-1.2126,-1.2101,-1.2101,-1.2101,-1.2101,-1.2101,-1.2101,-1.1977,-1.1899,-1.2225,-1.1739,-1.1233,-1.1979,-1.1674,-1.1175,-1.1329,-1.0944,-1.0453,-1.0238,-0.983,-0.9516,-0.9516,-0.9446,-0.9408,-0.9306,-0.9242,-0.9145,-0.9017,-0.8894,-0.8732,-0.8409,-0.7652,-0.6863,-0.6133,-0.5411,-0.4788,-0.4334,-0.43,-0.43,-0.43,-0.43,-0.43,-0.43,-0.4233,-0.4131,-0.3995,-0.3794,-0.3627,-0.3498,-0.2855,-0.2048,-0.1109,-0.0605,0.0134,0.1109,0.1109,0.121,-2.0596,-2.0496,0.0,-2.0447,-2.0309,0.0,-2.0344,0.0,0.0,0.0,0.0,0.0,0.0,0.0,0.0,0.0,0.0,0.0,0.0,0.0,0.0,0.0,0.0,0.0,0.0,0.0,-1.244,-1.231,0.0,0.0,0.0,0.0,-1.3068,-1.3141,-1.2677,-1.2382,-1.2298,-1.2421,-1.2578,-1.27,-1.27,-1.2652,-1.2578,-1.27,-1.2627,-1.2382,-1.2554,-1.2529,-1.2382,-1.2323,-1.2298,-1.2283,-1.215,-1.215,-1.2224,-1.2126,-1.2101,-1.2101,-1.2101,-1.2101,-1.2101,-1.2101,-1.2101,-1.2174,-1.2569,-1.2188,-1.1766,-1.253,-1.2186,-1.1643,-1.1887,-1.1516,-1.106,-1.0885,-1.0326,-0.9862,-0.9862,-0.967,-0.9484,-0.9376,-0.9376,-0.9344,-0.9183,-0.9145,-0.9055,-0.8835,-0.8112,-0.7288,-0.6498,-0.5771,-0.505,-0.4367,-0.43,-0.43,-0.43,-0.43,-0.43,-0.43,-0.43,-0.4233,-0.4097,-0.3961,-0.3794,-0.3596,-0.2989,-0.2149,-0.1109,-0.0638,0.0134,0.1109,0.1109,0.1143]},{"header":{"parameterUnit":"m.s-1","parameterCategory":1,"la1":30.6,"la2":29.2853,"lo1":-89.7004,"lo2":-87.6739,"dy":0.0162,"dx":0.0183,"nx":112,"ny":82,"refTime":"2024-07-24T06:00:00:Z","depth":0,"parameterNumber":3,"parameterNumberName":"V-component_of_WINDS"},"data":[0.0,0.0,0.0,0.0,0.0,0.0,0.0,0.0,0.0,0.0,0.0,0.0,0.0,0.0,0.0,0.0,0.0,0.0,0.0,0.0,0.0,0.0,0.0,0.0,0.0,0.0,0.0,0.0,0.0,0.0,0.0,0.0,0.0,0.0,0.0,0.0,0.0,0.0,0.0,0.0,0.0,0.0,0.0,0.0,0.0,0.0,0.0,0.0,0.0,0.0,0.0,0.0,0.0,0.0,0.0,0.0,0.0,0.0,0.0,0.0,0.0,0.0,0.0,0.0,0.0,0.0,0.0,0.0,0.0,0.0,0.0,0.0,0.0,0.0,0.0,0.0,0.0,0.0,0.0,0.0,0.0,0.0,0.0,0.0,0.0,0.0,0.0,0.0,0.0,0.0,1.4352,1.4813,1.4844,1.5017,1.5468,1.5468,1.4748,1.3173,0.0,0.0,0.0,0.0,0.0,0.0,0.0,0.0,0.0,0.0,0.0,0.0,0.0,0.0,0.0,0.0,0.0,0.0,0.0,0.0,0.0,0.0,0.0,0.0,0.0,0.0,0.0,0.0,0.0,0.0,0.0,0.0,0.0,0.0,0.0,0.0,0.0,0.0,0.0,0.0,0.0,0.0,0.0,0.0,0.0,0.0,0.0,0.0,0.0,0.0,0.0,0.0,0.0,0.0,0.0,0.0,0.0,0.0,0.0,0.0,0.0,0.0,0.0,0.0,0.0,0.0,0.0,0.0,0.0,0.0,0.0,0.0,0.0,0.0,0.0,0.0,0.0,0.0,0.0,0.0,0.0,0.0,0.0,0.0,0.0,0.0,0.0,0.0,0.0,0.0,0.0,0.0,0.0,0.0,0.0,0.0,0.0,0.0,0.0,0.0,0.0,0.0,0.0,0.0,1.427,1.4688,1.513,1.5401,1.5491,1.5289,1.4528,1.3016,0.0,0.0,0.0,0.0,0.0,0.0,0.0,0.0,0.0,0.0,0.0,0.0,0.0,0.0,0.0,0.0,0.0,0.0,0.0,0.0,0.0,0.0,0.0,0.0,0.0,0.0,0.0,0.0,0.0,0.0,0.0,0.0,0.0,0.0,0.0,0.0,0.0,0.0,0.0,0.0,0.0,0.0,0.0,0.0,0.0,0.0,0.0,0.0,0.0,0.0,0.0,0.0,0.0,0.0,0.0,0.0,0.0,0.0,0.0,0.0,0.0,0.0,0.0,0.0,0.0,0.0,0.0,0.0,0.0,0.0,0.0,0.0,0.0,0.0,0.0,0.0,0.0,0.0,0.0,0.0,0.0,0.0,0.0,0.0,0.0,0.0,0.0,0.0,0.0,0.0,0.0,0.0,0.0,0.0,0.0,0.0,0.0,0.0,0.0,0.0,0.0,0.0,0.0,1.4605,1.4535,1.4869,1.5266,1.5446,1.5311,1.5176,1.435,1.2627,1.2457,0.0,0.0,0.0,0.0,0.0,0.0,0.0,0.0,0.0,0.0,0.0,0.0,0.0,0.0,0.0,0.0,0.0,0.0,0.0,0.0,0.0,0.0,0.0,0.0,0.0,0.0,0.0,0.0,0.0,0.0,0.0,0.0,0.0,0.0,0.0,0.0,0.0,0.0,0.0,0.0,0.0,0.0,0.0,0.0,0.0,0.0,0.0,0.0,0.0,0.0,0.0,0.0,0.0,0.0,0.0,0.0,0.0,0.0,0.0,0.0,0.0,0.0,0.0,0.0,0.0,0.0,0.0,0.0,0.0,0.0,0.0,0.0,0.0,0.0,0.0,0.0,0.0,0.0,0.0,0.0,0.0,0.0,0.0,0.0,0.0,0.0,0.0,0.0,0.0,0.0,0.0,0.0,0.0,0.0,0.0,0.0,0.0,0.0,0.0,0.0,0.0,0.0,1.4947,1.5128,1.5107,1.5289,1.5334,1.5108,1.4801,1.3916,1.2307,1.1875,0.0,0.0,0.0,0.0,0.0,0.0,0.0,0.0,0.0,0.0,0.0,0.0,0.0,0.0,0.0,0.0,0.0,0.0,0.0,0.0,0.0,0.0,0.0,0.0,0.0,0.0,0.0,0.0,0.0,0.0,0.0,0.0,0.0,0.0,0.0,0.0,0.0,0.0,0.0,0.0,0.0,0.0,0.0,0.0,0.0,0.0,0.0,0.0,0.0,0.0,0.0,0.0,0.0,0.0,0.0,0.0,0.0,0.0,0.0,0.0,0.0,0.0,0.0,0.0,0.0,0.0,0.0,0.0,0.0,0.0,0.0,0.0,0.0,0.0,0.0,0.0,0.0,0.0,0.0,0.0,0.0,0.0,0.0,0.0,0.0,0.0,0.0,0.0,0.0,0.0,0.0,0.0,0.0,0.0,0.0,0.0,0.0,0.0,0.0,0.0,0.0,0.0,1.5454,1.6061,1.5187,1.5108,1.5131,1.5108,1.389,1.2871,1.2243,1.1256,0.0,0.0,0.0,0.0,0.0,0.0,0.0,0.0,0.0,0.0,0.0,0.0,0.0,0.0,0.0,0.0,0.0,0.0,0.0,0.0,0.0,0.0,0.0,0.0,0.0,0.0,0.0,0.0,0.0,0.0,0.0,0.0,0.0,0.0,0.0,0.0,0.0,0.0,0.0,0.0,0.0,0.0,0.0,0.0,0.0,0.0,0.0,0.0,0.0,0.0,0.0,0.0,0.0,0.0,0.0,0.0,0.0,0.0,0.0,0.0,0.0,0.0,0.0,0.0,0.0,0.0,0.0,0.0,0.0,0.0,0.0,0.0,0.0,0.0,0.0,0.0,0.0,0.0,0.0,0.0,0.0,0.0,0.0,0.0,0.0,0.0,0.0,0.0,0.0,0.0,0.0,0.0,0.0,0.0,0.0,0.0,0.0,0.0,0.0,0.0,0.0,0.0,1.4999,1.5495,0.0,1.5356,1.5424,1.5131,1.4313,1.3348,1.2264,0.0,0.0,0.0,0.0,0.0,0.0,0.0,0.0,0.0,0.0,0.0,0.0,0.0,0.0,0.0,0.0,0.0,0.0,0.0,0.0,0.0,0.0,0.0,0.0,0.0,0.0,0.0,0.0,0.0,0.0,0.0,0.0,0.0,0.0,0.0,0.0,0.0,0.0,0.0,0.0,0.0,0.0,0.0,0.0,0.0,0.0,0.0,0.0,0.0,0.0,0.0,0.0,0.0,0.0,0.0,0.0,0.0,0.0,0.0,0.0,0.0,0.0,0.0,0.0,0.0,0.0,0.0,0.0,0.0,0.0,0.0,0.0,0.0,0.0,0.0,0.0,0.0,0.0,0.0,0.0,0.0,0.0,0.0,0.0,0.0,0.0,0.0,0.0,0.0,0.0,0.0,0.0,0.0,0.0,0.0,0.0,0.0,0.0,0.0,0.0,0.0,0.0,1.4118,1.4892,1.5341,0.0,1.5198,1.5244,1.4983,1.4124,1.3187,1.2286,0.0,0.0,0.0,0.0,0.0,0.0,0.0,0.0,0.0,0.0,0.0,0.0,0.0,0.0,0.0,0.0,0.0,0.0,0.0,0.0,0.0,0.0,0.0,0.0,0.0,0.0,0.0,0.0,0.0,0.0,0.0,0.0,0.0,0.0,0.0,0.0,0.0,0.0,0.0,0.0,0.0,0.0,0.0,0.0,0.0,0.0,0.0,0.0,0.0,0.0,0.0,0.0,0.0,0.0,0.0,0.0,0.0,0.0,0.0,0.0,0.0,0.0,0.0,0.0,0.0,0.0,0.0,0.0,0.0,0.0,0.0,0.0,0.0,0.0,0.0,0.0,0.0,0.0,0.0,0.0,0.0,0.0,0.0,0.0,0.0,0.0,0.0,0.0,0.0,0.0,0.0,0.0,0.0,0.0,0.0,0.0,0.0,0.0,0.0,0.0,0.0,0.0,1.4193,1.5323,1.5814,1.4823,1.4512,1.4478,1.4675,1.306,1.2104,0.0,0.0,0.0,0.0,0.0,0.0,0.0,0.0,0.0,0.0,0.0,0.0,0.0,0.0,0.0,0.0,0.0,0.0,0.0,0.0,0.0,0.0,0.0,0.0,0.0,0.0,0.0,0.0,0.0,0.0,0.0,0.0,0.0,0.0,0.0,0.0,0.0,0.0,0.0,0.0,0.0,0.0,0.0,0.0,0.0,0.0,0.0,0.0,0.0,0.0,0.0,0.0,0.0,0.0,0.0,0.0,0.0,0.0,0.0,0.0,0.0,0.0,0.0,0.0,0.0,0.0,0.0,0.0,0.0,0.0,0.0,0.0,0.0,0.0,0.0,0.0,0.0,0.0,0.0,0.0,0.0,0.0,0.0,0.0,0.0,0.0,0.0,0.0,0.0,0.0,0.0,0.0,0.0,0.0,0.0,0.0,0.0,0.0,0.0,0.0,0.0,0.0,0.0,1.4193,1.5323,1.5814,1.4823,1.4811,1.4778,1.4514,1.3641,1.2829,1.2136,0.0,0.0,0.0,0.0,0.0,0.0,0.0,0.0,0.0,0.0,0.0,0.0,0.0,0.0,0.0,0.0,0.0,0.0,0.0,0.0,0.0,0.0,0.0,0.0,0.0,0.0,0.0,0.0,0.0,0.0,0.0,0.0,0.0,0.0,0.0,0.0,0.0,0.0,0.0,0.0,0.0,0.0,0.0,0.0,0.0,0.0,0.0,0.0,0.0,0.0,0.0,0.0,0.0,0.0,0.0,0.0,0.0,0.0,0.0,0.0,0.0,0.0,0.0,0.0,0.0,0.0,0.0,0.0,0.0,0.0,0.0,0.0,0.0,0.0,0.0,0.0,0.0,0.0,0.0,0.0,0.0,0.0,0.0,0.0,0.0,0.0,0.0,0.0,0.0,0.0,0.0,0.0,0.0,0.0,0.0,0.0,0.0,0.0,0.0,0.0,0.0,0.0,1.4205,1.5248,1.5657,1.4674,1.472,1.4699,1.4396,1.3727,1.3061,1.2401,0.0,0.0,0.0,0.0,0.0,0.0,0.0,0.0,0.0,0.0,0.0,0.0,0.0,0.0,0.0,0.0,0.0,0.0,0.0,0.0,0.0,0.0,0.0,0.0,0.0,0.0,0.0,0.0,0.0,0.0,0.0,0.0,0.0,0.0,0.0,0.0,0.0,0.0,0.0,0.0,0.0,0.0,0.0,0.0,0.0,0.0,0.0,0.0,0.0,0.0,0.0,0.0,0.0,0.0,0.0,0.0,0.0,0.0,0.0,0.0,0.0,0.0,0.0,0.0,0.0,0.0,0.0,0.0,0.0,0.0,0.0,0.0,0.0,0.0,0.0,0.0,0.0,0.0,0.0,0.0,0.0,0.0,0.0,0.0,0.0,0.0,0.0,0.0,0.0,0.0,0.0,0.0,0.0,0.0,0.0,0.0,0.0,0.0,0.0,0.0,0.0,0.0,1.4205,1.5097,1.5433,1.4512,1.443,1.4382,1.4288,1.3471,1.2949,1.2877,0.0,0.0,0.0,0.0,0.0,0.0,0.0,0.0,0.0,0.0,0.0,0.0,0.0,0.0,0.0,0.0,0.0,0.0,0.0,0.0,0.0,0.0,0.0,0.0,0.0,0.0,0.0,0.0,0.0,0.0,0.0,0.0,0.0,0.0,0.0,0.0,0.0,0.0,0.0,0.0,0.0,0.0,0.0,0.0,0.0,0.0,0.0,0.0,0.0,0.0,0.0,0.0,0.0,0.0,0.0,0.0,0.0,0.0,0.0,0.0,1.2263,0.0,0.0,0.0,0.0,0.0,0.0,0.0,0.0,0.0,0.0,0.0,0.0,0.0,0.0,0.0,0.0,0.0,0.0,0.0,0.0,0.0,0.0,0.0,0.0,0.0,0.0,0.0,0.0,0.0,0.0,0.0,0.0,0.0,0.0,0.0,0.0,0.0,0.0,0.0,0.0,0.0,1.4205,1.5097,1.5433,1.4512,1.4546,1.4473,1.4114,1.3691,1.3233,1.2703,1.1703,0.0,0.0,0.0,0.0,0.0,0.0,0.0,0.0,0.0,0.0,0.0,0.0,0.0,0.0,0.0,0.0,0.0,0.0,0.0,0.0,0.0,0.0,0.0,0.0,0.0,0.0,0.0,0.0,0.0,0.0,0.0,0.0,0.0,0.0,0.0,0.0,0.0,0.0,0.0,0.0,0.0,0.0,0.0,0.0,0.0,0.0,0.0,0.0,0.0,0.0,0.0,0.0,0.0,0.0,0.0,0.0,0.0,0.0,0.0,0.0,1.2366,0.0,0.0,0.0,0.0,0.0,0.0,0.0,0.0,0.0,0.0,0.0,0.0,0.0,0.0,0.0,0.0,0.0,0.0,0.0,0.0,0.0,0.0,0.0,0.0,0.0,0.0,0.0,0.0,0.0,0.0,0.0,0.0,0.0,0.0,0.0,0.0,0.0,0.0,0.0,0.0,1.4533,1.5223,1.5534,1.4811,1.472,1.4552,1.4179,1.39,1.3535,1.305,1.2155,0.0,0.0,0.0,0.0,0.0,0.0,0.0,0.0,0.0,0.0,0.0,0.0,0.0,0.0,0.0,0.0,0.0,0.0,0.0,0.0,0.0,0.0,0.0,0.0,0.0,0.0,0.0,0.0,0.0,0.0,0.0,0.0,0.0,0.0,0.0,0.0,0.0,0.0,0.0,0.0,0.0,0.0,0.0,0.0,0.0,0.0,0.0,0.0,0.0,0.0,0.0,0.0,0.0,1.4894,1.5095,1.5145,1.4723,1.4648,1.4796,1.3785,1.3392,1.3426,0.0,0.0,0.0,0.0,0.0,0.0,0.0,0.0,0.0,0.0,0.0,0.0,0.0,0.0,0.0,0.0,0.0,0.0,0.0,0.0,0.0,0.0,0.0,0.0,0.0,1.7389,1.7681,0.0,0.0,0.0,0.0,0.0,0.0,0.0,0.0,0.0,0.0,0.0,0.0,1.5008,1.5507,1.5712,1.5153,1.4971,1.4778,1.4479,1.4157,1.3879,1.3643,1.2669,1.1846,0.0,0.0,0.0,0.0,0.0,0.0,0.0,0.0,0.0,0.0,0.0,0.0,0.0,0.0,0.0,0.0,0.0,0.0,0.0,0.0,0.0,0.0,0.0,0.0,0.0,0.0,0.0,0.0,0.0,0.0,0.0,0.0,1.6407,1.6714,0.0,0.0,0.0,0.0,0.0,0.0,0.0,0.0,0.0,0.0,0.0,0.0,0.0,1.5509,1.5636,1.6144,1.634,1.6196,1.6694,1.6944,1.6932,1.6423,1.6196,1.6238,1.6066,0.0,1.4349,1.4721,0.0,0.0,0.0,0.0,0.0,0.0,0.0,0.0,0.0,0.0,0.0,0.0,0.0,0.0,0.0,0.0,0.0,0.0,0.0,0.0,0.0,0.0,1.9734,1.9609,1.9238,1.8867,0.0,1.7416,1.6199,1.6117,0.0,0.0,0.0,0.0,0.0,0.0,0.0,0.0,1.5618,1.6023,1.6076,1.5198,1.5423,1.5488,1.5039,1.4544,1.4233,1.4192,1.2887,1.1988,1.1709,1.1594,0.0,0.0,0.0,0.0,0.0,0.0,0.0,0.0,0.0,0.0,0.0,0.0,0.0,0.0,0.0,0.0,0.0,0.0,0.0,0.0,0.0,0.0,0.0,0.0,0.0,0.0,0.0,0.0,0.0,1.5809,1.6913,1.6892,1.725,1.7221,0.0,0.0,0.0,0.0,0.0,0.0,0.0,0.0,0.0,1.6541,1.6447,1.6376,1.6364,1.6568,1.6709,1.6781,1.7036,1.7183,1.7295,1.7049,1.6787,1.6535,1.6819,1.6455,1.5629,1.5897,1.5472,1.4687,0.0,0.0,0.0,0.0,1.5756,1.6396,1.6543,1.6771,0.0,0.0,0.0,0.0,0.0,0.0,0.0,0.0,0.0,0.0,0.0,0.0,0.0,2.0103,1.9595,1.9101,1.9101,1.843,1.7728,0.0,1.7442,1.7339,1.6927,0.0,0.0,0.0,0.0,1.6831,1.6136,1.6309,1.6306,1.5758,1.5768,1.5668,1.5356,1.4948,1.4694,1.4694,1.3446,1.2626,1.2431,1.2042,1.1704,0.0,0.0,0.0,0.0,0.0,0.0,0.0,0.0,0.0,0.0,0.0,0.0,0.0,0.0,0.0,0.0,0.0,0.0,0.0,0.0,0.0,0.0,0.0,0.0,0.0,0.0,0.0,0.0,1.6927,1.784,1.7347,1.8126,1.8248,0.0,0.0,0.0,0.0,0.0,0.0,1.7446,1.7185,1.7203,1.7606,1.7433,1.7238,1.7032,1.7032,1.7022,1.7011,1.6983,1.706,1.7306,1.7239,1.7032,1.6732,1.7142,1.706,1.6705,1.6603,1.6348,1.5976,1.5898,1.6008,1.6241,1.6857,1.7456,1.8023,1.838,1.851,1.8444,1.7746,0.0,1.7758,1.7135,0.0,0.0,0.0,0.0,2.0598,2.0662,2.0497,2.0291,2.0132,1.9595,1.9101,1.9101,1.9232,1.9236,0.0,1.8642,1.847,1.8305,0.0,0.0,0.0,0.0,1.7274,1.6831,1.671,1.6586,1.6362,1.6207,1.602,1.5778,1.5386,1.5148,1.5148,1.4046,1.3295,1.3092,1.2636,1.2167,1.1697,0.0,0.0,0.0,0.0,0.0,0.0,0.0,0.0,0.0,0.0,0.0,0.0,0.0,0.0,0.0,0.0,0.0,0.0,0.0,0.0,0.0,0.0,0.0,0.0,0.0,0.0,0.0,0.0,0.0,1.8754,2.0107,0.0,0.0,0.0,0.0,1.7723,1.7086,1.7237,1.856,1.7816,1.7949,1.9228,1.8593,1.805,1.7656,1.765,1.7446,1.7011,1.6864,1.6987,1.7306,1.7106,1.7095,1.7273,1.7295,1.7295,1.723,1.6716,1.6482,1.6417,1.5988,1.5799,1.5957,1.7009,1.7714,1.8194,1.8203,1.8786,1.9454,1.8896,1.9188,1.9669,1.911,1.9404,0.0,0.0,2.1128,2.1671,2.1845,2.1431,2.0799,2.0233,1.9595,1.9101,1.9101,1.9595,2.0045,0.0,2.0566,2.1067,2.1175,0.0,2.109,2.0074,1.9173,1.8404,1.7808,1.74,1.7052,1.6723,1.6842,1.6808,1.6471,1.5911,1.5562,1.5562,1.4493,1.3761,1.3567,1.329,1.2831,1.2178,1.2569,0.0,0.0,0.0,0.0,0.0,0.0,0.0,0.0,0.0,0.0,0.0,0.0,0.0,0.0,0.0,0.0,0.0,0.0,0.0,0.0,0.0,0.0,0.0,0.0,0.0,0.0,0.0,0.0,1.988,2.084,0.0,1.9382,1.8862,1.8646,1.8693,1.8474,1.8635,1.9358,1.9114,1.9005,1.9146,1.8881,1.8548,1.8093,1.8081,1.8108,1.8097,1.8054,1.8147,1.8398,1.8306,1.8344,1.8371,1.7979,1.8088,1.8483,1.7801,1.7339,1.6994,1.6819,1.6862,1.71,1.7645,1.8262,1.8871,1.9057,1.9506,1.9991,2.0077,2.0182,2.0321,2.0519,2.0959,2.1466,2.1639,2.1985,2.2208,2.1895,2.1184,2.0435,2.0013,1.9387,1.8936,1.9064,1.929,1.958,2.0016,2.0622,2.117,2.1535,2.1201,2.0723,2.0295,1.9506,1.8675,1.7909,1.7679,1.7413,1.6947,1.6918,1.6897,1.6778,1.6481,1.6346,1.6422,1.5529,1.4833,1.4441,1.3856,1.3231,1.2594,1.3322,1.3288,0.0,0.0,0.0,0.0,0.0,0.0,0.0,0.0,0.0,0.0,0.0,0.0,0.0,0.0,0.0,0.0,0.0,0.0,0.0,0.0,0.0,0.0,0.0,0.0,0.0,0.0,2.1374,2.0472,2.1376,2.1397,1.9813,1.9658,1.9582,1.942,1.9396,1.9535,1.9786,1.9798,1.9656,1.9265,1.9265,1.9016,1.8551,1.8566,1.862,1.8647,1.8647,1.8765,1.8987,1.8922,1.8826,1.8658,1.8266,1.8303,1.855,1.8085,1.7667,1.7432,1.7811,1.8073,1.8306,1.8575,1.8963,1.9462,1.985,2.0182,2.0472,2.0883,2.0898,2.0884,2.1277,2.1712,2.2067,2.2067,2.2215,2.2173,2.1425,2.077,2.0184,1.9589,1.919,1.8936,1.9064,1.9355,1.9689,2.0143,2.0507,2.0927,2.1504,2.0953,2.0421,2.0433,1.9671,1.8879,1.8305,1.8108,1.7908,1.7578,1.7372,1.7303,1.7372,1.706,1.6926,1.7065,1.6346,1.5744,1.5378,1.4476,1.3755,1.3283,1.3864,1.3962,1.358,0.0,0.0,0.0,0.0,0.0,0.0,0.0,0.0,0.0,0.0,0.0,0.0,0.0,0.0,0.0,0.0,0.0,0.0,0.0,0.0,0.0,0.0,0.0,2.0323,2.1652,2.2146,2.0592,2.1776,2.2032,2.0247,2.0541,2.0547,1.9875,1.9824,1.9824,1.9798,1.9798,1.9798,1.9798,1.9798,1.9552,1.904,1.916,1.8989,1.8551,1.8551,1.8712,1.9016,1.8821,1.8522,1.8108,1.812,1.7869,1.746,1.7436,1.7533,1.7763,1.8763,1.923,1.9374,1.9633,1.9748,1.9876,2.0544,2.0781,2.083,2.121,2.1345,2.1345,2.1369,2.1547,2.1775,2.1785,2.1824,2.1629,2.0578,2.0347,2.0132,1.9075,1.8974,1.912,1.912,1.9832,2.0485,2.0485,2.0327,2.0465,2.1291,2.0922,2.0555,2.0688,1.9807,0.0,1.9101,1.8765,1.8553,1.8592,1.8246,1.8068,1.8305,1.7659,1.7282,1.7427,1.6866,1.6471,1.6312,1.5188,1.4479,1.4273,1.4181,1.4609,1.5563,0.0,0.0,0.0,0.0,0.0,0.0,0.0,0.0,0.0,0.0,0.0,0.0,0.0,0.0,0.0,0.0,0.0,0.0,0.0,0.0,0.0,2.1865,2.2656,2.2062,2.2742,2.3117,2.2673,2.2849,2.2643,2.1741,2.1754,2.142,2.0459,2.0384,2.0207,1.9824,1.9798,1.9798,1.9798,1.9798,1.9785,1.9733,1.9746,1.9849,1.9952,1.9952,1.9813,1.9581,1.9519,1.92,1.8652,1.8318,1.8409,1.8737,1.8306,1.8528,1.9042,1.8323,1.8056,1.813,1.8387,1.881,1.9298,1.9827,2.0001,2.0024,2.0116,2.0175,2.0207,2.0495,2.077,2.0996,2.1284,2.1386,2.1219,2.0477,2.0245,2.003,1.9457,1.942,1.9581,1.9723,1.9963,2.0138,2.0138,2.0248,2.0706,2.1847,2.1188,2.062,2.1017,2.0185,0.0,1.9139,1.9007,1.8841,1.863,1.8147,1.8068,1.863,1.8108,1.7841,1.7969,1.7727,1.7284,1.6625,1.6188,1.5932,1.5868,1.5363,1.5601,0.0,0.0,0.0,0.0,0.0,0.0,0.0,0.0,0.0,0.0,0.0,0.0,0.0,0.0,0.0,0.0,0.0,0.0,0.0,0.0,0.0,0.0,2.3104,2.3812,2.3349,2.3422,2.3487,2.3422,2.3238,2.2888,2.2319,2.2217,2.1851,2.0993,2.0734,2.0459,2.0156,1.9927,1.9798,1.9798,1.9798,1.9837,1.9926,1.9763,1.9774,1.9949,1.9841,1.9653,1.9376,1.941,1.9107,0.0,1.8274,1.8312,1.8512,1.8179,1.8389,0.0,0.0,0.0,0.0,0.0,1.8957,1.9346,1.9597,1.97,1.97,1.97,1.9797,1.9982,2.0229,2.05,2.0766,2.1015,2.1013,2.0833,2.0294,2.0135,1.9994,1.9586,1.9672,1.9866,1.997,2.0078,2.0183,2.0183,0.0,0.0,2.1733,2.1175,2.0732,2.0984,2.0382,1.9836,1.9588,1.9439,1.9273,1.9087,1.8635,1.8519,1.8921,1.8519,0.0,0.0,0.0,1.7905,1.6935,1.6935,0.0,0.0,0.0,0.0,0.0,0.0,0.0,0.0,1.7279,1.7455,0.0,0.0,0.0,0.0,0.0,0.0,0.0,0.0,0.0,0.0,0.0,0.0,0.0,0.0,0.0,0.0,2.4147,2.4784,2.4292,2.3824,2.3487,2.3297,2.3157,2.2865,2.2324,2.2278,2.2053,2.1527,2.0993,2.066,2.061,0.0,0.0,0.0,0.0,1.9773,1.971,1.9346,1.9154,1.9116,1.887,1.874,1.8698,1.8787,1.8519,1.7996,1.8018,1.7824,1.7475,1.7496,1.7672,1.7991,1.8963,1.9381,1.9497,1.9497,1.9497,1.9497,1.9562,0.0,0.0,1.9615,1.9883,2.0175,2.0218,2.0476,2.077,2.0811,2.07,2.0467,2.0123,2.009,2.0048,1.9711,1.9869,2.0093,2.0093,2.0272,2.0444,2.0444,2.0663,2.0958,2.1246,2.1023,2.0811,2.0844,2.0513,2.026,2.026,1.9997,1.9818,1.9818,0.0,0.0,1.9299,1.8921,1.8707,1.8822,1.8784,1.8342,1.7389,1.759,1.7525,1.7169,1.7525,1.8003,1.8572,1.8917,1.9068,1.8954,1.758,1.7734,0.0,0.0,0.0,0.0,0.0,0.0,0.0,0.0,0.0,0.0,0.0,0.0,0.0,0.0,0.0,2.4254,2.4895,2.5294,2.502,2.4318,2.3653,2.3179,2.3015,2.2888,2.2775,2.2752,2.2555,2.2077,2.1551,2.1066,2.061,2.008,0.0,1.9798,1.9798,1.9597,1.9158,1.907,1.888,1.8568,0.0,0.0,1.8076,1.82,1.7931,1.7369,1.7479,1.7489,1.7432,1.7597,1.776,1.7929,1.814,1.8235,1.8255,1.8255,1.8255,1.8283,1.8621,1.8741,1.8781,1.9097,1.9267,1.9387,1.9729,1.9879,0.0,2.0318,2.0403,2.0332,2.0261,2.0329,2.0393,2.0325,2.0494,2.0645,2.0645,2.0695,2.0728,2.0728,2.099,2.1214,2.1294,2.1023,2.0893,2.1167,2.0909,2.0679,2.0679,2.0629,2.0595,2.0595,1.9929,1.963,1.9982,1.9387,1.9007,1.9045,1.8745,1.8463,1.8273,1.8312,1.8278,1.8207,1.8278,1.8541,1.8988,1.9064,1.9228,1.9468,1.9148,1.9141,0.0,0.0,0.0,0.0,0.0,0.0,0.0,0.0,0.0,0.0,0.0,2.202,2.3098,0.0,2.4966,2.5327,2.558,2.5626,2.5346,2.4426,2.3682,2.3384,2.309,2.2888,2.2888,2.2635,2.2488,2.254,2.1769,2.1317,2.1407,2.0881,2.0453,2.0105,1.9895,1.9503,1.8905,1.8425,1.8089,1.7892,1.774,1.7558,1.7407,1.7493,1.7423,1.7199,1.7274,1.7329,1.7425,1.7828,1.8195,1.8489,1.8489,1.8372,1.8214,1.8431,1.8489,1.8528,1.8726,1.8803,1.8822,1.9026,1.925,1.9435,1.9654,1.9833,2.0045,2.0235,2.0304,2.0304,2.0304,2.0392,2.051,2.051,2.0645,2.0794,2.0794,2.0794,2.0794,2.0794,2.1023,2.1214,2.1294,2.123,2.1277,2.151,2.1262,2.1055,2.1055,2.0909,2.0794,2.0794,2.0446,2.0277,2.0479,1.9965,1.966,1.966,1.9295,1.9091,1.9091,1.9091,1.9091,1.9091,1.9091,1.9277,1.966,1.966,1.9839,2.0202,2.0202,2.0228,0.0,0.0,0.0,0.0,0.0,0.0,0.0,0.0,2.0591,2.2257,2.2816,2.339,2.4679,2.5135,2.5507,2.6103,2.6061,2.5795,2.5357,2.4432,2.3745,2.3496,2.2964,2.2622,2.2592,2.2149,2.2062,2.2527,2.1609,2.1271,2.1791,2.1327,2.0789,2.0232,1.9907,1.9386,1.8663,1.7894,1.7415,1.7212,1.6869,1.6761,1.6867,1.696,1.7065,1.7178,1.7282,1.7385,1.7577,1.8141,1.8655,1.9068,1.9195,1.9011,1.875,1.9007,1.9101,1.9101,1.9195,1.9232,1.9232,1.9306,1.9548,1.9815,1.9815,2.0045,2.0304,2.0304,2.0304,2.0304,2.039,2.0494,2.0596,2.0679,2.0828,2.099,2.099,2.099,2.099,2.099,2.1151,2.1309,2.1433,2.1602,2.1769,2.1797,2.1572,2.1402,2.1402,2.1151,2.099,2.099,2.0942,2.0876,2.0811,2.0496,2.0311,2.0311,2.005,1.9907,1.9907,1.9907,1.9907,1.9907,1.9907,2.0048,2.0311,2.0311,2.0462,2.0761,2.086,2.0944,1.6696,1.7501,1.8392,1.9434,1.9747,2.0284,0.0,0.0,2.2801,2.4412,2.4794,2.5059,2.5885,2.6052,2.6103,2.6185,2.6184,2.5865,2.4979,2.4497,2.3914,2.308,2.2258,2.1693,2.1504,2.141,2.1389,2.1389,2.0833,2.0485,2.0497,2.0001,1.9678,1.9588,1.9566,1.9075,1.8109,1.7978,1.7474,1.6588,1.6658,1.6697,1.6718,1.6918,1.7002,1.7065,1.7537,1.7821,1.7982,1.8519,1.8808,1.8968,1.9457,1.9617,1.953,1.9232,1.9101,1.9157,1.9508,1.9636,1.969,2.0045,2.02,2.0235,2.0235,2.027,2.0304,2.0304,2.0304,2.0373,2.0662,2.0795,2.0942,2.1308,2.1494,2.1617,2.1693,2.1676,2.1676,2.1676,2.1794,2.1895,2.1926,2.2132,2.2192,2.1857,2.1783,2.1736,2.1736,2.1706,2.1676,2.1676,2.1433,2.1119,2.0827,2.0761,2.0745,2.0745,2.0712,2.0678,2.0678,2.0678,2.0678,2.0678,2.0678,2.0712,2.0745,2.0745,2.0696,2.063,2.1039,2.1103,1.8345,1.8951,1.9498,2.0384,2.099,2.173,2.3047,2.3654,2.4279,2.5489,2.5739,2.5821,2.6136,2.6202,2.6202,0.0,2.6096,2.5778,2.5072,2.4285,2.3489,2.2694,2.1983,2.1546,2.159,2.103,2.0806,2.1176,2.0581,2.038,2.0697,2.0493,2.0211,1.9872,1.9579,1.9079,1.829,1.8022,1.7673,1.7256,1.731,1.7372,1.7455,1.7571,1.7733,1.7888,1.8108,1.8389,1.8717,1.8926,1.924,1.9566,1.9818,1.9925,1.9925,1.9833,1.9797,1.9815,1.9993,2.0045,2.008,2.0252,2.0304,2.0339,2.0527,2.0595,2.0628,2.0844,2.0877,2.091,2.1039,2.1135,2.1245,2.1447,2.1601,2.1708,2.1797,2.1812,2.1812,2.1812,2.184,2.1897,2.1984,2.213,2.2217,2.2163,2.2192,2.222,2.222,2.2073,2.1926,2.1811,2.1661,2.1525,2.1386,2.1198,2.1087,2.1087,2.0909,2.0794,2.0794,2.0794,2.0794,2.0794,2.0794,2.0893,2.1087,2.1087,2.1151,2.1308,2.1494,2.1586,1.9772,2.0279,2.0675,2.1179,2.1955,2.2736,2.3342,2.4197,2.5071,2.5754,2.6124,2.6274,2.6203,2.6257,2.6274,2.6203,2.5896,2.5465,2.4894,2.39,2.3079,2.2606,2.2062,2.188,2.2238,2.1094,2.0445,2.0689,2.0206,2.0074,2.0451,2.048,2.0277,1.9841,1.9489,1.905,1.8514,1.8167,1.7928,1.7787,1.7787,1.7848,1.7948,1.806,1.8238,1.8442,1.8611,1.8865,1.9184,1.9314,1.9584,1.9955,2.0028,2.0063,2.008,2.0202,2.027,2.0304,2.0304,2.0304,2.0304,2.0304,2.0373,2.0477,2.0728,2.0844,2.099,2.1229,2.1308,2.1323,2.1416,2.1462,2.1555,2.1705,2.1842,2.193,2.2017,2.2046,2.2061,2.2061,2.2061,2.2073,2.2169,2.2254,2.2337,2.2511,2.2592,2.2592,2.2515,2.2343,2.2141,2.2017,2.1928,2.1868,2.1868,2.1601,2.1433,2.1433,2.1198,2.1087,2.1087,2.1087,2.1087,2.1087,2.1087,2.1198,2.1433,2.1494,2.1646,2.1868,2.1974,2.2073,2.0649,2.1297,2.1907,2.1811,2.2433,2.3044,2.2955,2.405,2.5093,2.5143,2.5914,2.652,2.6256,2.6415,2.6486,2.6239,2.559,2.4861,2.4149,2.3404,2.2908,2.2891,2.2589,2.267,2.3366,2.1765,2.034,1.9531,1.9439,1.9332,1.9178,1.9159,1.9145,1.913,1.9111,1.8912,1.85,1.8481,1.8246,1.7787,1.7787,1.7787,1.7808,1.802,1.8179,1.8344,1.886,1.9082,1.9139,1.9599,1.978,1.9815,1.9937,1.999,2.0023,2.008,2.0185,2.0304,2.0304,2.0304,2.0304,2.0304,2.051,2.0794,2.0794,2.1039,2.1292,2.1308,2.1308,2.137,2.1706,2.1797,2.1886,2.2279,2.2432,2.2484,2.2552,2.2619,2.2672,2.2672,2.2672,2.2672,2.2685,2.2721,2.2803,2.2863,2.2944,2.2868,2.2542,2.2501,2.2487,2.2487,2.2257,2.2096,2.2096,2.1897,2.1781,2.1781,2.1783,2.1783,2.1783,2.1783,2.1783,2.1783,2.1783,2.1766,2.1797,2.1984,2.2082,2.2096,2.2357,2.2487,2.1296,2.1641,2.1884,2.1911,2.2551,2.3179,2.3212,2.403,2.492,2.541,2.5795,2.6149,2.6419,2.6674,2.6725,2.6274,2.573,2.5063,2.4133,2.3371,2.2891,2.2891,2.2998,0.0,2.3291,0.0,0.0,2.1133,2.0497,2.0013,1.9788,1.9769,1.9566,1.9116,1.8969,1.8841,1.8707,1.8707,1.863,1.8461,1.8611,1.8707,1.8803,1.8879,1.8993,1.9157,1.9358,1.9468,1.9508,1.9672,1.9726,1.9744,1.983,1.9866,1.9884,2.0045,2.0273,2.0478,2.0356,2.0304,2.0339,2.0561,2.0712,2.0876,2.1324,2.154,2.1676,2.1901,2.1959,2.1991,2.2092,2.2137,2.218,2.2349,2.2446,2.2528,2.2596,2.2646,2.2751,2.2932,2.297,2.3015,2.3146,2.3212,2.3301,2.3405,2.3218,2.2982,2.2725,2.2699,2.2646,2.2515,2.2429,2.2371,2.2371,2.2301,2.2245,2.2245,2.2245,2.2245,2.2245,2.2245,2.2245,2.2245,2.2245,2.2245,2.2245,2.2329,2.2371,2.2371,2.2457,2.2582,2.1981,2.2115,2.213,2.2172,2.26,2.2999,2.303,2.3852,2.473,2.5241,2.5642,2.5984,2.6251,2.6532,2.6548,2.5998,2.5464,2.4843,2.4099,2.3371,2.299,2.3255,2.372,2.4037,2.4155,0.0,0.0,2.1933,2.14,2.0801,2.0137,2.0206,1.9885,1.9021,1.886,1.8779,1.8683,1.8683,1.8741,1.8803,1.9007,1.9139,1.9228,1.9284,1.9376,1.9538,1.9574,1.9632,1.9708,1.9708,1.9708,1.9708,1.9744,1.9762,1.9797,2.01,2.0361,2.0563,2.051,2.0561,2.0696,2.0909,2.1055,2.1246,2.1661,2.1886,2.202,2.2237,2.2296,2.2296,2.2296,2.2296,2.231,2.2349,2.2422,2.2515,2.2668,2.2747,2.2889,2.3157,2.3218,2.3248,2.3387,2.3466,2.3533,2.3628,2.3434,2.3253,2.3182,2.3084,2.3003,2.2876,2.2712,2.2623,2.2623,2.2542,2.2501,2.2501,2.2501,2.2501,2.2501,2.2501,2.2501,2.2501,2.2501,2.2501,2.2501,2.2638,2.2712,2.273,2.2879,2.303,2.2699,2.2699,2.2672,2.2542,2.2569,2.2582,2.2446,2.3539,2.4607,2.4716,2.5433,2.6029,2.5895,2.6065,2.6063,2.5561,2.4922,2.4387,2.4132,2.3453,2.3253,0.0,0.0,0.0,0.0,0.0,0.0,2.1978,0.0,2.1674,2.0313,2.0488,2.0091,1.8893,1.8798,1.8683,1.8498,1.8498,1.86,1.8803,1.9007,1.9101,1.9101,1.9228,1.9339,1.9395,1.9538,1.9632,1.9708,1.9708,1.9708,1.9708,1.9708,1.9708,1.9762,2.0239,2.0446,2.0548,2.0762,2.1039,2.1308,2.1323,2.1539,2.1812,2.1827,2.2049,2.2296,2.2296,2.2296,2.2296,2.2296,2.2296,2.231,2.2324,2.238,2.2511,2.2846,2.296,2.3096,2.3364,2.3426,2.3437,2.3437,2.3482,2.3533,2.3544,2.3588,2.3671,2.3785,2.3631,2.3515,2.3497,2.3126,2.2838,2.2838,2.2672,2.2569,2.2542,2.2538,2.2542,2.2528,2.2538,2.2538,2.2538,2.2552,2.2565,2.2565,2.2958,2.3129,2.3141,2.3588,2.3806,2.2712,2.2699,2.2685,2.2659,2.2699,2.2725,2.2646,2.349,2.4448,2.4961,2.5338,2.5868,2.6824,2.6715,2.6509,2.6581,2.6162,0.0,2.5448,2.46,0.0,2.5027,0.0,2.5095,2.5615,2.5328,0.0,0.0,2.3357,2.2751,2.1928,2.1505,2.073,1.9581,1.8933,1.8484,1.8282,1.8439,1.86,1.8803,1.9007,1.9101,1.9101,1.9139,1.9195,1.9339,1.9413,1.952,1.9629,1.9672,1.9708,1.9708,1.9708,1.9708,1.9762,2.0239,2.0563,2.0845,2.1214,2.1308,2.1354,2.1584,2.1721,2.1857,2.2092,2.2223,2.2296,2.2296,2.2296,2.2296,2.2296,2.2296,2.2352,2.2555,2.2646,2.2777,2.3065,2.3223,2.3371,2.3584,2.3827,2.3996,2.3996,2.4006,2.4026,2.4029,2.4039,2.3979,2.3746,2.3671,2.3667,2.371,2.3624,2.3518,2.3473,2.3427,2.3318,2.3102,2.3126,2.3082,2.2881,2.3114,2.3259,2.3259,2.3399,2.3473,2.3473,2.3584,2.361,2.361,2.3735,2.3806,2.2892,2.2807,2.2751,2.2751,2.2816,2.2881,2.2842,2.3798,2.4799,2.5205,2.56,2.6107,2.6894,2.6807,2.6606,0.0,0.0,0.0,2.5942,2.5411,2.5135,0.0,2.5411,0.0,2.546,2.5371,2.5139,0.0,2.4331,2.3571,2.2344,2.1924,2.1045,1.9575,1.8862,1.8361,1.8063,1.8361,1.8562,1.8664,1.8969,1.9101,1.9101,1.9101,1.9157,1.9302,0.0,1.9465,1.9593,1.9632,1.9762,1.9909,1.9909,2.003,2.0239,2.0646,2.0942,2.1166,2.1554,2.166,2.166,2.1903,2.1991,2.2049,2.2237,2.2296,2.2296,2.2296,2.2377,2.2474,2.2474,2.2565,2.2694,2.2838,2.2897,2.2998,2.3271,2.3388,2.3535,2.3816,2.4054,2.419,2.419,2.419,2.4199,2.4209,2.4191,2.4272,2.4452,2.4405,2.4501,2.4896,2.4864,2.4779,2.4764,2.4746,2.4541,2.4034,2.4039,2.3826,2.3324,2.3479,2.3609,2.3631,2.3742,2.3806,2.3806,2.3899,2.3939,2.3921,2.4039,2.4106,2.3165,2.3037,2.2889,2.2863,2.2952,2.3028,2.2977,2.4165,2.5292,2.5347,2.595,2.6481,2.657,2.6497,2.6387,2.6256,0.0,2.6298,2.6157,2.6095,2.5889,2.543,2.5878,2.5992,2.5355,2.5275,2.515,2.4879,2.4843,2.4073,2.2274,2.203,2.1103,1.9306,1.8822,1.8406,1.7969,1.8386,1.8562,1.8498,1.8912,1.9101,1.9101,1.9101,1.9157,1.9265,0.0,0.0,1.9632,1.9665,1.9904,2.0277,2.0277,2.0479,2.0844,2.1183,2.134,2.1433,2.1781,2.1926,2.1998,2.2137,2.2209,2.2251,2.2282,2.231,2.2352,2.2352,2.2555,2.2747,2.2747,2.2922,2.3103,2.314,2.314,2.3224,2.3477,2.3544,2.366,2.4026,2.4151,2.418,2.419,2.419,2.419,2.419,2.419,2.4558,2.5526,2.5407,2.5544,2.6348,2.6272,2.6187,2.6175,2.6175,2.5863,2.512,2.4976,2.4608,2.388,2.3797,2.3785,2.3847,2.3878,2.3888,2.3888,2.4068,2.4154,2.4154,2.4402,2.45,2.3522,2.3455,2.3341,2.3236,2.323,2.317,2.2889,2.4058,2.5195,2.5153,2.579,2.6359,2.6423,2.5942,2.5726,2.6347,2.6495,2.6723,2.723,2.7101,2.6799,0.0,2.6039,2.5738,2.5352,2.5158,0.0,0.0,0.0,2.3814,2.318,2.2099,2.0859,1.949,1.9221,1.8865,1.8397,1.8846,1.8879,1.8498,1.8912,1.9101,1.9101,1.9101,1.9101,1.9139,1.9246,0.0,1.9861,1.9977,2.0273,2.0696,2.0696,2.0745,2.0844,2.1183,2.1325,2.1371,2.1691,2.1855,2.1943,2.2015,2.2044,2.2073,2.218,2.2377,2.2561,2.2619,2.2825,2.3035,2.3035,2.3072,2.317,2.3371,2.3417,2.3486,2.371,2.3795,2.3886,2.4056,2.4103,2.4123,2.419,2.419,2.419,2.419,2.419,2.475,2.6219,2.5854,2.5755,2.6567,2.6628,2.6597,2.6591,2.6591,2.6432,2.5998,2.5393,2.4932,2.4629,2.4231,2.4046,2.4058,2.4275,2.4384,2.4384,2.4411,2.4429,2.4429,2.4482,2.45,2.3795,2.3613,2.3394,2.3359,2.3265,2.3151,2.2957,2.3829,2.4766,2.5098,2.5463,2.5874,2.631,2.5764,2.5373,2.5757,2.6204,2.6606,2.6929,2.7207,2.7181,2.6708,2.6264,2.5704,2.4957,2.4621,2.4128,0.0,0.0,2.2791,2.2629,2.1466,2.0419,1.953,1.9406,1.9184,1.8822,1.9058,1.9072,1.8798,1.9007,1.9101,1.9101,1.9101,1.9195,1.931,1.938,0.0,2.0174,2.0239,2.0579,2.1055,2.1055,2.1167,2.134,2.151,2.1572,2.1587,2.1736,2.1899,2.2013,2.2039,2.2025,2.2056,2.2332,2.2494,2.2638,2.2846,2.3096,2.3313,2.3313,2.3388,2.3502,2.3642,2.3664,2.3678,2.3774,2.3847,2.3917,2.3986,2.4046,2.4124,2.4238,2.4275,2.4348,2.4436,2.4824,2.5512,2.6721,2.6954,2.727,2.7978,2.7954,2.7975,2.82,2.8015,2.7691,2.7224,2.6761,2.6132,2.5305,2.504,2.4809,2.4526,2.4631,2.4704,2.4704,2.4704,2.4704,2.4704,2.4704,2.4704,2.4056,2.3782,2.3474,2.3452,2.3324,2.3157,2.3008,2.3576,2.433,2.5014,2.5157,2.5362,2.5988,2.5449,2.4976,2.5164,2.5718,2.6257,2.6559,2.7115,2.7293,2.6841,2.6419,0.0,2.4938,2.4489,0.0,0.0,0.0,0.0,2.1663,2.0822,2.015,1.9729,1.9711,1.9548,1.9254,1.9369,1.9369,1.9232,1.9269,1.9288,1.9288,1.9288,1.9417,1.9603,1.9603,0.0,0.0,2.0444,2.0778,2.1293,2.1293,2.148,2.1753,2.1753,2.1783,2.1812,2.1812,2.1926,2.211,2.211,2.2096,2.2172,2.2504,2.2664,2.2794,2.3072,2.3348,2.3553,2.3553,2.3667,2.3806,2.3806,2.3806,2.3806,2.3806,2.3982,2.4096,2.3974,2.4184,2.4393,2.4374,2.4554,2.4713,2.4703,2.538,2.614,2.6764,2.7438,2.8135,2.8819,2.9034,2.9249,2.958,2.9312,2.8926,2.8453,2.7939,2.7152,2.6068,2.568,2.5316,2.491,2.4907,2.4902,2.4902,2.4902,2.4902,2.4902,2.4902,2.4902,2.4257,2.421,2.4029,2.3682,2.3573,2.3427,2.294,2.3388,2.4136,2.4862,2.5034,2.5037,2.5121,2.4524,2.4254,2.4993,2.5223,2.5776,2.7128,2.7373,2.7233,2.6758,0.0,0.0,2.5969,2.5591,0.0,0.0,0.0,0.0,2.0889,2.0626,2.046,2.0409,2.0356,2.0133,1.9734,2.003,2.001,1.9654,1.983,1.9935,1.9935,1.9935,1.9935,1.9937,1.9937,0.0,0.0,2.058,2.0877,2.1293,2.1293,2.1434,2.162,2.162,2.1694,2.1812,2.1812,2.1926,2.211,2.211,2.2271,2.247,2.2565,2.2863,2.317,2.3247,2.352,2.3774,2.3774,2.3785,2.3806,2.3806,2.3806,2.3806,2.3806,2.4385,2.4729,2.4195,2.478,2.519,2.4669,2.5233,2.5523,2.482,2.538,2.5933,2.6005,2.608,2.6494,2.7478,2.8751,2.9561,2.9598,2.957,2.9523,2.9467,2.8024,2.7133,2.7061,2.5668,2.4898,2.4891,2.4907,2.4902,2.4902,2.4902,2.4902,2.4902,2.4902,2.4902,2.4037,2.3929,2.3749,2.3621,2.3393,2.3103,2.285,2.3375,2.4109,2.4847,2.4612,2.4422,2.4919,2.4002,2.3429,2.4185,2.4749,2.5455,2.6465,2.7035,2.7266,2.7088,2.6487,0.0,0.0,0.0,0.0,0.0,0.0,0.0,2.081,2.0611,2.051,2.051,2.0424,2.0321,2.0168,2.0252,2.0218,2.0063,2.0008,2.0005,2.0005,2.0005,2.0078,2.0237,2.0237,0.0,0.0,2.0893,2.1055,2.1293,2.1293,2.1419,2.1604,2.1604,2.1679,2.1812,2.1812,2.203,2.2343,2.2343,2.2575,2.2868,2.2838,2.2952,2.3151,2.3447,2.3638,2.3757,2.3785,2.3806,2.3806,2.3806,2.3896,2.3986,2.3986,2.4293,2.4501,2.4275,2.4552,2.4809,2.469,2.4979,2.5181,2.503,2.5696,2.6208,2.6195,2.6669,2.7146,2.7544,2.7892,2.8185,2.845,2.8688,2.8667,2.8299,2.8477,2.798,2.659,2.6464,2.6006,2.5106,2.5115,2.5138,2.5138,2.5138,2.5138,2.5138,2.5138,2.5138,2.397,2.3775,2.3477,2.3461,2.3188,2.2932,2.2777,2.3135,2.3726,2.4431,2.3969,2.366,2.4462,2.355,2.2913,2.3681,2.4474,2.5264,2.6006,2.6799,2.7299,2.7299,0.0,2.6235,0.0,0.0,0.0,0.0,0.0,0.0,0.0,2.0695,2.0561,2.0561,2.0475,2.0457,2.0491,2.0441,2.0424,2.0458,2.0289,2.0235,2.0235,2.0235,2.034,2.0512,0.0,0.0,0.0,2.1006,2.1071,2.1151,2.1151,2.1278,2.1466,2.1512,2.1619,2.1753,2.1855,2.2161,2.2515,2.2582,2.2829,2.3095,2.3028,2.3057,2.3168,2.3499,2.3645,2.3721,2.375,2.3792,2.3816,2.3858,2.3996,2.4113,2.4152,2.4431,2.4607,2.4413,2.4605,2.4876,2.5115,2.5418,2.5612,2.5569,2.6256,2.6612,2.6103,2.6574,2.6956,2.6956,2.6925,2.7214,2.7981,2.8309,2.8299,2.7872,2.8607,2.8185,2.6282,2.6586,2.6307,2.5231,2.5264,2.5308,2.5308,2.5308,2.5423,2.5673,2.5673,2.5827,2.4193,2.3898,2.3352,2.3145,2.3107,2.302,2.2672,2.2609,2.2801,2.3485,2.3044,2.275,2.3556,2.309,2.2859,2.3667,2.4474,2.5264,2.6006,2.6799,2.7299,0.0,0.0,2.6858,2.7233,0.0,0.0,0.0,0.0,0.0,0.0,2.0909,2.0693,2.0693,2.0577,2.0561,2.0693,2.0693,2.0727,2.0794,2.0794,2.0794,2.0794,2.0794,2.0794,0.0,0.0,0.0,0.0,2.0794,2.0811,2.0811,2.0811,2.0925,2.1119,2.1246,2.1434,2.1649,2.1984,2.2271,2.2525,2.2725,2.2927,2.3107,2.3107,2.3193,2.3301,2.3301,2.3499,2.37,2.37,2.3739,2.3847,2.4054,2.4094,2.4133,2.4257,2.4921,2.5282,2.4637,2.5198,2.5858,2.6135,2.697,2.7305,2.6511,2.7128,2.709,2.544,2.5229,2.5229,2.5229,2.5925,2.7084,2.8739,2.8891,2.8891,2.8872,2.8153,2.7313,2.6421,2.5639,2.5231,2.5192,2.5264,2.5308,2.5308,2.5308,2.5731,2.6582,2.6582,2.707,2.3438,2.3591,2.3665,2.3112,2.2825,2.2659,2.2569,2.2918,2.3332,2.3557,2.3448,2.3405,2.3656,2.3131,2.3257,2.5077,2.5577,0.0,2.7489,0.0,0.0,2.7351,2.7186,2.7039,0.0,0.0,0.0,0.0,0.0,0.0,0.0,2.1229,2.0744,2.0693,2.0577,2.0561,2.0693,2.0693,2.0727,2.0794,2.0794,2.0794,2.0794,2.0794,0.0,0.0,0.0,0.0,0.0,2.0794,2.0794,2.0794,2.0794,2.0909,2.1119,2.1151,2.1341,2.162,2.1708,2.2075,2.2515,2.2565,2.2829,2.3107,2.3107,2.3132,2.3205,2.3401,2.3567,2.3711,2.375,2.3894,2.4016,2.4084,2.4238,2.4383,2.4426,2.4708,2.4887,2.4674,2.5343,2.5981,2.6106,2.6865,2.721,2.6453,2.66,2.6427,2.5344,2.5191,2.5191,2.5191,2.5912,2.6612,2.7147,2.8249,2.8669,2.8115,2.8924,2.8504,2.6479,2.6774,2.642,2.5212,2.5264,2.5322,2.537,2.5962,2.6734,2.7625,2.7625,2.7775,2.3087,2.3273,2.3321,2.2864,2.2615,2.2501,2.2474,2.2818,2.3142,2.3113,2.3142,2.3184,2.3195,2.3127,2.3509,2.4964,2.57,0.0,0.0,0.0,0.0,2.7351,0.0,0.0,0.0,0.0,0.0,0.0,0.0,0.0,0.0,2.1551,2.1039,2.0744,2.0661,2.0645,2.0727,2.0744,2.076,2.0794,2.0794,2.0794,2.0794,2.0794,0.0,0.0,0.0,0.0,0.0,2.0794,2.0794,2.0794,2.0794,2.0876,2.1006,2.1071,2.123,2.145,2.1738,2.2073,2.2426,2.2642,2.2906,2.3107,2.3107,2.3107,2.3126,2.3301,2.3476,2.3656,2.3732,2.3927,2.4123,2.4229,2.4374,2.4512,2.4561,2.4634,2.4801,2.512,2.5635,2.6212,2.6913,2.7509,2.7622,2.687,2.6835,2.6485,2.5344,2.5191,2.5325,2.5625,2.6408,2.7014,2.7319,2.8306,2.8688,2.8172,2.9127,2.8867,2.6975,2.7151,2.6801,2.5749,2.5471,2.537,2.5436,2.6315,2.7216,2.8097,2.8137,2.8149,0.0,2.2923,2.2487,2.2487,2.2487,2.2474,2.2422,2.2391,0.0,2.231,2.231,2.2341,2.2462,2.309,2.3673,2.3899,2.519,0.0,0.0,2.6868,0.0,0.0,2.7299,0.0,0.0,0.0,0.0,0.0,0.0,0.0,0.0,2.1844,2.1509,2.0893,2.0844,2.0827,2.0794,2.0794,2.0794,2.0794,2.0794,2.0794,2.0794,2.0794,0.0,0.0,0.0,0.0,0.0,2.0794,2.0794,2.0794,2.0794,2.0794,2.0827,2.1006,2.1103,2.123,2.1907,2.2178,2.2317,2.291,2.3107,2.3107,2.3107,2.3107,2.3107,2.3119,2.3301,2.3533,2.3678,2.3917,2.4172,2.4435,2.4549,2.462,2.4695,2.4793,2.5102,2.5842,2.6094,2.6682,2.8309,2.8655,2.8412,2.7604,2.7547,2.7026,2.5421,2.5191,2.5516,2.6307,2.7186,2.802,2.8834,2.8949,2.8987,2.8987,2.9,2.8644,2.7822,2.7086,2.6691,2.6694,2.5982,2.566,2.5782,2.6598,2.7436,2.8294,2.8306,2.8308,2.1417,0.0,2.2352,2.2352,2.2352,2.2352,0.0,2.2324,2.2324,2.231,2.2338,2.2547,2.3121,2.3448,2.4189,2.5947,0.0,2.7083,2.7701,0.0,0.0,2.7299,2.7299,0.0,0.0,0.0,0.0,0.0,0.0,0.0,0.0,2.226,2.1738,2.157,2.1324,2.1055,2.0794,2.0794,2.0794,2.0794,2.0794,2.0794,2.0794,2.0794,0.0,0.0,0.0,0.0,2.0794,2.0794,2.0794,2.0794,2.0794,2.0794,2.0811,2.0844,2.1103,2.1432,2.1598,2.2084,2.2642,2.2977,2.3107,2.3107,2.3107,2.3107,2.3132,2.3229,2.336,2.3555,2.3792,2.4047,2.4294,2.4461,2.5091,2.5472,2.485,2.5721,2.6491,2.6075,2.6979,2.7974,2.8376,2.8537,2.8345,2.7536,2.6977,2.6289,2.5319,2.5191,2.5516,2.6307,2.7186,2.802,2.8834,2.9509,2.9898,2.9898,2.9941,2.9615,2.879,2.8634,2.8275,2.7683,2.7595,2.788,2.8556,2.8819,2.9357,3.0156,2.9559,2.927,2.011,2.1619,2.2885,2.3224,2.3308,2.3308,2.3308,2.2801,2.2296,2.2296,2.2338,2.2587,2.3316,2.3796,2.4573,2.6142,2.6768,0.0,0.0,0.0,2.7299,2.7299,0.0,0.0,0.0,0.0,0.0,0.0,0.0,0.0,0.0,2.2448,2.2087,2.1812,2.1735,2.1493,2.1039,2.0876,2.0794,2.0794,2.0794,2.0794,2.0794,2.0794,2.0794,0.0,0.0,0.0,2.0794,2.0794,2.0794,2.0794,2.0794,2.0794,2.0794,2.0794,2.1055,2.1433,2.1615,2.2198,2.2868,2.3028,2.3107,2.3107,2.3107,2.3107,2.3119,2.3193,2.3348,2.3567,2.3837,2.4372,2.4921,2.5132,2.5606,2.5973,2.5871,2.6266,2.6743,2.7035,2.7796,2.8528,2.8923,2.9103,2.892,2.8127,2.7718,2.7064,2.5906,2.574,2.6064,2.6918,2.7459,2.823,2.9436,2.9998,3.0273,3.0247,3.0303,3.0138,2.9715,2.939,2.884,2.8061,2.8171,2.8672,2.9553,2.9177,2.922,2.9649,2.9612,2.8968,1.9194,2.154,2.3587,2.4052,2.4321,2.444,2.422,2.319,2.2296,2.2296,2.2381,2.2699,2.3427,2.4215,0.0,0.0,0.0,0.0,2.7086,2.7201,2.7282,2.7299,0.0,0.0,0.0,0.0,0.0,0.0,0.0,0.0,0.0,2.2561,2.2467,2.1943,2.211,2.1938,2.1371,2.1039,2.0844,2.0794,2.0794,2.0794,2.0794,2.0794,2.0794,0.0,0.0,0.0,2.0876,2.0827,2.0827,2.0876,2.0827,2.0794,2.0811,2.086,2.1087,2.1449,2.1899,2.246,2.3008,2.3065,2.3107,2.3107,2.3107,2.3107,2.3119,2.3139,2.3419,2.3784,2.4065,2.4927,2.582,2.6112,2.6274,2.6518,2.7073,2.6875,2.6931,2.8172,2.851,2.8829,2.957,2.9686,2.9447,2.879,2.8684,2.8165,2.6784,2.6593,2.6943,2.7816,2.7959,2.8626,3.0175,3.0395,3.0411,3.0358,3.0406,3.0447,3.0443,2.9805,2.9148,2.8512,2.8615,2.9045,2.9788,2.9045,2.8674,2.8693,2.9319,2.8402,1.9317,2.1881,2.3711,2.2847,2.3579,2.4169,2.2919,2.2448,2.2296,2.2296,2.2801,2.346,2.4203,2.4948,2.5692,0.0,0.0,2.6958,0.0,0.0,2.7168,0.0,0.0,0.0,0.0,0.0,0.0,0.0,0.0,0.0,0.0,2.2672,2.2659,2.2548,2.2337,2.2053,2.1738,2.1402,2.1071,2.0794,2.0794,2.0794,2.0794,2.0794,2.0794,0.0,0.0,2.0958,2.1198,2.0909,2.0974,2.1198,2.0909,2.0794,2.0827,2.1119,2.1449,2.1825,2.2504,2.2825,2.2944,2.307,2.3107,2.3107,2.3107,2.3107,2.3139,2.3377,2.4042,2.4773,2.5165,2.6015,2.6804,2.6983,2.7542,2.7872,2.7317,2.8218,2.8988,2.851,2.8998,2.9532,2.9683,2.91,2.8644,2.8698,2.8089,2.7604,2.751,2.751,2.7867,2.8796,2.8896,2.9302,3.0304,3.0501,3.0558,3.0549,3.0558,3.0589,3.0645,3.0591,3.0508,3.0387,3.0414,3.0488,3.0626,3.0488,3.041,3.039,2.9846,2.9378,1.8692,2.1085,2.2997,2.2618,2.4404,2.5998,2.4915,2.4052,2.3477,2.3477,2.3763,2.422,2.4949,0.0,2.5845,2.6573,0.0,2.6926,0.0,0.0,0.0,0.0,0.0,0.0,0.0,0.0,0.0,0.0,0.0,0.0,0.0,0.0,2.2699,2.2699,2.2544,2.2323,2.201,2.1721,2.1308,2.0794,2.0794,2.0794,2.0794,2.0794,2.0893,2.1071,0.0,2.1262,2.1572,2.1402,2.1308,2.1277,2.1135,2.0958,2.086,2.1387,2.1766,2.2113,2.269,2.2906,2.2932,2.3057,2.3107,2.3107,2.3107,2.3107,2.3175,2.3565,2.4259,2.4998,2.5398,2.6572,2.7681,2.7826,2.8134,2.8435,2.8537,2.88,2.9016,2.9092,2.9439,2.9701,2.9701,2.9409,2.9197,2.9323,2.9095,2.8781,2.8395,2.8446,2.8664,2.9056,2.9165,2.9564,3.0429,3.0593,3.0653,3.0653,3.0653,3.0665,3.069,3.0753,3.0801,3.0801,3.0804,3.08,3.08,3.08,3.0587,3.0157,3.0216,2.9767,1.816,2.021,2.2068,2.2736,2.5177,2.7179,2.637,2.532,2.4491,2.4491,2.4643,2.4931,0.0,2.5728,0.0,2.6607,2.6792,0.0,0.0,0.0,0.0,0.0,0.0,0.0,0.0,0.0,0.0,0.0,0.0,0.0,0.0,0.0,2.2699,2.2699,2.2699,2.2531,2.2206,2.1998,2.157,2.0909,2.0844,2.0844,2.0909,2.0909,2.1103,2.1418,2.1418,2.1601,2.1899,2.1842,2.1676,2.1509,2.1449,2.1293,2.1198,2.1705,2.2084,2.2361,2.2756,2.3011,2.3158,2.3122,2.323,2.3348,2.316,2.3107,2.3199,2.3667,2.4367,2.511,2.5716,2.7046,2.8325,2.8633,2.8697,2.8885,2.9551,2.9176,2.8904,2.957,2.9701,2.9701,2.9701,2.9773,2.9847,2.9929,3.0107,2.9992,2.934,2.9396,2.9461,2.9457,2.9545,2.9872,3.0563,3.0668,3.0694,3.0694,3.0694,3.0694,3.0694,3.0753,3.0801,3.0801,3.0804,3.08,3.08,3.08,3.0489,2.9905,3.0509,3.0117,1.8316,1.9784,2.1184,2.3064,2.4899,2.5962,2.4903,2.4575,2.4491,2.4491,2.5033,2.5541,0.0,2.6167,2.664,2.6691,2.6708,0.0,0.0,0.0,0.0,0.0,0.0,0.0,0.0,0.0,0.0,0.0,0.0,0.0,0.0,0.0,0.0,2.2699,2.2699,2.2531,2.2206,2.2178,2.1866,2.1246,2.0958,2.0958,2.1262,2.1262,2.1449,2.1751,2.1751,2.1926,2.215,2.1897,2.1926,2.2108,2.1853,2.1911,2.2108,2.215,2.2378,2.2699,2.2855,2.3402,2.3898,2.3298,2.3611,2.4062,2.333,2.3107,2.3199,2.3667,2.4463,2.5462,2.6674,2.768,2.8586,2.9411,2.9608,2.9608,2.9683,2.9645,2.9626,2.9683,2.9701,2.9701,2.9701,2.9813,2.9939,3.0079,3.0196,3.0292,3.0285,3.0301,3.0356,3.0481,3.0498,3.0567,3.0683,3.069,3.0694,3.0694,3.0694,3.0694,3.0694,3.0753,3.0801,3.0801,3.0804,3.08,3.08,3.08,3.0761,3.0722,3.0761,3.0742,1.7239,1.9224,2.1087,2.1572,2.3994,2.615,2.5559,2.5429,2.5531,2.5796,2.6082,2.6285,0.0,0.0,2.6691,2.6691,2.6691,0.0,0.0,0.0,0.0,0.0,0.0,0.0,0.0,0.0,0.0,0.0,0.0,0.0,0.0,0.0,0.0,2.2699,2.2699,2.2646,2.2517,2.2306,2.2079,2.1866,2.1554,2.1494,2.1617,2.1617,2.1781,2.2053,2.2053,2.2209,2.2504,2.2395,2.2295,2.2164,2.1897,2.1969,2.2257,2.2762,2.2846,2.2781,2.3323,2.3767,2.4055,2.385,2.4322,2.484,2.4067,2.3852,2.3829,2.3811,2.4086,2.4679,2.5967,2.6977,2.7854,2.8697,2.8885,2.9035,2.957,2.9701,2.9701,2.9701,2.9701,2.9701,2.9701,2.9815,2.9942,3.0087,3.0247,3.0362,3.0402,3.051,3.0597,3.06,3.0637,3.0668,3.069,3.0694,3.0694,3.0694,3.0694,3.0694,3.0694,3.0716,3.0764,3.0801,3.0794,3.0792,3.08,3.08,3.08,3.08,3.08,3.08,1.6877,1.8741,2.0714,2.1335,2.3391,2.5445,2.6182,2.6249,2.6243,2.6607,2.6691,2.6691,2.6691,0.0,0.0,0.0,0.0,0.0,0.0,0.0,0.0,0.0,0.0,0.0,0.0,0.0,0.0,0.0,0.0,0.0,0.0,0.0,0.0,0.0,2.2699,2.2699,2.2699,2.2477,2.2364,2.2364,2.2172,2.203,2.1943,2.1943,2.2084,2.2364,2.2364,2.249,2.2699,2.2699,2.2558,2.2351,2.2158,2.22,2.2415,2.2974,2.3117,2.3143,2.3711,2.4139,2.4456,2.4523,2.4927,2.5314,2.48,2.4484,2.4282,2.4179,2.4037,2.4127,2.5168,2.6097,2.7047,2.8144,2.8388,2.8641,2.9514,2.9701,2.9701,2.9701,2.9738,2.9755,2.9755,2.9921,3.0085,3.0176,3.0373,3.0492,3.0496,3.0603,3.068,3.0637,3.0668,3.0694,3.0694,3.0694,3.0694,3.0694,3.0694,3.0694,3.0694,3.0704,3.0734,3.0799,3.0806,3.0806,3.08,3.08,3.08,3.08,3.08,3.08,1.7503,1.8426,1.9905,2.2852,2.3208,2.3572,2.6442,2.6774,2.6502,2.6589,2.6657,2.6691,2.6691,2.6691,0.0,0.0,0.0,0.0,0.0,0.0,0.0,0.0,0.0,0.0,0.0,0.0,0.0,0.0,0.0,0.0,0.0,0.0,0.0,0.0,2.2699,2.2699,2.2699,2.2699,2.2699,2.2699,2.2699,2.2531,2.2206,2.2206,2.2392,2.2699,2.2699,2.2699,2.2699,2.2699,2.2699,2.2699,2.2699,2.2699,2.2699,2.2699,2.3181,2.3802,2.387,2.4469,2.5209,2.5279,2.5351,2.5419,2.5401,2.4888,2.4388,2.4786,2.4414,2.4018,2.4479,2.5248,2.6311,2.7985,2.8388,2.8641,2.9514,2.9701,2.9701,2.9701,2.9816,2.9897,2.9897,3.0176,3.0409,3.0402,3.0572,3.0707,3.069,3.0694,3.0694,3.0694,3.0694,3.0694,3.0694,3.0694,3.0694,3.0694,3.0694,3.0694,3.0694,3.0704,3.0734,3.0799,3.0806,3.0806,3.08,3.08,3.08,3.08,3.08,3.08,1.695,1.8491,2.0235,2.1058,2.3099,2.5007,2.5337,2.5671,2.6064,2.652,2.6657,2.6691,2.6691,2.6691,0.0,0.0,0.0,0.0,0.0,0.0,0.0,0.0,0.0,0.0,0.0,0.0,0.0,0.0,0.0,0.0,0.0,0.0,0.0,0.0,2.2699,2.2699,2.2699,2.2699,2.2699,2.2699,2.2699,2.2642,2.2544,2.2544,2.2602,2.2699,2.2699,2.2699,2.2699,2.2699,2.2699,2.2699,2.2699,2.2699,2.275,2.3285,2.3285,2.3095,2.3643,2.4427,2.5195,2.5223,2.6041,2.6823,2.5735,2.5376,2.5173,2.4367,2.4121,2.4192,2.4513,2.4818,2.5477,2.715,2.7552,2.7955,2.9382,2.9701,2.9701,2.9701,2.9816,2.9897,2.9897,3.0143,3.0348,3.0397,3.0534,3.0649,3.0687,3.0694,3.0694,3.0694,3.0694,3.0694,3.0694,3.0694,3.0694,3.0694,3.0694,3.0694,3.0694,3.0704,3.0704,3.0734,3.0779,3.0804,3.0806,3.0796,3.08,3.08,3.08,3.08,1.8175,1.9747,2.1334,2.1973,2.3852,2.5532,2.5436,2.575,2.6154,0.0,2.6657,2.6691,2.6691,2.6691,0.0,0.0,0.0,0.0,0.0,0.0,0.0,0.0,0.0,0.0,0.0,0.0,0.0,0.0,0.0,0.0,0.0,0.0,0.0,0.0,2.2699,2.2699,2.2699,2.2699,2.2699,2.2699,2.2699,2.2699,2.2699,2.2699,2.2699,2.2699,2.2699,2.2699,2.2699,2.2699,2.2699,2.2699,2.2699,2.2699,2.275,2.3198,2.3267,2.3198,2.3646,2.4209,2.4812,2.5108,2.5712,2.624,2.5595,2.5345,2.5165,2.445,2.4196,2.4238,2.4522,2.4623,2.5011,2.6389,2.696,2.7561,2.8894,2.9457,2.9729,2.9764,2.988,3.0004,3.0052,3.0266,3.0423,3.0477,3.057,3.0645,3.069,3.0694,3.0694,3.0694,3.0694,3.0694,3.0694,3.0694,3.0694,3.0694,3.0694,3.0694,3.0694,3.0694,3.0707,3.07,3.0767,3.0793,3.0798,3.0794,3.08,3.08,3.08,3.0805,2.0336,2.1568,2.2801,2.4376,2.5044,2.553,2.6335,2.6504,2.6505,2.6488,0.0,2.6505,2.6505,2.6505,0.0,0.0,0.0,0.0,0.0,0.0,0.0,0.0,0.0,0.0,0.0,0.0,0.0,0.0,0.0,0.0,0.0,0.0,0.0,2.2699,2.2699,2.2699,2.2699,2.2699,2.2685,0.0,2.2685,2.2685,2.2685,2.2699,2.2699,2.2699,2.2699,2.2699,2.2699,2.2699,2.2699,2.2699,2.2699,2.2699,2.2699,2.2699,2.3129,2.3698,2.3698,2.3894,2.4207,2.4896,2.4799,2.4519,2.5147,2.5007,2.4664,2.4786,2.4478,2.4201,2.4522,2.4607,2.4818,2.5676,2.6556,2.743,2.8228,2.9091,2.9746,2.9883,3.0026,3.0151,3.0283,3.0477,3.0604,3.0602,3.0665,3.069,3.0694,3.0694,3.0694,3.0694,3.0694,3.0694,3.0694,3.0694,3.0694,3.0694,3.0694,3.0694,3.0694,3.0694,3.0707,3.0697,3.0767,3.0793,3.0796,3.0794,3.08,3.08,3.0803,3.0791,1.9623,2.1119,2.2769,2.3669,2.506,2.6302,2.659,2.6218,2.5813,2.5748,2.5324,2.4965,2.4965,0.0,0.0,0.0,0.0,0.0,0.0,0.0,0.0,0.0,0.0,0.0,0.0,0.0,0.0,0.0,0.0,0.0,0.0,0.0,0.0,2.2699,2.2699,2.2699,2.2699,2.2646,2.2619,0.0,2.2619,2.2619,2.2619,2.2672,2.2699,2.2699,2.2699,2.2699,2.2699,2.2699,2.2699,2.2699,2.2699,2.2699,2.2699,2.2699,2.2802,2.2953,2.3006,2.3497,2.4129,2.4353,2.4752,2.5108,2.4855,2.479,2.4761,2.4389,2.4339,2.4446,2.4574,2.4607,2.4661,2.4917,2.6115,2.743,2.8228,2.917,2.9874,2.9888,3.0082,3.0271,3.0294,3.0476,3.0601,3.0597,3.0669,3.0695,3.069,3.0694,3.0694,3.0694,3.0694,3.0694,3.0694,3.0694,3.0694,3.0694,3.0694,3.0694,3.0694,3.0694,3.0697,3.0704,3.0778,3.0804,3.081,3.0807,3.08,3.0801,3.0793,3.0798,2.0671,2.2329,2.4034,2.4845,2.5797,2.6572,2.6691,2.5862,2.5067,2.502,2.4747,2.4491,0.0,0.0,0.0,0.0,0.0,0.0,0.0,0.0,0.0,0.0,0.0,0.0,0.0,0.0,0.0,0.0,0.0,0.0,0.0,2.2672,2.2646,2.2646,2.2619,2.2592,2.2592,2.2582,2.2555,2.2555,2.2555,2.2582,2.2592,2.2672,2.2699,2.2699,2.2699,2.2699,2.2699,2.2699,2.2699,2.2699,2.2699,2.2699,2.2699,2.2738,2.2751,2.2764,2.2829,2.3154,2.3537,2.3601,2.392,2.4225,2.4112,2.4213,2.4342,2.4158,2.4284,2.4517,2.4582,2.4879,2.5203,2.5292,2.6284,2.7317,2.7721,2.8921,2.9921,2.9988,3.0157,3.0337,3.043,3.0535,3.0615,3.0637,3.0673,3.0707,3.069,3.0694,3.0694,3.0694,3.0694,3.0694,3.0694,3.0694,3.0694,3.0694,3.0694,3.0694,3.0694,3.0694,3.0694,3.0694,3.0722,3.0769,3.0801,3.0798,3.0795,3.0801,3.0796,3.08,2.1455,2.3325,2.5146,2.6303,2.6589,2.6606,2.6674,2.5541,2.4491,2.4491,2.4305,0.0,0.0,0.0,0.0,0.0,0.0,0.0,0.0,0.0,0.0,0.0,0.0,0.0,0.0,0.0,0.0,0.0,0.0,0.0,2.2751,2.2712,2.2646,2.2579,2.2542,2.2515,2.2501,2.2487,2.2487,2.2487,2.2501,2.2542,2.2592,2.2672,2.2699,2.2699,2.2699,2.2699,2.2699,2.2699,2.2699,2.2699,2.2699,2.2699,2.2712,2.2777,2.2803,2.2816,2.2893,2.2919,2.2932,2.3008,2.302,2.3077,2.344,2.3675,2.3858,2.4097,2.433,2.4517,2.4574,2.5196,2.583,2.5941,2.6716,2.7411,2.7411,2.8747,2.9965,3.008,3.0247,3.04,3.0564,3.0597,3.0628,3.0665,3.0688,3.07,3.0703,3.0706,3.071,3.0694,3.0694,3.0694,3.0694,3.0694,3.0694,3.0694,3.0694,3.0694,3.0694,3.0694,3.0694,3.0694,3.0707,3.0734,3.0774,3.0786,3.0807,3.0803,3.0798,3.08,1.9176,2.1343,2.3973,2.6068,2.6589,2.6589,0.0,0.0,2.4491,0.0,2.3477,0.0,0.0,0.0,0.0,0.0,0.0,0.0,0.0,0.0,0.0,0.0,0.0,0.0,0.0,0.0,0.0,0.0,0.0,0.0,2.2965,2.3008,2.2863,2.2511,2.2569,2.2569,2.2501,2.2432,2.2405,2.2405,2.2474,2.2542,2.2592,2.2672,2.2699,2.2699,2.2699,2.2699,2.2699,2.2699,2.2699,2.2699,2.2699,2.2699,2.2712,2.2777,2.2803,2.2829,2.2927,2.2995,2.3008,2.3052,2.3095,2.3175,2.3624,2.3774,2.3888,2.4321,2.4482,2.449,2.4522,2.5152,2.5821,2.5891,2.7095,2.8247,2.8247,2.9215,3.008,3.0102,3.0352,3.0564,3.0598,3.0602,3.0592,3.0604,3.0608,3.0621,3.07,3.0704,3.0692,3.069,3.0694,3.0694,3.0694,3.0694,3.0694,3.0694,3.0694,3.0694,3.0694,3.0694,3.0694,3.0694,3.0707,3.0703,3.0709,3.0778,3.0791,3.081,3.0801,3.0793,2.091,2.2998,2.4808,2.62,2.6537,2.6554,2.6606,2.5831,2.5164,2.5348,0.0,0.0,0.0,0.0,0.0,0.0,0.0,0.0,0.0,0.0,0.0,0.0,0.0,0.0,0.0,0.0,0.0,0.0,0.0,2.3271,2.3003,2.299,2.2825,2.246,2.2432,2.2419,2.2377,2.2366,2.2352,2.2352,2.2405,2.246,2.2487,2.2569,2.2619,2.2699,2.2699,2.2699,2.2699,2.2699,2.2699,2.2699,2.2699,2.2699,2.2712,2.2777,2.2829,2.2881,2.297,2.3008,2.302,2.3082,2.3065,2.3139,2.3646,2.3806,2.3899,2.4375,2.45,2.4601,2.511,2.5854,2.6617,2.7174,2.8212,2.9101,2.9225,2.9699,3.0157,3.0346,3.0495,3.0598,3.0598,3.0598,3.0607,3.0595,3.06,3.0613,3.0696,3.07,3.0707,3.069,3.0694,3.0694,3.0694,3.0694,3.0694,3.0694,3.0694,3.0694,3.0694,3.0694,3.0694,3.0694,3.0707,3.0704,3.0703,3.0765,3.0796,3.0791,3.0798,3.0801,2.2021,2.3745,2.4841,2.6344,2.6619,2.6587,0.0,0.0,2.5705,0.0,0.0,0.0,0.0,0.0,0.0,0.0,0.0,0.0,0.0,0.0,0.0,0.0,0.0,0.0,0.0,0.0,0.0,0.0,0.0,2.3461,2.317,2.306,2.2833,2.2487,2.2394,2.2324,2.2296,2.2296,2.2296,2.2296,2.238,2.2391,2.2391,2.2487,2.2565,2.2672,2.2672,2.2685,2.2699,2.2699,2.2699,2.2699,2.2699,2.2699,2.2712,2.2777,2.2842,2.2919,2.2982,2.302,2.308,2.3323,2.3363,2.3473,2.4186,2.4411,2.4507,2.4986,2.5113,2.5271,2.5911,2.6693,2.7485,2.8203,2.8999,2.9664,2.9905,3.0059,3.0235,3.0545,3.0598,3.0598,3.0598,3.0598,3.0607,3.0606,3.061,3.0623,3.0665,3.0673,3.068,3.069,3.0694,3.0694,3.0694,3.0694,3.0694,3.0694,3.0694,3.0694,3.0694,3.0694,3.0694,3.0694,3.0694,3.0704,3.0691,3.0765,3.0799,3.0773,3.0794,3.0791,2.0335,2.147,2.262,2.6425,2.697,2.6739,0.0,0.0,0.0,0.0,0.0,0.0,0.0,0.0,0.0,0.0,0.0,0.0,0.0,0.0,0.0,0.0,0.0,0.0,0.0,0.0,0.0,0.0,0.0,2.3917,2.3595,2.337,2.3096,2.2699,2.2501,2.2349,2.2296,2.2296,2.2296,2.2296,2.238,2.2391,2.2391,2.2542,2.2592,2.2623,2.2623,2.2632,2.2699,2.2699,2.2699,2.2699,2.2699,2.2699,2.2712,2.2777,2.2842,2.2919,2.2982,2.3045,2.323,2.3992,2.4238,2.4464,2.5691,2.6077,2.6179,2.6642,2.6776,2.6795,2.6842,2.7484,2.8165,2.8278,2.898,2.9682,3.0022,3.0196,3.0348,3.0559,3.0598,3.0598,3.0598,3.0598,3.0598,3.0598,3.0598,3.0597,3.0602,3.0606,3.0626,3.069,3.0694,3.0694,3.0694,3.0694,3.0694,3.0694,3.0694,3.0694,3.0694,3.0694,3.0694,3.0694,3.0694,3.0694,3.0697,3.0767,3.0777,3.0718,3.0775,3.0804,1.8905,2.0512,2.2212,2.4406,2.5394,2.6017,2.6686,2.6742,2.6722,0.0,0.0,0.0,0.0,0.0,0.0,0.0,0.0,0.0,0.0,0.0,0.0,0.0,0.0,0.0,0.0,0.0,0.0,0.0,0.0,0.0,2.3628,2.3329,2.3025,2.2712,2.246,2.2324,2.2296,2.2296,2.2296,2.2296,2.2324,2.2338,2.2338,2.2394,2.2446,2.2542,2.2542,2.2592,2.2699,2.2699,2.2699,2.2699,2.2699,2.2699,2.2699,2.2725,2.2777,2.2855,2.2902,2.2982,2.318,2.4015,2.4413,2.4759,2.5876,2.6318,2.6515,2.6811,2.6907,2.7018,2.7538,2.7901,2.8294,2.8922,2.9429,2.9847,3.0059,3.0309,3.0515,3.0593,3.0598,3.0598,3.0598,3.0598,3.0598,3.0598,3.0598,3.0592,3.0604,3.0608,3.0621,3.0626,3.063,3.0657,3.0692,3.0692,3.0699,3.0694,3.0694,3.0694,3.0694,3.0694,3.0694,3.0694,3.0694,3.0695,3.0695,3.076,3.0793,3.0762,3.0781,3.081,1.8053,1.9499,2.1192,0.0,2.4215,2.488,2.6467,0.0,2.6824,0.0,0.0,0.0,0.0,0.0,0.0,0.0,0.0,0.0,0.0,0.0,0.0,0.0,0.0,0.0,0.0,0.0,0.0,0.0,0.0,0.0,2.3703,2.341,2.3074,2.2712,2.2432,2.2296,2.2296,2.2296,2.2296,2.2296,2.2296,2.2296,2.2296,2.2324,2.2394,2.2474,2.2515,2.2609,2.2699,2.2699,2.2699,2.2699,2.2699,2.2699,2.2699,2.2699,2.2738,2.2803,2.2855,2.2932,2.3177,2.4274,2.4835,2.5309,2.6597,2.7187,2.7448,2.7683,2.7743,2.7854,2.8393,2.8533,2.8693,2.9342,2.969,2.9894,3.0,3.0279,3.052,3.0593,3.0598,3.0598,3.0598,3.0598,3.0598,3.0598,3.0598,3.0607,3.0595,3.06,3.0604,3.0602,3.0606,3.0633,3.0696,3.07,3.0707,3.069,3.0694,3.0694,3.0694,3.0694,3.0694,3.0694,3.0694,3.0716,3.0728,3.0777,3.0795,3.0801,3.0796,3.0802,0.0,0.0,0.0,0.0,0.0,0.0,2.6679,0.0,2.5908,0.0,0.0,0.0,0.0,0.0,0.0,0.0,0.0,0.0,0.0,0.0,0.0,0.0,0.0,0.0,0.0,0.0,0.0,0.0,0.0,2.3976,2.3907,2.3631,2.3259,2.2725,2.2432,2.2296,2.2296,2.2296,2.2296,2.2296,2.2296,2.2296,2.2296,2.2366,2.2391,2.2422,2.2542,2.2632,2.2699,2.2699,2.2699,2.2699,2.2699,2.2699,2.2699,2.2699,2.2738,2.2803,2.2803,2.2893,2.3252,2.4803,2.5526,2.6138,2.7952,2.8737,2.9078,2.9326,2.9396,2.9396,2.9396,2.939,2.9423,2.9482,2.9644,2.9809,2.988,3.0096,3.0348,3.0554,3.0593,3.0593,3.0598,3.0598,3.0598,3.0598,3.0598,3.0607,3.0595,3.06,3.0604,3.0602,3.0602,3.0633,3.0696,3.07,3.0707,3.069,3.0694,3.0694,3.0694,3.0694,3.0694,3.0694,3.0694,3.0737,3.0799,3.08,3.0805,3.0793,3.0808,3.0806,1.5922,0.0,0.0,0.0,0.0,0.0,0.0,0.0,0.0,0.0,0.0,0.0,0.0,0.0,0.0,0.0,0.0,0.0,0.0,0.0,0.0,0.0,0.0,0.0,0.0,0.0,0.0,0.0,2.3907,2.3876,2.3896,2.3457,2.306,2.2712,2.2432,2.2296,2.2296,2.2296,2.2296,2.2296,2.2296,2.2296,2.2296,2.2324,2.2349,2.2391,2.2487,2.2569,2.2619,2.2672,2.2699,2.2699,2.2699,2.2699,2.2699,2.2699,2.2712,2.2738,2.279,2.2829,2.3124,2.4776,2.5625,2.6327,2.8002,2.8867,2.9304,2.9386,2.9396,2.9396,2.9396,2.939,2.9412,2.9423,2.9541,2.9691,2.9803,2.9915,3.008,3.0325,3.0389,3.0436,3.0564,3.0598,3.0598,3.0598,3.0598,3.0602,3.0607,3.0607,3.0592,3.0597,3.0597,3.061,3.0636,3.0629,3.0645,3.0707,3.0703,3.0694,3.0694,3.0694,3.0694,3.0694,3.0694,3.0716,3.0728,3.0771,3.0796,3.0795,3.0794,3.079,1.584,1.7009,1.8428,0.0,0.0,0.0,0.0,2.3967,0.0,0.0,0.0,0.0,0.0,0.0,0.0,0.0,0.0,0.0,0.0,0.0,0.0,0.0,0.0,0.0,0.0,0.0,0.0,2.3947,2.3886,2.3855,2.3865,2.3388,2.3035,2.2876,2.2501,2.2296,2.2296,2.2296,2.2296,2.2296,2.2296,2.2296,2.2296,2.2296,2.2324,2.2349,2.246,2.2528,2.2569,2.2659,2.2699,2.2699,2.2699,2.2699,2.2699,2.2699,2.2699,2.2712,2.2751,2.2777,2.3007,2.4342,2.5359,2.6343,2.761,2.8663,2.9396,2.9396,2.9396,2.9396,2.9396,2.9399,2.9401,2.9402,2.9472,2.9589,2.969,2.9771,2.9897,3.0164,3.0265,3.0342,3.0446,3.053,3.0598,3.0598,3.0598,3.0598,3.0598,3.0598,3.0598,3.0598,3.0598,3.0607,3.0595,3.0593,3.0633,3.07,3.0703,3.0694,3.0694,3.0694,3.0694,3.0694,3.0694,3.0703,3.0735,3.0774,3.0799,3.0798,3.0804,3.0792,1.6784,1.7121,1.7673,1.9545,2.0117,0.0,2.2785,2.2849,2.3094,0.0,0.0,0.0,0.0,0.0,0.0,0.0,0.0,0.0,0.0,0.0,0.0,0.0,0.0,0.0,2.502,2.4431,2.3987,2.3896,2.3896,2.3847,2.3806,2.3347,2.3091,2.3091,2.2579,2.2296,2.2296,2.2296,2.2296,2.2296,2.2296,2.2296,2.2296,2.2296,2.2296,2.231,2.2432,2.2501,2.2515,2.2632,2.2699,2.2699,2.2699,2.2699,2.2699,2.2699,2.2699,2.2699,2.2699,2.2738,2.2924,2.3753,2.4979,2.6253,2.7085,2.8297,2.9396,2.9396,2.9396,2.9396,2.9396,2.9396,2.9388,2.9411,2.9443,2.9521,2.956,2.9636,2.9764,3.0,3.0164,3.0265,3.0294,3.0441,3.0564,3.0598,3.0598,3.0598,3.0598,3.0598,3.0598,3.0598,3.0598,3.0607,3.0591,3.0593,3.0629,3.0692,3.0695,3.071,3.071,3.069,3.0694,3.0694,3.0707,3.073,3.08,3.0804,3.08,3.0794,3.0804,3.0794,1.7154,1.8138,1.9105,1.8956,0.0,0.0,2.1538,2.202,2.267,0.0,0.0,0.0,0.0,0.0,0.0,0.0,0.0,0.0,0.0,0.0,0.0,0.0,0.0,0.0,2.5067,2.4886,2.4523,2.3871,2.3816,2.3816,2.3806,2.3347,2.3091,2.3091,2.2579,2.2296,2.2296,2.2296,2.2296,2.2296,2.2296,2.2296,2.2296,2.2296,2.2296,2.231,2.2377,2.2446,2.2515,2.2596,2.2646,2.2699,2.2699,2.2699,2.2699,2.2699,2.2699,2.2699,2.2699,2.2712,2.2885,2.3915,2.5056,2.623,2.7287,2.8445,2.9396,2.9396,2.9396,2.9396,2.9396,2.9396,2.9407,2.9388,2.9411,2.9443,2.9521,2.9569,2.9655,2.9755,2.9888,3.0044,3.0265,3.0323,3.0406,3.0588,3.0598,3.0598,3.0598,3.0598,3.0598,3.0598,3.0598,3.0598,3.0607,3.061,3.0608,3.0613,3.0669,3.0707,3.0707,3.0703,3.0694,3.0694,3.075,3.0789,3.08,3.0797,3.08,3.0799,3.0794,3.0804,1.8053,1.8727,1.9324,1.9175,0.0,0.0,0.0,2.0929,2.1601,2.3015,0.0,0.0,0.0,0.0,0.0,0.0,0.0,0.0,0.0,0.0,0.0,0.0,0.0,0.0,2.6204,2.5842,2.5273,2.4508,2.4052,2.3816,2.3855,2.3359,2.3091,2.3091,2.2579,2.2296,2.2296,2.2296,2.2296,2.2296,2.2296,2.2296,2.2296,2.2296,2.2296,2.231,2.238,2.2432,2.2515,2.2582,2.2632,2.2699,2.2699,2.2699,2.2699,2.2699,2.2699,2.2699,2.2699,2.2699,2.2803,2.349,2.445,2.5492,2.6235,2.7527,2.8839,2.9266,2.9396,2.9396,2.9396,2.9396,2.9396,2.9396,2.939,2.9412,2.9443,2.9531,2.9607,2.9636,2.9728,2.9855,3.0066,3.0151,3.0266,3.0425,3.0446,3.0481,3.0593,3.0598,3.0598,3.0598,3.0598,3.0598,3.0598,3.0601,3.06,3.06,3.0657,3.07,3.07,3.0703,3.0694,3.0694,3.0723,3.0765,3.08,3.0798,3.0798,3.08,3.0795,3.0807,0.0,0.0,0.0,0.0,0.0,2.021,0.0,0.0,0.0,2.2055,0.0,0.0,0.0,0.0,0.0,0.0,0.0,0.0,0.0,0.0,0.0,0.0,0.0,0.0,0.0,2.6663,2.5944,2.5365,2.4516,2.4031,2.4041,2.3436,2.3084,2.3022,2.2552,2.2296,2.2296,2.2296,2.2296,2.2296,2.2296,2.2296,2.2296,2.2296,2.2296,2.231,2.2366,2.2419,2.2487,2.2542,2.2605,2.2672,2.2699,2.2699,2.2699,2.2699,2.2699,2.2699,2.2699,2.2699,2.2751,2.3003,2.3857,2.4872,2.5313,2.6688,2.8253,2.8951,2.9266,2.9396,2.9396,2.9396,2.9396,2.9396,2.9409,2.9392,2.9402,2.9501,2.9588,2.9598,2.9645,2.9747,2.9883,2.9996,3.0129,3.0277,3.03,3.0365,3.0564,3.0598,3.0598,3.0598,3.0598,3.0598,3.0598,3.0597,3.0591,3.0591,3.0649,3.0688,3.0673,3.0699,3.0694,3.0694,3.0695,3.0726,3.08,3.0798,3.0798,3.08,3.0796,3.0809,0.0,0.0,0.0,0.0,1.9133,0.0,0.0,0.0,2.0296,2.0038,0.0,0.0,0.0,0.0,0.0,0.0,0.0,0.0,0.0,0.0,0.0,0.0,0.0,0.0,0.0,2.6663,2.6168,2.6088,2.5316,2.4768,2.4527,2.3619,2.2985,2.2747,2.246,2.2296,2.2296,2.2296,2.2296,2.2296,2.2296,2.2296,2.2296,2.2296,2.2296,2.2296,2.231,2.2352,2.2405,2.2419,2.2501,2.2623,2.2672,2.2699,2.2699,2.2699,2.2699,2.2699,2.2699,2.2699,2.2751,2.3003,2.3992,2.5226,2.6095,2.7167,2.8118,2.8224,2.8802,2.9396,2.9396,2.9396,2.9396,2.9396,2.9407,2.9399,2.9392,2.9453,2.9531,2.9588,2.9645,2.9747,2.9883,2.9913,3.0019,3.0265,3.03,3.0365,3.0564,3.0598,3.0598,3.0598,3.0598,3.0598,3.0598,3.0602,3.0602,3.0602,3.061,3.0613,3.061,3.0672,3.0694,3.0694,3.0695,3.0726,3.08,3.0798,3.0798,3.08,3.08,3.0794,0.0,0.0,0.0,0.0,0.0,0.0,1.8422,0.0,1.9146,0.0,0.0,0.0,0.0,0.0,0.0,0.0,0.0,0.0,0.0,0.0,0.0,0.0,0.0,0.0,0.0,0.0,0.0,0.0,0.0,2.5185,2.5452,2.4485,2.3764,2.3457,2.2791,2.2422,2.2422,2.2422,2.2408,2.2366,2.2366,2.2366,2.2366,2.2324,2.2324,2.2366,2.2324,2.2366,2.246,2.246,2.2515,2.2623,2.2672,2.2699,2.2699,2.2699,2.2699,2.2699,2.2699,2.2699,2.2751,2.3003,2.3596,2.4414,2.5753,2.6268,2.6704,2.8113,2.8574,2.8765,2.9266,2.9396,2.9396,2.9396,2.9396,2.9407,2.9409,2.9431,2.9463,2.9531,2.9607,2.9673,2.9764,2.9782,2.9849,3.0037,3.0131,3.0234,3.0414,3.0525,3.0598,3.0598,3.0598,3.0598,3.0598,3.0598,3.0598,3.0598,3.0606,3.0613,3.0665,3.0684,3.0699,3.0694,3.0747,3.0768,3.08,3.0801,3.079,3.08,3.08,3.0794,1.6261,0.0,0.0,0.0,0.0,0.0,0.0,0.0,0.0,0.0,0.0,0.0,0.0,0.0,0.0,0.0,0.0,0.0,0.0,0.0,0.0,0.0,0.0,0.0,0.0,0.0,0.0,0.0,0.0,0.0,2.6363,2.512,2.4269,2.4033,2.3024,2.2501,2.2501,2.2487,2.2446,2.2391,2.2391,2.2391,2.2391,2.238,2.2394,2.2419,2.238,2.2405,2.2501,2.2501,2.2542,2.2592,2.2646,2.2685,2.2699,2.2699,2.2699,2.2699,2.2699,2.2699,2.2725,2.2932,2.3182,2.3654,2.5033,2.5433,2.5812,2.779,2.8274,2.8344,2.9106,2.9294,2.9304,2.9386,2.9396,2.9396,2.9396,2.939,2.9412,2.9463,2.9531,2.9598,2.9636,2.9692,2.9747,2.9891,3.0007,3.0144,3.0283,3.0476,3.0598,3.0598,3.0598,3.0598,3.0598,3.0598,3.0598,3.0598,3.0606,3.0613,3.0661,3.0692,3.0707,3.0703,3.076,3.0785,3.08,3.0801,3.0793,3.08,3.08,3.0794,0.0,0.0,0.0,1.5867,0.0,0.0,0.0,0.0,1.7578,0.0,0.0,0.0,0.0,0.0,0.0,0.0,0.0,0.0,0.0,0.0,0.0,0.0,0.0,0.0,0.0,0.0,0.0,0.0,0.0,0.0,2.7126,2.5164,2.4046,2.4099,2.3068,2.2501,2.2501,2.2432,2.2391,2.2391,2.2391,2.2391,2.2391,2.246,2.2501,2.2501,2.2501,2.2501,2.2501,2.2501,2.2542,2.2592,2.2592,2.2646,2.2699,2.2699,2.2699,2.2699,2.2699,2.2699,2.2699,2.2712,2.2889,2.3272,2.4103,2.5072,2.6068,2.6987,2.7794,2.8485,2.8885,2.9003,2.9089,2.9336,2.9396,2.9396,2.9396,2.939,2.9402,2.9402,2.9453,2.9502,2.9502,2.9608,2.9747,2.9891,3.0007,3.0144,3.0283,3.0476,3.0598,3.0598,3.0598,3.0598,3.0598,3.0598,3.0598,3.0598,3.0606,3.06,3.06,3.068,3.07,3.07,3.0706,3.0742,3.08,3.0803,3.0799,3.08,3.08,3.0794,0.0,0.0,1.578,1.5525,0.0,0.0,0.0,0.0,0.0,0.0,0.0,0.0,0.0,0.0,0.0,0.0,0.0,0.0,0.0,0.0,0.0,0.0,0.0,0.0,0.0,0.0,0.0,0.0,2.6182,0.0,0.0,2.5781,2.474,2.462,2.323,2.2528,2.2569,2.2501,2.2446,2.2391,2.2391,2.2419,2.246,2.2391,2.2432,2.2569,2.2474,2.2487,2.2569,2.2569,2.2565,2.2592,2.2646,2.2646,2.2632,2.2685,2.2699,2.2699,2.2699,2.2699,2.2699,2.2699,2.2764,2.2981,2.3736,2.4002,2.4436,2.6286,2.6849,2.7145,2.8305,2.8791,2.9014,2.9112,2.9272,2.9396,2.9396,2.9399,2.939,2.9402,2.9423,2.9453,2.9492,2.955,2.9598,2.9692,2.9855,3.0026,3.0144,3.0302,3.0446,3.0593,3.0598,3.0598,3.0598,3.0598,3.0598,3.0598,3.0607,3.0601,3.06,3.0625,3.0645,3.07,3.0707,3.0733,3.08,3.0795,3.08,3.08,3.08,3.0796,1.5345,1.5445,0.0,1.5478,1.569,0.0,1.5645,0.0,0.0,0.0,0.0,0.0,0.0,0.0,0.0,0.0,0.0,0.0,0.0,0.0,0.0,0.0,0.0,0.0,0.0,0.0,2.4218,2.6175,0.0,0.0,0.0,0.0,2.5037,2.5043,2.3409,2.2569,2.2592,2.2525,2.246,2.2391,2.2391,2.2419,2.246,2.2391,2.2432,2.2569,2.2474,2.2487,2.2569,2.2579,2.2592,2.2623,2.2672,2.2672,2.2632,2.2685,2.2699,2.2699,2.2699,2.2699,2.2699,2.2699,2.2699,2.2836,2.3578,2.3601,2.3727,2.555,2.591,2.6073,2.7502,2.8061,2.8349,2.873,2.906,2.9262,2.9262,2.9326,2.9407,2.9401,2.9401,2.9411,2.9461,2.9453,2.9501,2.9588,2.9754,2.9926,3.0087,3.0216,3.0384,3.0588,3.0598,3.0598,3.0598,3.0598,3.0598,3.0598,3.0598,3.0607,3.0606,3.0604,3.0625,3.0669,3.0695,3.0726,3.08,3.0794,3.08,3.08,3.08,3.0799]}]]